[[{"header":{"parameterUnit":"m.s-1","parameterCategory":1,"la1":31.0,"la2":29.5877,"lo1":-88.7671,"lo2":-86.6584,"dy":0.0162,"dx":0.0185,"nx":115,"ny":88,"refTime":"2024-07-27T06:00:00:Z","depth":0,"parameterNumber":2,"parameterNumberName":"U-component_of_WINDS"},"data":[0.0,0.0,0.0,0.0,0.0,0.0,0.0,0.0,0.0,0.0,0.0,0.0,0.0,0.0,0.0,0.0,0.0,0.0,0.0,0.0,0.0,0.0,0.0,0.0,0.0,0.0,0.0,0.0,0.0,0.0,0.0,0.0,0.0,0.0,0.0,0.0,0.0,0.0,0.0,0.0,0.0,0.0,0.0,0.0,0.0,0.0,0.0,0.0,0.0,0.0,0.0,0.0,0.0,0.0,0.0,0.0,0.0,0.0,0.0,0.0,0.0,0.0,0.0,0.0,0.0,0.0,0.0,0.0,0.0,0.0,0.0,0.0,0.0,0.0,0.0,0.0,0.0,0.0,0.0,0.0,0.0,0.0,0.0,0.0,0.0,0.0,0.0,0.0,0.0,0.0,0.0,0.0,0.0,0.0,0.0,0.0,0.0,0.0,0.0,0.0,0.0,0.0,0.0,0.0,0.0,0.0,0.0,0.0,0.0,0.0,0.0,0.0,0.0,0.0,0.0,0.0,0.0,0.0,0.0,0.0,0.0,0.0,0.0,0.0,0.0,0.0,0.0,0.0,0.0,0.0,0.0,0.0,0.0,0.0,0.0,0.0,0.0,0.0,0.0,0.0,0.0,0.0,0.0,0.0,0.0,0.0,0.0,0.0,0.0,0.0,0.0,0.0,0.0,0.0,0.0,0.0,0.0,0.0,0.0,0.0,0.0,0.0,0.0,0.0,0.0,0.0,0.0,0.0,0.0,0.0,0.0,0.0,0.0,0.0,0.0,0.0,0.0,0.0,0.0,0.0,0.0,0.0,0.0,0.0,0.0,0.0,0.0,0.0,0.0,0.0,0.0,0.0,0.0,0.0,0.0,0.0,0.0,0.0,0.0,0.0,0.0,0.0,0.0,0.0,0.0,0.0,0.0,0.0,0.0,0.0,0.0,0.0,0.0,0.0,0.0,0.0,0.0,0.0,0.0,0.0,0.0,0.0,0.0,0.0,0.0,0.0,0.0,0.0,0.0,0.0,0.0,0.0,0.0,0.0,0.0,0.0,0.0,0.0,0.0,0.0,0.0,0.0,0.0,0.0,0.0,0.0,0.0,0.0,0.0,0.0,0.0,0.0,0.0,0.0,0.0,0.0,0.0,0.0,0.0,0.0,0.0,0.0,0.0,0.0,0.0,0.0,0.0,0.0,0.0,0.0,0.0,0.0,0.0,0.0,0.0,0.0,0.0,0.0,0.0,0.0,0.0,0.0,0.0,0.0,0.0,0.0,0.0,0.0,0.0,0.0,0.0,0.0,0.0,0.0,0.0,0.0,0.0,0.0,0.0,0.0,0.0,0.0,0.0,0.0,0.0,0.0,0.0,0.0,0.0,0.0,0.0,0.0,0.0,0.0,0.0,0.0,0.0,0.0,0.0,0.0,0.0,0.0,0.0,0.0,0.0,0.0,0.0,0.0,0.0,0.0,0.0,0.0,0.0,0.0,0.0,0.0,0.0,0.0,0.0,0.0,0.0,0.0,0.0,0.0,0.0,0.0,0.0,0.0,0.0,0.0,0.0,0.0,0.0,0.0,0.0,0.0,0.0,0.0,0.0,0.0,0.0,0.0,0.0,0.0,0.0,0.0,0.0,0.0,0.0,0.0,0.0,0.0,0.0,0.0,0.0,0.0,0.0,0.0,0.0,0.0,0.0,0.0,0.0,0.0,0.0,0.0,0.0,0.0,0.0,0.0,0.0,0.0,0.0,0.0,0.0,0.0,0.0,0.0,0.0,0.0,0.0,0.0,0.0,0.0,0.0,0.0,0.0,0.0,0.0,0.0,0.0,0.0,0.0,0.0,0.0,0.0,0.0,0.0,0.0,0.0,0.0,0.0,0.0,0.0,0.0,0.0,0.0,0.0,0.0,0.0,0.0,0.0,0.0,0.0,0.0,0.0,0.0,0.0,0.0,0.0,0.0,0.0,0.0,0.0,0.0,0.0,0.0,0.0,0.0,0.0,0.0,0.0,0.0,0.0,0.0,0.0,0.0,0.0,0.0,0.0,0.0,0.0,0.0,0.0,0.0,0.0,0.0,0.0,0.0,0.0,0.0,0.0,0.0,0.0,0.0,0.0,0.0,0.0,0.0,0.0,0.0,0.0,0.0,0.0,0.0,0.0,0.0,0.0,0.0,0.0,0.0,0.0,0.0,0.0,0.0,0.0,0.0,0.0,0.0,0.0,0.0,0.0,0.0,0.0,0.0,0.0,0.0,0.0,0.0,0.0,0.0,0.0,0.0,0.0,0.0,0.0,0.0,0.0,0.0,0.0,0.0,0.0,0.0,0.0,0.0,0.0,0.0,0.0,0.0,0.0,0.0,0.0,0.0,0.0,0.0,0.0,0.0,0.0,0.0,0.0,0.0,0.0,0.0,0.0,0.0,0.0,0.0,0.0,0.0,0.0,0.0,0.0,0.0,0.0,0.0,0.0,0.0,0.0,0.0,0.0,0.0,0.0,0.0,0.0,0.0,0.0,0.0,0.0,0.0,0.0,0.0,0.0,0.0,0.0,0.0,0.0,0.0,0.0,0.0,0.0,0.0,0.0,0.0,0.0,0.0,0.0,0.0,0.0,0.0,0.0,0.0,0.0,0.0,0.0,0.0,0.0,0.0,0.0,0.0,0.0,0.0,0.0,0.0,0.0,0.0,0.0,0.0,0.0,0.0,0.0,0.0,0.0,0.0,0.0,0.0,0.0,0.0,0.0,0.0,0.0,0.0,0.0,0.0,0.0,0.0,0.0,0.0,0.0,0.0,0.0,0.0,0.0,0.0,0.0,0.0,0.0,0.0,0.0,0.0,0.0,0.0,0.0,0.0,0.0,0.0,0.0,0.0,0.0,0.0,0.0,0.0,0.0,0.0,0.0,0.0,0.0,0.0,0.0,0.0,0.0,0.0,0.0,0.0,0.0,0.0,0.0,0.0,0.0,0.0,0.0,0.0,0.0,0.0,0.0,0.0,0.0,0.0,0.0,0.0,0.0,0.0,0.0,0.0,0.0,0.0,0.0,0.0,0.0,0.0,0.0,0.0,0.0,0.0,0.0,0.0,0.0,0.0,0.0,0.0,0.0,0.0,0.0,0.0,0.0,0.0,0.0,0.0,0.0,0.0,0.0,0.0,0.0,0.0,0.0,0.0,0.0,0.0,0.0,0.0,0.0,0.0,0.0,0.0,0.0,0.0,0.0,0.0,0.0,0.0,0.0,0.0,0.0,0.0,0.0,0.0,0.0,0.0,0.0,0.0,0.0,0.0,0.0,0.0,0.0,0.0,0.0,0.0,0.0,0.0,0.0,0.0,0.0,0.0,0.0,0.0,0.0,0.0,0.0,0.0,0.0,0.0,0.0,0.0,0.0,0.0,0.0,0.0,0.0,0.0,0.0,0.0,0.0,0.0,0.0,0.0,0.0,0.0,0.0,0.0,0.0,0.0,0.0,0.0,0.0,0.0,0.0,0.0,0.0,0.0,0.0,0.0,0.0,0.0,0.0,0.0,0.0,0.0,0.0,0.0,0.0,0.0,0.0,0.0,0.0,0.0,0.0,0.0,0.0,0.0,0.0,0.0,0.0,0.0,0.0,0.0,0.0,0.0,0.0,0.0,0.0,0.0,0.0,0.0,0.0,0.0,0.0,0.0,0.0,0.0,0.0,0.0,0.0,0.0,0.0,0.0,0.0,0.0,0.0,0.0,0.0,0.0,0.0,0.0,0.0,0.0,0.0,0.0,0.0,0.0,0.0,0.0,0.0,0.0,0.0,0.0,0.0,0.0,0.0,0.0,0.0,0.0,0.0,0.0,0.0,0.0,0.0,0.0,0.0,0.0,0.0,0.0,0.0,0.0,0.0,0.0,0.0,0.0,0.0,0.0,0.0,0.0,0.0,0.0,0.0,0.0,0.0,0.0,0.0,0.0,0.0,0.0,0.0,0.0,0.0,0.0,0.0,0.0,0.0,0.0,0.0,0.0,0.0,0.0,0.0,0.0,0.0,0.0,0.0,0.0,0.0,0.0,0.0,0.0,0.0,0.0,0.0,0.0,0.0,0.0,0.0,0.0,0.0,0.0,0.0,0.0,0.0,0.0,0.0,0.0,0.0,0.0,0.0,0.0,0.0,0.0,0.0,0.0,0.0,0.0,0.0,0.0,0.0,0.0,0.0,0.0,0.0,0.0,0.0,0.0,0.0,0.0,0.0,0.0,0.0,0.0,0.0,0.0,0.0,0.0,0.0,0.0,0.0,0.0,0.0,0.0,0.0,-0.9502,0.0,0.0,0.0,0.0,0.0,0.0,0.0,0.0,0.0,0.0,0.0,0.0,0.0,0.0,0.0,0.0,0.0,0.0,0.0,0.0,0.0,0.0,0.0,0.0,0.0,0.0,0.0,0.0,0.0,0.0,0.0,0.0,0.0,0.0,0.0,0.0,0.0,0.0,0.0,0.0,0.0,0.0,0.0,0.0,0.0,0.0,0.0,0.0,0.0,0.0,0.0,0.0,0.0,0.0,0.0,0.0,0.0,0.0,0.0,0.0,0.0,0.0,0.0,0.0,0.0,0.0,0.0,0.0,0.0,0.0,0.0,0.0,0.0,0.0,0.0,0.0,0.0,0.0,0.0,0.0,0.0,0.0,0.0,0.0,0.0,0.0,0.0,0.0,0.0,0.0,0.0,0.0,0.0,0.0,0.0,0.0,0.0,0.0,0.0,0.0,0.0,0.0,0.0,0.0,0.0,0.0,0.0,0.0,0.0,0.0,-1.0447,-1.0983,-1.1494,-1.1297,-1.0382,0.0,0.0,0.0,0.0,0.0,0.0,0.0,0.0,0.0,0.0,0.0,0.0,0.0,0.0,0.0,0.0,0.0,0.0,0.0,0.0,0.0,0.0,0.0,0.0,0.0,0.0,0.0,0.0,0.0,0.0,0.0,0.0,0.0,0.0,0.0,0.0,0.0,0.0,0.0,0.0,0.0,0.0,0.0,0.0,0.0,0.0,0.0,0.0,0.0,0.0,0.0,0.0,0.0,0.0,0.0,0.0,0.0,0.0,0.0,0.0,0.0,0.0,0.0,0.0,0.0,0.0,0.0,0.0,0.0,0.0,0.0,0.0,0.0,0.0,0.0,0.0,0.0,0.0,0.0,0.0,0.0,0.0,0.0,0.0,0.0,0.0,0.0,0.0,0.0,0.0,0.0,0.0,0.0,0.0,0.0,0.0,0.0,0.0,0.0,0.0,0.0,0.0,0.0,0.0,0.0,0.0,0.0,0.0,0.0,0.0,0.0,0.0,-1.2373,-1.2004,-1.1186,0.0,0.0,0.0,0.0,0.0,0.0,0.0,0.0,0.0,0.0,0.0,0.0,0.0,0.0,0.0,0.0,0.0,0.0,0.0,0.0,0.0,0.0,0.0,0.0,0.0,0.0,0.0,0.0,0.0,0.0,0.0,0.0,0.0,0.0,0.0,0.0,0.0,0.0,0.0,0.0,0.0,0.0,0.0,0.0,0.0,0.0,0.0,0.0,0.0,0.0,0.0,0.0,0.0,0.0,0.0,0.0,0.0,0.0,0.0,0.0,0.0,0.0,0.0,0.0,0.0,0.0,0.0,0.0,0.0,0.0,0.0,0.0,0.0,0.0,0.0,0.0,0.0,0.0,0.0,0.0,0.0,0.0,0.0,0.0,0.0,0.0,0.0,0.0,0.0,0.0,0.0,0.0,0.0,0.0,0.0,0.0,0.0,0.0,0.0,0.0,0.0,0.0,0.0,0.0,0.0,0.0,0.0,0.0,0.0,0.0,-1.3323,-1.42,-1.4341,0.0,-1.1826,0.0,0.0,0.0,0.0,0.0,0.0,0.0,0.0,0.0,0.0,0.0,0.0,0.0,0.0,0.0,0.0,0.0,0.0,0.0,0.0,0.0,0.0,0.0,0.0,0.0,0.0,0.0,0.0,0.0,0.0,0.0,0.0,0.0,0.0,0.0,0.0,0.0,0.0,0.0,0.0,0.0,0.0,0.0,0.0,0.0,0.0,0.0,0.0,0.0,0.0,0.0,0.0,0.0,0.0,0.0,0.0,0.0,0.0,0.0,0.0,0.0,0.0,0.0,0.0,0.0,0.0,0.0,0.0,0.0,0.0,0.0,0.0,0.0,0.0,0.0,0.0,0.0,0.0,0.0,0.0,0.0,0.0,0.0,0.0,0.0,0.0,0.0,0.0,0.0,0.0,0.0,0.0,0.0,0.0,0.0,0.0,0.0,0.0,0.0,0.0,0.0,0.0,0.0,0.0,0.0,0.0,0.0,0.0,0.0,0.0,-1.4348,-1.5379,-1.4564,-1.3503,0.0,0.0,0.0,0.0,0.0,0.0,0.0,0.0,0.0,0.0,0.0,0.0,0.0,0.0,0.0,0.0,0.0,0.0,0.0,0.0,0.0,0.0,0.0,0.0,0.0,0.0,0.0,0.0,0.0,0.0,0.0,0.0,0.0,0.0,0.0,0.0,0.0,0.0,0.0,0.0,0.0,0.0,0.0,0.0,0.0,0.0,0.0,0.0,0.0,0.0,0.0,0.0,0.0,0.0,0.0,0.0,0.0,0.0,0.0,0.0,0.0,0.0,0.0,0.0,0.0,0.0,0.0,0.0,0.0,0.0,0.0,0.0,0.0,0.0,0.0,0.0,0.0,0.0,0.0,0.0,0.0,0.0,0.0,0.0,0.0,0.0,0.0,0.0,0.0,0.0,0.0,0.0,0.0,0.0,0.0,0.0,0.0,0.0,0.0,0.0,0.0,0.0,0.0,0.0,0.0,0.0,0.0,0.0,0.0,0.0,-1.4477,-1.5296,-1.6072,-1.5239,-1.392,-1.2132,0.0,0.0,0.0,0.0,0.0,0.0,0.0,0.0,0.0,0.0,0.0,0.0,0.0,0.0,0.0,0.0,0.0,0.0,0.0,0.0,0.0,0.0,0.0,0.0,0.0,0.0,0.0,0.0,0.0,0.0,0.0,0.0,0.0,0.0,0.0,0.0,0.0,0.0,0.0,0.0,0.0,0.0,0.0,0.0,0.0,0.0,0.0,0.0,0.0,0.0,0.0,0.0,0.0,0.0,0.0,0.0,0.0,0.0,0.0,0.0,0.0,0.0,0.0,0.0,0.0,0.0,0.0,0.0,0.0,0.0,0.0,0.0,0.0,0.0,0.0,0.0,0.0,0.0,0.0,0.0,0.0,0.0,0.0,0.0,0.0,0.0,0.0,0.0,0.0,0.0,0.0,0.0,0.0,0.0,0.0,0.0,0.0,0.0,0.0,0.0,0.0,0.0,0.0,0.0,0.0,0.0,0.0,0.0,-1.5679,-1.6013,-1.6271,-1.6645,-1.7059,-1.541,0.0,0.0,0.0,0.0,0.0,0.0,0.0,0.0,0.0,0.0,0.0,0.0,0.0,0.0,0.0,0.0,0.0,0.0,0.0,0.0,0.0,0.0,0.0,0.0,0.0,0.0,0.0,0.0,0.0,0.0,0.0,0.0,0.0,0.0,0.0,0.0,0.0,0.0,0.0,0.0,0.0,0.0,0.0,0.0,0.0,0.0,0.0,0.0,0.0,0.0,0.0,0.0,0.0,0.0,0.0,0.0,0.0,0.0,0.0,0.0,0.0,0.0,0.0,0.0,0.0,0.0,0.0,0.0,0.0,0.0,0.0,0.0,0.0,0.0,0.0,0.0,0.0,0.0,0.0,0.0,0.0,0.0,0.0,0.0,0.0,0.0,0.0,0.0,0.0,0.0,0.0,0.0,0.0,0.0,0.0,0.0,0.0,0.0,0.0,0.0,0.0,0.0,0.0,0.0,0.0,0.0,0.0,0.0,0.0,-1.5082,-1.6722,-1.8049,-1.9007,-1.7317,-1.5465,0.0,0.0,0.0,0.0,0.0,0.0,0.0,0.0,0.0,0.0,0.0,0.0,0.0,0.0,0.0,0.0,0.0,0.0,0.0,0.0,0.0,0.0,0.0,0.0,0.0,0.0,0.0,0.0,0.0,0.0,0.0,0.0,0.0,0.0,0.0,0.0,0.0,0.0,0.0,0.0,0.0,0.0,0.0,0.0,0.0,0.0,0.0,0.0,0.0,0.0,0.0,0.0,0.0,0.0,0.0,0.0,0.0,0.0,0.0,0.0,0.0,0.0,0.0,0.0,0.0,0.0,0.0,0.0,0.0,0.0,0.0,0.0,0.0,0.0,0.0,0.0,0.0,0.0,0.0,0.0,0.0,0.0,0.0,0.0,0.0,0.0,0.0,0.0,0.0,0.0,0.0,0.0,0.0,0.0,0.0,0.0,0.0,0.0,0.0,0.0,0.0,0.0,0.0,0.0,0.0,0.0,0.0,0.0,0.0,-1.6008,0.0,-1.9322,0.0,-1.7537,-1.5455,0.0,0.0,0.0,0.0,0.0,0.0,0.0,0.0,0.0,0.0,0.0,0.0,0.0,0.0,0.0,0.0,0.0,0.0,0.0,0.0,0.0,0.0,0.0,0.0,0.0,0.0,0.0,0.0,0.0,0.0,0.0,0.0,0.0,0.0,0.0,0.0,0.0,0.0,0.0,0.0,0.0,0.0,0.0,0.0,0.0,0.0,0.0,0.0,0.0,0.0,0.0,0.0,0.0,0.0,0.0,0.0,0.0,0.0,0.0,0.0,0.0,0.0,0.0,0.0,0.0,0.0,0.0,0.0,0.0,0.0,0.0,0.0,0.0,0.0,0.0,0.0,0.0,0.0,0.0,0.0,0.0,0.0,0.0,0.0,0.0,0.0,0.0,0.0,0.0,0.0,0.0,0.0,0.0,0.0,0.0,0.0,0.0,0.0,0.0,0.0,0.0,0.0,0.0,0.0,0.0,0.0,0.0,0.0,-1.5367,-1.8709,-1.9925,-1.9953,-1.8601,-1.7826,-1.5417,0.0,0.0,0.0,0.0,0.0,0.0,0.0,0.0,0.0,0.0,0.0,0.0,0.0,0.0,0.0,0.0,0.0,0.0,0.0,0.0,0.0,0.0,0.0,0.0,0.0,0.0,0.0,0.0,0.0,0.0,0.0,0.0,0.0,0.0,0.0,0.0,0.0,0.0,0.0,0.0,0.0,0.0,0.0,0.0,0.0,0.0,0.0,0.0,0.0,0.0,0.0,0.0,0.0,0.0,0.0,0.0,0.0,0.0,0.0,0.0,0.0,0.0,0.0,0.0,0.0,0.0,0.0,0.0,0.0,0.0,0.0,0.0,0.0,0.0,0.0,0.0,0.0,0.0,0.0,0.0,0.0,0.0,0.0,0.0,0.0,0.0,0.0,0.0,0.0,0.0,0.0,0.0,0.0,0.0,0.0,0.0,0.0,0.0,0.0,0.0,0.0,0.0,0.0,0.0,0.0,0.0,0.0,0.0,0.0,-1.8487,-1.9827,-2.0558,-2.0574,-1.8725,-1.6752,0.0,0.0,0.0,0.0,0.0,0.0,0.0,0.0,0.0,0.0,0.0,0.0,0.0,0.0,0.0,0.0,0.0,0.0,0.0,0.0,0.0,0.0,0.0,0.0,0.0,0.0,0.0,0.0,0.0,0.0,0.0,0.0,0.0,0.0,0.0,0.0,0.0,0.0,0.0,0.0,0.0,0.0,0.0,0.0,0.0,0.0,0.0,0.0,0.0,0.0,0.0,0.0,0.0,0.0,0.0,0.0,0.0,0.0,0.0,0.0,0.0,0.0,0.0,0.0,0.0,0.0,0.0,0.0,0.0,0.0,0.0,0.0,0.0,0.0,0.0,0.0,0.0,0.0,0.0,0.0,0.0,0.0,0.0,0.0,0.0,0.0,0.0,0.0,0.0,0.0,0.0,0.0,0.0,0.0,0.0,0.0,0.0,0.0,0.0,0.0,0.0,0.0,0.0,0.0,0.0,0.0,0.0,0.0,0.0,-1.9958,-2.0965,-2.1531,-2.1611,-1.9427,-1.7679,-1.6455,0.0,0.0,0.0,0.0,0.0,0.0,0.0,0.0,0.0,0.0,0.0,0.0,0.0,0.0,0.0,0.0,0.0,0.0,0.0,0.0,0.0,0.0,0.0,0.0,0.0,0.0,0.0,0.0,0.0,0.0,0.0,0.0,0.0,0.0,0.0,0.0,0.0,0.0,0.0,0.0,0.0,0.0,0.0,0.0,0.0,0.0,0.0,0.0,0.0,0.0,0.0,0.0,0.0,0.0,0.0,0.0,0.0,0.0,0.0,0.0,0.0,0.0,0.0,0.0,0.0,0.0,0.0,0.0,0.0,0.0,0.0,0.0,0.0,0.0,0.0,0.0,0.0,0.0,0.0,0.0,0.0,0.0,0.0,0.0,0.0,0.0,0.0,0.0,0.0,0.0,0.0,0.0,0.0,0.0,0.0,0.0,0.0,0.0,0.0,0.0,0.0,0.0,0.0,0.0,0.0,0.0,0.0,0.0,-2.2544,-2.2959,-2.2697,-2.1704,-2.0001,-1.8308,0.0,0.0,0.0,0.0,0.0,0.0,0.0,0.0,0.0,0.0,0.0,0.0,0.0,0.0,0.0,0.0,0.0,0.0,0.0,0.0,0.0,0.0,0.0,0.0,0.0,0.0,0.0,0.0,0.0,0.0,0.0,0.0,0.0,0.0,0.0,0.0,0.0,0.0,0.0,0.0,0.0,0.0,0.0,0.0,0.0,0.0,0.0,0.0,0.0,0.0,0.0,0.0,0.0,0.0,0.0,0.0,0.0,0.0,0.0,0.0,0.0,0.0,0.0,0.0,0.0,0.0,0.0,0.0,0.0,0.0,0.0,0.0,0.0,0.0,0.0,0.0,0.0,0.0,0.0,0.0,0.0,0.0,0.0,0.0,0.0,0.0,0.0,0.0,0.0,0.0,0.0,0.0,0.0,0.0,0.0,0.0,0.0,0.0,0.0,0.0,0.0,0.0,0.0,0.0,0.0,0.0,0.0,0.0,0.0,-2.1708,-2.2567,-2.2974,-2.2741,-2.1054,-1.9524,0.0,0.0,0.0,0.0,0.0,0.0,0.0,0.0,0.0,0.0,0.0,0.0,0.0,0.0,0.0,0.0,0.0,0.0,0.0,0.0,0.0,0.0,0.0,0.0,0.0,0.0,0.0,0.0,0.0,0.0,0.0,0.0,0.0,0.0,0.0,0.0,0.0,0.0,0.0,0.0,0.0,0.0,0.0,0.0,0.0,0.0,0.0,0.0,0.0,0.0,0.0,0.0,0.0,0.0,0.0,0.0,0.0,0.0,0.0,0.0,0.0,0.0,0.0,0.0,0.0,0.0,0.0,0.0,0.0,0.0,0.0,0.0,0.0,0.0,0.0,0.0,0.0,0.0,0.0,0.0,0.0,0.0,0.0,0.0,0.0,0.0,0.0,0.0,0.0,0.0,0.0,0.0,0.0,0.0,0.0,0.0,0.0,0.0,0.0,0.0,0.0,0.0,0.0,0.0,0.0,0.0,0.0,0.0,-2.2381,-2.2025,-2.2328,-2.2405,-2.2238,-2.0917,-1.9991,0.0,0.0,0.0,0.0,0.0,0.0,0.0,0.0,0.0,0.0,0.0,0.0,0.0,0.0,0.0,0.0,0.0,0.0,0.0,0.0,0.0,0.0,0.0,0.0,0.0,0.0,0.0,0.0,0.0,0.0,0.0,0.0,0.0,0.0,0.0,0.0,0.0,0.0,0.0,0.0,0.0,0.0,0.0,0.0,0.0,0.0,0.0,0.0,0.0,0.0,0.0,0.0,0.0,0.0,0.0,0.0,0.0,0.0,0.0,0.0,0.0,0.0,0.0,0.0,0.0,0.0,0.0,0.0,0.0,0.0,0.0,0.0,0.0,0.0,0.0,0.0,0.0,0.0,0.0,0.0,0.0,0.0,0.0,0.0,0.0,0.0,0.0,0.0,0.0,0.0,0.0,0.0,0.0,0.0,0.0,0.0,0.0,0.0,0.0,0.0,0.0,0.0,0.0,0.0,0.0,0.0,0.0,0.0,-2.2614,-2.2731,-2.2016,-2.1361,-2.0838,-2.0232,-2.0049,0.0,0.0,0.0,0.0,0.0,0.0,0.0,0.0,0.0,0.0,0.0,0.0,0.0,0.0,0.0,0.0,0.0,0.0,0.0,0.0,0.0,0.0,0.0,0.0,0.0,0.0,0.0,0.0,0.0,0.0,0.0,0.0,0.0,0.0,0.0,0.0,0.0,0.0,0.0,0.0,0.0,0.0,0.0,0.0,0.0,0.0,0.0,0.0,0.0,0.0,0.0,0.0,0.0,0.0,0.0,0.0,0.0,0.0,0.0,0.0,0.0,0.0,0.0,0.0,0.0,0.0,0.0,0.0,0.0,0.0,0.0,0.0,0.0,0.0,0.0,0.0,0.0,0.0,0.0,0.0,0.0,0.0,0.0,0.0,0.0,0.0,0.0,0.0,0.0,0.0,0.0,0.0,0.0,0.0,0.0,0.0,0.0,0.0,0.0,0.0,0.0,0.0,0.0,0.0,0.0,0.0,0.0,0.0,-2.2273,-2.1053,-2.0724,-2.0472,-2.0353,-2.057,-2.0215,0.0,0.0,0.0,0.0,0.0,0.0,0.0,0.0,0.0,0.0,0.0,0.0,0.0,0.0,0.0,0.0,0.0,0.0,0.0,0.0,0.0,0.0,0.0,0.0,0.0,0.0,0.0,0.0,0.0,0.0,0.0,0.0,0.0,0.0,0.0,0.0,0.0,0.0,0.0,0.0,0.0,0.0,0.0,0.0,0.0,0.0,0.0,0.0,-2.0877,0.0,0.0,0.0,0.0,0.0,0.0,0.0,0.0,0.0,0.0,0.0,0.0,0.0,0.0,0.0,0.0,0.0,0.0,0.0,0.0,0.0,0.0,0.0,0.0,0.0,0.0,0.0,0.0,0.0,0.0,0.0,0.0,0.0,0.0,0.0,0.0,0.0,0.0,0.0,0.0,0.0,0.0,0.0,0.0,0.0,0.0,0.0,0.0,0.0,0.0,0.0,0.0,0.0,0.0,0.0,0.0,0.0,0.0,0.0,-2.1804,-2.0539,-2.0019,-1.9666,-1.9487,-2.0048,-1.9883,0.0,0.0,0.0,0.0,0.0,0.0,0.0,0.0,0.0,0.0,0.0,0.0,0.0,0.0,0.0,0.0,0.0,0.0,0.0,0.0,0.0,0.0,0.0,0.0,0.0,0.0,0.0,0.0,0.0,0.0,0.0,0.0,0.0,0.0,0.0,0.0,0.0,0.0,0.0,0.0,0.0,0.0,0.0,0.0,0.0,0.0,0.0,0.0,0.0,0.0,0.0,0.0,0.0,0.0,0.0,0.0,0.0,0.0,0.0,0.0,0.0,0.0,0.0,0.0,0.0,0.0,0.0,0.0,0.0,0.0,0.0,0.0,0.0,0.0,0.0,0.0,0.0,0.0,0.0,0.0,0.0,0.0,0.0,0.0,0.0,0.0,0.0,0.0,0.0,0.0,0.0,0.0,0.0,0.0,0.0,0.0,0.0,0.0,0.0,0.0,0.0,0.0,0.0,0.0,0.0,0.0,0.0,-2.1428,-2.1391,-2.0503,-1.9639,-1.9007,-1.8613,-1.9133,-1.9148,-1.8593,0.0,0.0,0.0,0.0,0.0,0.0,0.0,0.0,0.0,0.0,0.0,0.0,0.0,0.0,0.0,0.0,0.0,0.0,0.0,0.0,0.0,0.0,0.0,0.0,0.0,0.0,0.0,0.0,0.0,0.0,0.0,0.0,0.0,0.0,0.0,0.0,0.0,0.0,-2.0696,-2.3364,0.0,0.0,0.0,0.0,0.0,0.0,0.0,0.0,-2.4098,0.0,0.0,0.0,0.0,0.0,0.0,0.0,0.0,0.0,0.0,0.0,0.0,0.0,0.0,0.0,0.0,0.0,0.0,0.0,0.0,0.0,0.0,0.0,0.0,0.0,0.0,0.0,0.0,0.0,0.0,0.0,0.0,0.0,0.0,0.0,0.0,0.0,0.0,0.0,0.0,0.0,0.0,0.0,0.0,0.0,0.0,0.0,0.0,0.0,0.0,0.0,0.0,0.0,0.0,0.0,0.0,-2.1601,-2.1712,-2.1363,-2.0494,-1.9327,-1.8688,-1.8594,-1.8296,-1.7818,-1.7205,0.0,0.0,0.0,0.0,0.0,0.0,0.0,0.0,0.0,0.0,0.0,0.0,0.0,0.0,0.0,0.0,0.0,0.0,0.0,0.0,0.0,0.0,0.0,0.0,0.0,0.0,0.0,0.0,0.0,0.0,0.0,0.0,0.0,0.0,0.0,0.0,0.0,0.0,0.0,-2.4135,-2.5219,0.0,0.0,0.0,0.0,0.0,0.0,0.0,0.0,-2.4153,0.0,0.0,0.0,0.0,0.0,0.0,0.0,0.0,0.0,0.0,0.0,0.0,0.0,0.0,0.0,0.0,0.0,0.0,0.0,0.0,0.0,0.0,0.0,0.0,0.0,0.0,0.0,0.0,0.0,0.0,0.0,0.0,0.0,0.0,0.0,0.0,0.0,0.0,0.0,0.0,0.0,0.0,0.0,0.0,0.0,0.0,0.0,0.0,0.0,0.0,0.0,0.0,0.0,0.0,0.0,-2.1015,-2.1522,-2.1059,-1.9578,-1.9049,-1.8678,-1.8399,-1.7963,-1.7446,0.0,0.0,0.0,0.0,0.0,0.0,0.0,0.0,0.0,0.0,0.0,0.0,0.0,0.0,0.0,0.0,0.0,0.0,0.0,0.0,0.0,0.0,0.0,0.0,0.0,0.0,0.0,0.0,0.0,0.0,0.0,0.0,0.0,0.0,0.0,0.0,0.0,0.0,0.0,0.0,-2.4836,-2.5218,-2.5027,0.0,0.0,0.0,0.0,0.0,0.0,-2.3859,-2.4199,0.0,0.0,0.0,0.0,0.0,0.0,0.0,0.0,0.0,0.0,0.0,0.0,0.0,0.0,0.0,0.0,0.0,0.0,0.0,0.0,0.0,0.0,0.0,0.0,0.0,0.0,0.0,0.0,0.0,0.0,0.0,0.0,0.0,0.0,0.0,0.0,0.0,0.0,0.0,0.0,0.0,0.0,0.0,0.0,0.0,0.0,0.0,0.0,0.0,0.0,0.0,0.0,0.0,0.0,0.0,-2.0264,-2.1125,-2.0635,-1.872,-1.8752,-1.8595,-1.8099,-1.7802,-1.7342,0.0,0.0,0.0,0.0,0.0,0.0,0.0,0.0,0.0,0.0,0.0,0.0,0.0,0.0,0.0,0.0,0.0,0.0,0.0,0.0,0.0,0.0,0.0,0.0,0.0,0.0,0.0,0.0,0.0,0.0,0.0,0.0,0.0,0.0,0.0,0.0,0.0,0.0,0.0,0.0,0.0,-2.5239,-2.5091,-2.5203,0.0,0.0,0.0,0.0,-2.4247,-2.4199,0.0,0.0,0.0,0.0,0.0,0.0,0.0,0.0,0.0,0.0,0.0,0.0,0.0,0.0,0.0,0.0,0.0,0.0,0.0,0.0,0.0,0.0,0.0,0.0,0.0,0.0,0.0,0.0,0.0,0.0,0.0,0.0,0.0,0.0,0.0,0.0,0.0,0.0,0.0,0.0,0.0,0.0,0.0,0.0,0.0,0.0,0.0,0.0,0.0,0.0,0.0,0.0,0.0,0.0,0.0,0.0,-2.0237,-2.0748,-2.0225,-1.8682,-1.8402,-1.8111,-1.7768,-1.7499,-1.7027,0.0,0.0,0.0,0.0,0.0,0.0,0.0,0.0,0.0,0.0,0.0,0.0,0.0,0.0,0.0,0.0,0.0,0.0,0.0,0.0,0.0,0.0,0.0,0.0,0.0,0.0,0.0,0.0,0.0,0.0,0.0,0.0,0.0,0.0,0.0,0.0,0.0,0.0,0.0,0.0,0.0,-2.5303,-2.5274,-2.5293,-2.516,0.0,0.0,-2.4654,-2.4256,-2.4199,0.0,0.0,0.0,0.0,0.0,0.0,0.0,0.0,0.0,0.0,0.0,0.0,0.0,0.0,0.0,0.0,0.0,0.0,0.0,0.0,0.0,0.0,0.0,0.0,0.0,0.0,0.0,0.0,0.0,0.0,0.0,0.0,0.0,0.0,0.0,0.0,0.0,0.0,0.0,0.0,0.0,0.0,0.0,0.0,0.0,0.0,0.0,0.0,0.0,0.0,0.0,0.0,0.0,0.0,0.0,-2.0668,-1.9808,-2.0519,-1.9989,-1.8244,-1.8187,-1.7971,-1.7476,-1.7175,-1.6672,0.0,0.0,0.0,0.0,0.0,0.0,0.0,0.0,0.0,0.0,0.0,0.0,0.0,0.0,0.0,0.0,0.0,0.0,0.0,0.0,0.0,0.0,0.0,0.0,0.0,0.0,0.0,0.0,0.0,0.0,0.0,0.0,0.0,0.0,0.0,0.0,0.0,0.0,0.0,0.0,0.0,0.0,-2.5142,-2.5234,0.0,0.0,0.0,-2.4654,-2.4256,0.0,0.0,0.0,0.0,0.0,0.0,0.0,0.0,0.0,0.0,0.0,0.0,0.0,0.0,0.0,0.0,0.0,0.0,0.0,0.0,0.0,0.0,0.0,0.0,0.0,0.0,0.0,0.0,0.0,0.0,0.0,0.0,0.0,0.0,0.0,0.0,0.0,0.0,0.0,0.0,0.0,0.0,0.0,0.0,0.0,0.0,0.0,0.0,0.0,0.0,0.0,0.0,0.0,0.0,0.0,0.0,0.0,-1.9447,-2.0241,-1.9706,-1.7763,-1.7858,-1.7614,-1.6832,-1.656,0.0,0.0,0.0,0.0,0.0,0.0,0.0,0.0,0.0,0.0,0.0,0.0,0.0,0.0,0.0,0.0,0.0,0.0,0.0,0.0,0.0,0.0,0.0,0.0,0.0,0.0,0.0,-1.4916,0.0,0.0,0.0,0.0,0.0,0.0,0.0,0.0,0.0,0.0,0.0,0.0,0.0,0.0,-2.5235,-2.5034,-2.5131,-2.5051,0.0,0.0,-2.4591,-2.4256,-2.4199,-2.4199,0.0,0.0,0.0,0.0,0.0,0.0,0.0,0.0,0.0,0.0,0.0,0.0,0.0,0.0,0.0,0.0,0.0,0.0,0.0,0.0,0.0,0.0,0.0,0.0,0.0,0.0,0.0,0.0,0.0,0.0,0.0,0.0,0.0,0.0,0.0,0.0,0.0,0.0,0.0,0.0,0.0,0.0,0.0,0.0,0.0,0.0,0.0,0.0,0.0,0.0,0.0,0.0,0.0,0.0,0.0,-1.9421,-1.9831,-1.9176,-1.741,-1.7368,-1.6743,-1.5499,-1.5425,-1.5234,0.0,0.0,0.0,0.0,0.0,0.0,0.0,0.0,0.0,0.0,0.0,0.0,0.0,0.0,0.0,0.0,0.0,0.0,0.0,0.0,0.0,0.0,0.0,0.0,0.0,0.0,0.0,0.0,0.0,0.0,0.0,0.0,0.0,0.0,0.0,0.0,0.0,0.0,0.0,0.0,0.0,-2.5234,-2.5034,-2.5013,-2.4898,0.0,0.0,-2.4444,-2.4219,-2.4199,-2.4199,-2.4199,0.0,0.0,0.0,0.0,0.0,0.0,0.0,0.0,0.0,0.0,0.0,0.0,0.0,0.0,0.0,0.0,0.0,0.0,0.0,0.0,0.0,0.0,0.0,0.0,0.0,0.0,0.0,0.0,0.0,0.0,0.0,0.0,0.0,0.0,0.0,0.0,0.0,0.0,0.0,0.0,0.0,0.0,0.0,0.0,0.0,0.0,0.0,0.0,0.0,0.0,0.0,0.0,0.0,-1.9641,-1.8446,-1.9252,-1.8909,-1.7354,-1.7101,-1.6438,-1.5312,-1.5296,-1.4898,0.0,0.0,0.0,0.0,0.0,0.0,0.0,0.0,0.0,0.0,0.0,0.0,0.0,0.0,0.0,0.0,0.0,0.0,0.0,0.0,0.0,0.0,0.0,0.0,0.0,0.0,0.0,0.0,-1.8258,-1.9416,-2.0509,0.0,0.0,0.0,0.0,0.0,0.0,0.0,0.0,0.0,0.0,-2.4992,-2.4991,-2.4933,0.0,0.0,-2.4512,-2.4436,-2.4219,-2.4199,-2.4199,-2.4199,-2.5019,0.0,0.0,0.0,0.0,0.0,0.0,0.0,0.0,0.0,0.0,0.0,0.0,0.0,0.0,0.0,0.0,0.0,0.0,0.0,0.0,0.0,0.0,0.0,0.0,0.0,0.0,0.0,0.0,0.0,0.0,0.0,0.0,0.0,0.0,0.0,0.0,0.0,0.0,0.0,0.0,0.0,0.0,0.0,0.0,0.0,0.0,0.0,0.0,0.0,0.0,0.0,0.0,-1.9759,-1.8002,-1.8983,-1.8693,-1.7051,-1.6773,-1.6069,-1.4911,-1.4889,-1.4463,0.0,0.0,0.0,0.0,0.0,0.0,0.0,0.0,0.0,0.0,0.0,0.0,0.0,0.0,0.0,0.0,0.0,0.0,0.0,0.0,0.0,0.0,0.0,0.0,0.0,0.0,0.0,0.0,-1.9196,-2.0265,-2.1827,0.0,0.0,0.0,0.0,0.0,0.0,0.0,0.0,0.0,0.0,-2.4809,-2.4849,-2.4766,-2.4639,-2.4426,-2.441,-2.4357,-2.4218,-2.4193,-2.4233,-2.4372,0.0,0.0,0.0,0.0,0.0,0.0,0.0,0.0,0.0,0.0,0.0,0.0,0.0,0.0,0.0,0.0,0.0,0.0,0.0,0.0,0.0,0.0,0.0,0.0,0.0,0.0,0.0,0.0,0.0,0.0,-1.6192,0.0,0.0,0.0,0.0,0.0,0.0,0.0,0.0,0.0,0.0,0.0,0.0,0.0,0.0,0.0,0.0,0.0,0.0,0.0,0.0,0.0,0.0,-2.0244,-1.8434,-1.9093,-1.8446,-1.6394,-1.6313,-1.5507,-1.3907,-1.4003,-1.3839,-1.3191,0.0,0.0,0.0,0.0,0.0,0.0,0.0,0.0,0.0,0.0,0.0,0.0,0.0,0.0,0.0,0.0,0.0,0.0,0.0,0.0,0.0,0.0,0.0,0.0,0.0,0.0,-2.0341,-2.0418,-2.0885,0.0,0.0,0.0,0.0,0.0,0.0,0.0,0.0,0.0,0.0,-2.4823,-2.4742,-2.4554,-2.4502,-2.4426,-2.4228,-2.4218,-2.4218,-2.4217,-2.4206,-2.4343,0.0,0.0,0.0,0.0,0.0,0.0,0.0,0.0,0.0,0.0,0.0,0.0,0.0,0.0,0.0,0.0,0.0,0.0,0.0,0.0,0.0,0.0,0.0,0.0,0.0,0.0,0.0,-1.6036,-1.5782,0.0,0.0,0.0,0.0,0.0,0.0,0.0,0.0,0.0,0.0,0.0,-1.9556,-2.0025,0.0,0.0,0.0,0.0,0.0,0.0,0.0,0.0,0.0,0.0,0.0,0.0,-1.9718,-1.8473,-1.8627,-1.7815,-1.5894,-1.5608,-1.4724,-1.3138,-1.315,-1.2906,-1.2427,0.0,0.0,0.0,0.0,0.0,0.0,0.0,0.0,0.0,0.0,0.0,0.0,0.0,0.0,0.0,0.0,0.0,0.0,0.0,0.0,0.0,0.0,0.0,0.0,0.0,-2.1679,0.0,0.0,0.0,0.0,0.0,0.0,0.0,0.0,0.0,0.0,0.0,-2.6128,-2.6015,-2.5681,-2.5235,-2.4595,-2.4402,-2.4266,0.0,0.0,0.0,0.0,0.0,0.0,0.0,0.0,0.0,0.0,0.0,0.0,0.0,0.0,-2.5997,-2.5587,-2.5595,-2.5532,-2.5074,0.0,0.0,0.0,0.0,0.0,0.0,0.0,0.0,0.0,0.0,0.0,0.0,0.0,0.0,-1.6597,0.0,-1.6297,0.0,0.0,0.0,0.0,0.0,0.0,0.0,0.0,-1.9415,-1.9549,-1.9572,-2.0221,-2.0548,0.0,-2.0548,-2.083,0.0,0.0,0.0,0.0,0.0,0.0,0.0,0.0,-1.9677,-1.8477,-1.8239,-1.7273,-1.5514,-1.5061,-1.4199,-1.2747,-1.2341,-1.2191,-1.2142,-1.2646,-1.2998,0.0,0.0,0.0,0.0,0.0,0.0,0.0,0.0,0.0,0.0,0.0,0.0,0.0,0.0,0.0,0.0,0.0,0.0,0.0,0.0,0.0,0.0,0.0,-2.2779,0.0,0.0,0.0,0.0,0.0,0.0,0.0,0.0,0.0,-2.5201,-2.6233,-2.7118,-2.7387,-2.6478,-2.556,-2.4912,0.0,0.0,0.0,0.0,0.0,0.0,0.0,-2.493,-2.527,-2.6045,-2.6478,-2.5987,-2.7196,-2.7875,-2.6868,0.0,0.0,-2.5995,-2.6016,-2.6013,-2.5649,-2.588,-2.5616,-2.3886,-2.4627,-2.5286,0.0,0.0,0.0,0.0,0.0,0.0,0.0,0.0,-1.7363,-1.6748,0.0,-1.6176,0.0,0.0,0.0,0.0,0.0,-1.8025,0.0,0.0,-1.8615,-1.8848,-1.8916,-1.9391,-1.9639,-1.9639,-1.9639,-1.969,-1.9806,-2.1389,0.0,0.0,0.0,0.0,0.0,0.0,-2.0091,-1.8385,-1.7865,-1.681,-1.5117,-1.469,-1.3891,-1.2685,-1.1743,-1.1574,-1.231,-1.2397,-1.2674,-1.316,-1.3198,0.0,0.0,0.0,0.0,0.0,0.0,0.0,0.0,0.0,0.0,0.0,0.0,0.0,0.0,0.0,0.0,0.0,0.0,0.0,0.0,-2.3409,0.0,0.0,0.0,0.0,0.0,0.0,0.0,0.0,0.0,0.0,-2.5059,-2.658,-2.8098,-2.8867,0.0,0.0,0.0,0.0,-2.4065,-2.3744,-2.3719,-2.3638,-2.3315,-2.4699,-2.5627,-2.5074,0.0,0.0,-2.6702,-2.6702,-2.6748,-2.6688,-2.6659,-2.6657,-2.6632,-2.6847,-2.7039,-2.6743,-2.6835,-2.6009,-2.3286,-2.4045,-2.5167,-1.7188,0.0,0.0,0.0,0.0,-1.703,-1.7225,-1.7909,-1.7112,-1.6817,-1.6911,-1.6581,0.0,0.0,0.0,0.0,0.0,0.0,-1.7344,-1.7022,-1.7919,-1.8334,-1.8334,-1.8489,-1.8581,-1.8574,-1.8581,-1.8968,-1.9713,-2.0214,-2.0318,-2.0051,0.0,0.0,0.0,0.0,-1.8411,-1.7449,-1.6941,-1.5893,-1.4273,-1.413,-1.3377,-1.1952,-1.1641,-1.1606,-1.182,-1.2203,-1.2661,-1.3167,-1.321,0.0,0.0,0.0,0.0,0.0,0.0,0.0,0.0,0.0,0.0,0.0,0.0,0.0,0.0,0.0,0.0,0.0,0.0,0.0,-2.2538,-2.2729,-2.2849,0.0,0.0,0.0,0.0,0.0,0.0,0.0,0.0,0.0,-2.6176,-2.7085,-2.8104,0.0,0.0,-2.6478,-2.5223,-2.429,-2.3614,-2.3374,-2.3827,0.0,0.0,-2.4357,-2.4786,-2.4654,-2.58,-2.671,-2.6713,-2.6713,-2.6699,-2.668,-2.6115,-2.5679,-2.5879,-2.601,-2.6232,-2.651,-2.5965,-2.4698,-2.2929,-2.3662,-2.4419,-1.6498,-1.6648,-1.6917,-1.7174,-1.735,-1.7005,-1.725,-1.784,-1.7156,-1.6936,-1.7024,-1.6672,-1.6528,-1.6528,-1.6528,0.0,0.0,0.0,-1.6824,-1.6512,-1.7397,-1.778,-1.7787,-1.8033,-1.8099,-1.8099,-1.8099,-1.8423,-1.9062,-1.9063,-1.8846,-1.8426,0.0,0.0,-1.8978,-1.8391,-1.7762,-1.7043,-1.6407,-1.5449,-1.4265,-1.3419,-1.2581,-1.1671,-1.1245,-1.1096,-1.13,-1.1649,-1.2063,-1.2626,-1.2656,-1.2714,0.0,0.0,0.0,0.0,0.0,0.0,0.0,0.0,0.0,0.0,0.0,-1.7677,-1.8369,0.0,0.0,0.0,-2.1591,-2.2367,-2.2536,-2.2392,0.0,0.0,0.0,0.0,0.0,0.0,0.0,-2.5772,-2.6797,-2.7242,-2.6693,-2.7372,-2.7906,-2.7675,-2.7506,-2.6749,-2.494,0.0,-2.3195,-2.3028,-2.3425,-2.3614,-2.3321,-2.3681,-2.4114,-2.4448,-2.5204,-2.6053,-2.6616,-2.5792,-2.5218,-2.5576,-2.5164,-2.4761,-2.511,-2.4932,-2.4963,-2.5643,-2.5128,-2.4028,-2.2585,-2.3323,-2.3833,-1.5976,-1.5588,-1.6151,-1.6704,-1.7215,-1.7183,-1.719,-1.7233,-1.7183,-1.6866,-1.6386,-1.6337,-1.6331,-1.6337,-1.6355,0.0,-1.6399,-1.6423,-1.6423,-1.6411,-1.6986,-1.7229,-1.7271,-1.7747,-1.798,-1.794,-1.7933,-1.7947,-1.7988,-1.7963,-1.7429,-1.642,-1.7343,-1.7866,-1.798,-1.794,-1.76,-1.6943,-1.5973,-1.5164,-1.4443,-1.2685,-1.1698,-1.1645,-1.068,-1.0421,-1.0876,-1.0909,-1.1172,-1.1777,-1.1811,-1.1993,-1.2431,0.0,0.0,0.0,0.0,0.0,0.0,0.0,0.0,0.0,0.0,0.0,0.0,0.0,0.0,0.0,-2.1225,0.0,-2.2316,-2.2302,0.0,0.0,0.0,-2.4285,-2.4382,-2.5693,-2.6327,-2.5632,0.0,0.0,-2.6808,-2.7522,-2.7397,-2.5575,-2.6594,-2.6778,-2.4706,-2.3521,-2.2812,-2.2686,-2.2669,-2.2581,-2.247,-2.2909,-2.3494,-2.4074,-2.4323,-2.4771,-2.5737,-2.4124,-2.2992,-2.3921,-2.3894,-2.3787,-2.4262,-2.3764,-2.3473,-2.4188,-2.4311,-2.387,-2.2647,-2.2992,-2.3358,-1.5023,-1.492,-1.5056,-1.5447,-1.5927,-1.5505,-1.5568,-1.5927,-1.551,-1.5279,-1.5158,-1.5119,-1.5119,-1.5113,-1.512,-1.5302,-1.5586,-1.5742,-1.5746,-1.5654,-1.6336,-1.6674,-1.6674,-1.6831,-1.6879,-1.6824,-1.641,-1.6436,-1.6883,-1.6866,-1.6274,-1.5207,-1.5387,-1.5948,-1.6747,-1.6385,-1.591,-1.5327,-1.432,-1.3373,-1.2511,-1.2044,-1.1552,-1.1092,-1.0821,-1.0758,-1.0898,-1.0909,-1.1172,-1.1783,-1.1811,-1.1842,-1.1957,-1.2324,0.0,0.0,0.0,0.0,0.0,0.0,0.0,0.0,0.0,-1.8598,-1.8966,0.0,-2.0348,0.0,-2.1626,-2.2316,-2.2316,-2.2307,0.0,0.0,-2.3645,-2.431,-2.5179,-2.5637,-2.5906,-2.6014,-2.6368,-2.6869,-2.7503,-2.7324,-2.6135,-2.3554,-2.6305,-2.7624,-2.4918,-2.3319,-2.2436,-2.2429,-2.2407,-2.2369,-2.231,-2.2446,-2.2649,-2.2792,-2.2828,-2.2945,-2.3295,-2.2266,-2.1424,-2.1811,-2.224,-2.2614,-2.3048,-2.2524,-2.2287,-2.268,-2.2835,-2.2721,-2.238,-2.251,-2.2581,-1.4283,-1.4283,-1.4014,-1.4079,-1.4339,-1.4589,-1.4855,-1.5131,-1.4815,-1.4703,-1.4703,-1.4703,-1.4703,-1.4715,-1.4736,-1.481,-1.5034,-1.5136,-1.5118,-1.5044,-1.5505,-1.5826,-1.6095,-1.5832,-1.5832,-1.6095,-1.5505,-1.5379,-1.567,-1.5688,-1.5353,-1.4692,-1.4187,-1.4339,-1.5223,-1.5219,-1.5058,-1.4748,-1.3716,-1.2855,-1.2083,-1.1652,-1.1305,-1.0926,-1.0745,-1.0636,-1.0636,-1.0782,-1.0966,-1.1142,-1.13,-1.1522,-1.1757,-1.198,-1.2302,0.0,0.0,0.0,0.0,0.0,0.0,0.0,0.0,0.0,0.0,0.0,-2.0475,-2.0975,-2.1424,-2.171,-2.1716,-2.2086,-2.2388,-2.2571,-2.3216,-2.3888,-2.4551,-2.4915,-2.5187,-2.5407,-2.5446,-2.5604,-2.6022,-2.5893,-2.4941,-2.2626,-2.4417,-2.5429,-2.3863,-2.2786,-2.2317,-2.2313,-2.2319,-2.2319,-2.2319,-2.2143,-2.1982,-2.1991,-2.2164,-2.2233,-2.1944,-2.1415,-2.0957,-2.0909,-2.127,-2.1649,-2.1867,-2.1622,-2.1542,-2.2049,-2.1963,-2.1789,-2.1895,-2.2136,-2.2323,-1.3695,-1.3647,-1.3002,-1.2774,-1.2813,-1.381,-1.4318,-1.4474,-1.4479,-1.4479,-1.4479,-1.4485,-1.4474,-1.4479,-1.4485,-1.4479,-1.4479,-1.456,-1.4612,-1.4606,-1.4658,-1.4966,-1.5454,-1.4966,-1.4966,-1.546,-1.4869,-1.4628,-1.4691,-1.4549,-1.4498,-1.4411,-1.3432,-1.3119,-1.3564,-1.4086,-1.4337,-1.4369,-1.3585,-1.2882,-1.2223,-1.1418,-1.0957,-1.0911,-1.05,-1.0322,-1.0332,-1.0688,-1.0742,-1.0405,-1.0767,-1.1193,-1.1644,-1.1725,-1.2086,0.0,-1.2954,0.0,0.0,0.0,0.0,0.0,0.0,0.0,0.0,-1.9946,-2.0416,-2.0862,-2.0854,-2.0868,-2.0983,-2.1587,-2.1884,-2.1732,-2.2582,-2.3244,-2.3387,-2.3995,-2.4371,-2.427,-2.4301,-2.4174,-2.3754,-2.3964,-2.3689,-2.2546,-2.23,-2.247,-2.2332,-2.235,-2.2265,-2.2189,-2.2123,-2.202,-2.202,-2.1773,-2.1529,-2.1587,-2.1805,-2.1916,-2.14,-2.1007,-2.0758,-2.0542,-2.0677,-2.0861,-2.0894,-2.091,-2.1191,-2.1907,-2.1456,-2.1007,-2.1152,-2.1636,-2.2102,-1.3055,-1.3007,-1.2281,-1.1976,-1.1967,-1.1648,-1.2213,-1.3248,-1.3253,-1.3248,-1.3248,-1.3248,-1.3243,-1.3243,-1.3243,-1.3253,-1.3296,-1.3732,-1.3962,-1.4009,-1.4468,-1.4749,-1.488,-1.4744,-1.4744,-1.4835,-1.4226,-1.423,-1.4694,-1.369,-1.3229,-1.3233,-1.3022,-1.2665,-1.2195,0.0,0.0,0.0,-1.295,-1.2497,-1.1231,-1.1024,-1.078,-1.0448,-1.0361,0.0,-1.0337,-1.0693,-1.0874,-1.0806,-1.1243,0.0,0.0,0.0,0.0,0.0,0.0,0.0,0.0,0.0,0.0,0.0,-1.7321,-1.7695,-1.8238,-1.9203,-1.9972,-2.0374,-2.0141,-2.0252,-2.0902,-2.0488,-2.0671,-2.1867,-2.2183,-2.2516,-2.3141,-2.3687,-2.3776,-2.3121,-2.3373,-2.3346,-2.2728,-2.2683,-2.2618,-2.2291,-2.1671,-2.1581,-2.2177,-2.222,-2.2028,-2.1424,-2.1323,-2.126,-2.1229,-2.1189,-2.1118,-2.115,-2.1151,-2.1119,-2.0806,-2.0305,-1.9994,-1.9914,-1.9909,-2.0077,-2.039,-2.0416,-2.0581,-2.1159,-2.0794,-2.0335,-2.0099,-2.0679,-2.1231,-1.2147,0.0,-1.1471,-1.1312,0.0,-1.0965,-1.1179,-1.1841,-1.1846,-1.1846,-1.1895,-1.1841,-1.185,-1.185,-1.1846,-1.1895,-1.1841,-1.2209,-1.2492,-1.2836,-1.312,-1.3601,-1.4236,-1.3983,-1.3978,-1.4195,-1.3273,-1.3167,-1.3774,-1.3208,-1.2548,-1.1895,-1.184,-1.1688,-1.1312,-1.1308,-1.1379,-1.1491,-1.1606,-1.1297,-1.0606,-1.0312,-1.0116,-0.9933,0.0,0.0,0.0,0.0,0.0,0.0,0.0,0.0,0.0,0.0,0.0,-1.2589,-1.2821,-1.3361,-1.4216,-1.4562,-1.5233,-1.6378,-1.696,-1.7625,-1.8321,-1.8943,-1.95,-1.9957,-1.9816,-1.9863,-2.028,-1.9965,-2.012,-2.1093,-2.1388,-2.1688,-2.205,-2.2312,-2.2289,-2.1964,-2.2071,-2.2059,-2.1716,-2.1652,-2.167,-2.1617,-2.0911,-2.0519,-2.0956,-2.1405,-2.1462,-2.1071,-2.0999,-2.0999,-2.0967,-2.0756,-2.0657,-2.0616,-2.0499,-2.0306,-2.0187,-1.9901,-1.9712,-1.9728,-1.9707,-1.979,-1.9937,-2.0007,-2.007,-2.0261,-2.0166,-1.9958,-1.9752,-2.0058,-2.0371,-1.1316,-1.0817,-1.0665,-1.061,-1.0614,-1.0521,-1.047,-1.0462,0.0,0.0,0.0,-1.0825,-1.0825,-1.0813,-1.0779,-1.0825,-1.0813,-1.0813,-1.1116,-1.1611,-1.162,-1.2199,-1.3231,-1.2793,-1.2788,-1.3183,-1.215,-1.1927,-1.2513,-1.2525,-1.182,-1.057,-1.0448,-1.0519,-1.061,-1.0521,-1.0466,-1.045,-1.0335,-1.0221,-1.009,-0.9707,-0.9497,-0.9379,-0.9391,-0.9419,-0.9427,-1.0428,-1.086,-1.0564,-1.1574,-1.2147,-1.2142,-1.2245,-1.25,-1.2847,-1.2886,-1.3157,-1.3774,-1.4283,-1.4875,-1.5537,-1.6446,-1.745,-1.8535,-1.8688,-1.8968,-1.9522,-1.9647,-1.9706,-1.9697,-1.9728,-1.9825,-2.0162,-2.0524,-2.078,-2.078,-2.0829,-2.0917,-2.0902,-2.0991,-2.0991,-2.1062,-2.103,-2.0909,-2.0724,-2.0186,-1.9708,-1.9779,-2.0356,-2.0789,-2.0829,-2.0731,-2.0731,-2.0698,-2.0465,-2.0227,-2.0185,-1.9945,-1.9733,-1.9697,-1.9697,-1.9697,-1.9711,-1.9697,-1.9726,-1.9733,-1.9726,-1.9697,-1.9697,-1.9697,-1.9697,-1.9697,-1.9733,-1.9769,-1.0868,-1.0767,-1.0163,-0.9913,-0.9909,-0.9316,-0.9057,-0.9159,-1.0265,-1.0813,-1.0817,-1.0781,-1.0828,-1.0821,-1.0781,-1.0824,-1.0817,-1.0813,-1.0868,0.0,-1.0965,-1.1011,-1.1208,-1.112,-1.112,-1.1212,-1.1015,-1.0973,-1.1095,-1.112,-1.039,-0.9257,-0.9076,-0.9373,-0.9847,-0.9361,-0.9057,-0.9106,-1.0167,-1.0393,-0.9789,-0.9715,-0.9399,-0.8877,-0.9017,-0.9155,-0.9164,-0.9934,-1.0312,-1.0267,-1.1283,-1.1836,-1.1885,-1.241,-1.2817,-1.2876,-1.2886,-1.3152,-1.3732,-1.3873,-1.4411,-1.5499,-1.5752,-1.6311,-1.7429,-1.7954,-1.8465,-1.8975,-1.9419,-1.9723,-1.9727,-1.9688,-1.9709,-1.9775,-1.9846,-1.9882,-1.9917,-2.0235,-2.0416,-2.0416,-2.0756,-2.0965,-2.0907,-2.0928,-2.0665,-2.0061,-1.9831,-1.9713,-1.9735,-1.9795,-2.0042,-2.0254,-2.0097,-1.9917,-1.9987,-1.9854,-1.9818,-1.9775,-1.9762,-1.9697,-1.9697,-1.9697,-1.9697,-1.9697,-1.9697,-1.9697,-1.9697,-1.9697,-1.9697,-1.9697,-1.9697,-1.9697,-1.9697,-1.9697,-1.9697,-0.9957,-0.9459,-0.9159,-0.8757,-0.8307,-0.7759,-0.7538,-0.7661,-0.8274,-0.8957,-0.9666,-0.9699,-0.9695,-0.9721,-0.9692,-0.9688,-0.9714,-0.9714,-0.9913,-1.0214,-1.0265,-1.0466,-1.0762,-1.0813,-1.0598,-1.0218,-0.9813,-1.0054,-1.0665,-1.0061,-0.9001,-0.7705,-0.7588,-0.7942,-0.8551,-0.7981,-0.7616,-0.7667,-0.903,-0.957,-0.9232,-0.9221,-0.8996,-0.8544,-0.8676,-0.8703,-0.875,-0.9412,-0.9847,-0.998,-1.0827,-1.1408,-1.1765,-1.1783,-1.2107,-1.2827,-1.2501,-1.2589,-1.3281,-1.3584,-1.4185,-1.5056,-1.5404,-1.5796,-1.6311,-1.7162,-1.786,-1.8426,-1.9204,-1.9445,-1.895,-1.9338,-1.9583,-1.9303,-1.9522,-1.9697,-1.9726,-1.9846,-1.9972,-2.0,-2.0174,-2.0296,-2.028,-2.0303,-2.0203,-1.9741,-1.9697,-1.9705,-1.9697,-1.969,-1.9754,-1.9945,-1.9811,-1.9726,-1.9697,-1.9697,-1.9697,-1.9697,-1.9697,-1.9697,-1.9697,-1.9705,-1.9705,-1.9697,-1.9697,-1.9697,-1.9697,-1.9697,-1.9697,-1.9697,-1.9697,-1.9697,-1.9697,-1.9697,-1.9697,-0.8637,-0.7999,-0.7996,-0.7615,-0.6944,-0.6616,-0.6483,-0.6583,-0.6591,-0.7235,-0.8212,-0.8321,-0.8315,-0.8318,-0.8318,-0.8321,-0.8318,-0.8318,-0.857,-0.9023,-0.9072,-0.9377,-0.9828,-0.9872,-0.9552,-0.902,-0.8456,-0.8771,-0.9621,-0.88,-0.7583,-0.63,-0.6418,-0.691,-0.7453,-0.6915,-0.6591,-0.6642,-0.772,-0.8283,-0.8217,-0.822,-0.8091,-0.7838,-0.787,-0.7901,-0.7948,-0.8605,-0.9098,-0.9325,-1.0108,-1.0813,-1.1316,-1.1015,-1.1275,-1.2255,-1.1882,-1.1873,-1.2608,-1.3228,-1.3873,-1.4474,-1.5045,-1.5448,-1.567,-1.6544,-1.7347,-1.7915,-1.8516,-1.8644,-1.8279,-1.8525,-1.8896,-1.8727,-1.9088,-1.9325,-1.9486,-1.9537,-1.9603,-1.9639,-1.9603,-1.9581,-1.9656,-1.973,-1.9723,-1.9744,-1.9714,-1.9692,-1.9545,-1.9449,-1.9324,-1.9391,-1.9522,-1.969,-1.9697,-1.9697,-1.9654,-1.9559,-1.9126,-1.9002,-1.9141,-1.945,-1.9502,-1.9398,-1.9288,-1.9251,-1.9325,-1.9288,-1.9251,-1.9214,-1.9207,-1.9354,-1.9641,-1.9494,-1.9538,-0.6891,-0.6773,-0.6817,-0.6712,-0.6615,-0.6536,-0.6504,-0.6532,-0.6591,-0.6642,-0.6804,-0.6804,-0.6804,-0.6804,-0.6858,-0.6858,-0.6858,-0.6804,-0.691,-0.6958,-0.6904,-0.6956,-0.7114,-0.7063,-0.6956,-0.6953,-0.6848,-0.6912,-0.7095,-0.6879,-0.6074,-0.4992,-0.5957,-0.6588,-0.6696,-0.6586,-0.6591,-0.6591,-0.675,-0.6696,-0.6491,-0.6424,-0.6319,-0.6054,-0.6293,-0.6393,-0.6501,-0.7341,-0.785,-0.7981,-0.9183,-0.9913,-1.0012,-1.0462,-1.0872,-1.1023,-1.0965,-1.117,-1.1873,-1.255,-1.3238,-1.3868,-1.4416,-1.5011,-1.5499,-1.6182,-1.6788,-1.7168,-1.7031,-1.7248,-1.7885,-1.7427,-1.74,-1.8111,-1.8295,-1.8412,-1.8885,-1.8983,-1.9162,-1.9639,-1.9251,-1.9137,-1.9499,-1.9582,-1.9624,-1.9365,-1.9581,-1.9485,-1.9035,-1.8543,-1.8311,-1.8464,-1.9006,-1.9559,-1.9617,-1.969,-1.9487,-1.9029,-1.7763,-1.7591,-1.8198,-1.9023,-1.9458,-1.8676,-1.8271,-1.8257,-1.8373,-1.8256,-1.8334,-1.8451,-1.8511,-1.8599,-1.9303,-1.9212,-1.902,-0.6488,-0.6398,-0.6372,-0.6079,-0.571,-0.5339,-0.524,-0.5336,-0.5338,-0.5338,-0.5393,-0.5336,-0.5828,-0.6591,-0.6591,-0.6591,-0.6591,-0.6591,-0.6591,-0.6591,-0.6591,-0.6591,-0.6591,-0.6591,-0.6369,-0.598,-0.5928,-0.5764,-0.5389,-0.5391,-0.5039,-0.4622,-0.5093,-0.5553,-0.5873,-0.555,-0.5338,-0.5336,-0.5336,-0.5297,-0.5284,-0.6021,-0.6285,-0.6092,-0.6141,-0.6189,-0.6247,-0.6595,-0.6868,-0.7058,-0.7593,-0.8277,-0.911,-0.9065,-0.9526,-1.0657,-1.0813,-1.1116,-1.1769,-1.2075,-1.2535,-1.3243,-1.3826,-1.4277,-1.4549,-1.5107,-1.5688,-1.6182,-1.639,-1.6699,-1.7085,-1.7126,-1.7269,-1.7605,-1.79,-1.8178,-1.8373,-1.8412,-1.8535,-1.8688,-1.8574,-1.8493,-1.8691,-1.875,-1.8481,-1.8211,-1.8729,-1.924,-1.8567,-1.7701,-1.7484,-1.7981,-1.8489,-1.8688,-1.8831,-1.9355,-1.9233,-1.8475,-1.7368,-1.6921,-1.7822,-1.8349,-1.8565,-1.8126,-1.763,-1.755,-1.8104,-1.8085,-1.8099,-1.8059,-1.8099,-1.833,-1.892,-1.8828,-1.8725,-0.5937,-0.574,-0.5712,-0.5421,-0.493,-0.446,-0.4365,-0.4508,-0.4462,-0.4462,-0.4465,-0.4463,-0.5067,-0.5941,-0.6043,-0.6046,-0.6048,-0.6041,-0.6041,-0.5989,-0.6046,-0.5987,-0.6043,-0.6041,-0.5769,-0.5275,-0.5224,-0.4956,-0.4525,-0.447,-0.4458,-0.4498,-0.446,-0.4745,-0.512,-0.4689,-0.4472,-0.4527,-0.447,-0.447,-0.4632,-0.5506,-0.592,-0.5777,-0.5761,-0.5706,-0.5761,-0.5913,-0.6087,-0.6303,-0.6477,-0.7063,-0.8003,-0.7652,-0.8178,-0.9732,-1.0305,-1.0817,-1.1512,-1.1715,-1.2133,-1.2822,-1.3467,-1.3774,-1.3915,-1.4329,-1.488,-1.5326,-1.575,-1.6058,-1.6565,-1.6973,-1.7225,-1.7118,-1.747,-1.7706,-1.786,-1.7907,-1.794,-1.8059,-1.802,-1.778,-1.7706,-1.7632,-1.7377,-1.697,-1.784,-1.8714,-1.7988,-1.7163,-1.683,-1.7545,-1.7659,-1.782,-1.8087,-1.8651,-1.8756,-1.8083,-1.703,-1.6764,-1.7531,-1.7612,-1.7673,-1.7279,-1.6774,-1.6722,-1.7247,-1.7538,-1.7666,-1.7666,-1.7666,-1.786,-1.8231,-1.817,-1.8095,-0.4567,-0.4613,-0.4568,-0.462,-0.4506,-0.4505,-0.4506,-0.4465,-0.4463,-0.447,-0.4475,-0.441,-0.4524,-0.4641,-0.4741,-0.4625,-0.4629,-0.4682,-0.4737,-0.4737,-0.468,-0.4627,-0.4572,-0.4572,-0.4577,-0.4584,-0.447,-0.4479,-0.4492,-0.4437,-0.4492,-0.4379,-0.4322,-0.4438,-0.4489,-0.4374,-0.4438,-0.4322,-0.4322,-0.4379,-0.4435,-0.4537,-0.4574,-0.4661,-0.461,-0.4657,-0.4661,-0.5202,-0.5531,-0.5542,-0.6147,-0.6586,-0.6694,-0.6696,-0.7122,-0.7928,-0.9134,-1.0111,-1.0813,-1.1362,-1.203,-1.2759,-1.3314,-1.3774,-1.3737,-1.4195,-1.4566,-1.4755,-1.4795,-1.5248,-1.6194,-1.6466,-1.6565,-1.6552,-1.6552,-1.6886,-1.7277,-1.7347,-1.7585,-1.782,-1.7585,-1.7188,-1.671,-1.6565,-1.665,-1.6517,-1.6675,-1.6896,-1.7225,-1.6836,-1.6635,-1.6621,-1.6759,-1.6951,-1.782,-1.805,-1.7875,-1.743,-1.6894,-1.6517,-1.6534,-1.6552,-1.6637,-1.6674,-1.6585,-1.6566,-1.6563,-1.6637,-1.6723,-1.6765,-1.6844,-1.7041,-1.7525,-1.7034,-1.7021,-0.4468,-0.4484,-0.4482,-0.4485,-0.4484,-0.4484,-0.4482,-0.4482,-0.4485,-0.4484,-0.4317,-0.3463,-0.3574,-0.4487,-0.4485,-0.448,-0.4473,-0.4482,-0.4484,-0.4484,-0.4482,-0.4484,-0.4484,-0.4484,-0.4484,-0.4374,-0.352,-0.358,-0.4325,-0.3528,-0.2513,-0.1952,-0.2569,-0.302,-0.302,-0.302,-0.302,-0.302,-0.302,-0.302,-0.302,-0.3015,-0.3463,-0.4428,-0.4468,-0.4462,-0.4462,-0.4734,-0.484,-0.4842,-0.5115,-0.5439,-0.5871,-0.6367,-0.6912,-0.761,-0.8193,-0.8977,-0.9961,-1.0368,-1.1023,-1.208,-1.237,-1.2764,-1.3137,-1.343,-1.37,-1.4009,-1.4138,-1.4509,-1.5197,-1.5694,-1.5908,-1.5964,-1.6281,-1.6552,-1.6716,-1.6795,-1.6873,-1.6993,-1.6873,-1.6716,-1.6601,-1.6528,-1.6533,-1.6494,-1.6505,-1.6621,-1.6714,-1.6598,-1.65,-1.649,-1.6528,-1.6644,-1.6909,-1.7028,-1.6951,-1.686,-1.6591,-1.653,-1.6509,-1.6522,-1.6558,-1.6601,-1.6528,-1.6528,-1.6522,-1.6522,-1.6528,-1.6515,-1.6515,-1.6479,-1.6837,-1.6529,-1.6616,-0.4198,-0.3812,-0.3756,-0.3756,-0.3756,-0.3756,-0.3756,-0.3756,-0.3756,-0.4041,-0.4101,-0.2906,-0.3076,-0.433,-0.4504,-0.4499,-0.4433,-0.3981,-0.3756,-0.3756,-0.3756,-0.3756,-0.3869,-0.427,-0.4499,-0.4157,-0.2405,-0.2068,-0.28,-0.2011,-0.1005,-0.0167,-0.106,-0.1507,-0.1507,-0.1507,-0.1507,-0.1508,-0.1508,-0.1507,-0.1563,-0.1955,-0.2964,-0.4157,-0.4027,-0.4016,-0.4467,-0.4468,-0.4465,-0.4462,-0.4462,-0.4734,-0.5162,-0.5871,-0.6475,-0.6961,-0.745,-0.819,-0.928,-0.9647,-1.0265,-1.1316,-1.1516,-1.1774,-1.2456,-1.2564,-1.2837,-1.3314,-1.3515,-1.3747,-1.4113,-1.4646,-1.518,-1.5543,-1.5958,-1.6287,-1.6472,-1.6528,-1.6528,-1.6565,-1.6565,-1.6528,-1.6528,-1.6528,-1.6522,-1.6528,-1.6528,-1.6528,-1.6528,-1.6528,-1.6528,-1.6528,-1.6528,-1.6528,-1.6644,-1.6716,-1.6716,-1.6588,-1.6582,-1.6522,-1.6528,-1.6528,-1.6528,-1.6528,-1.6515,-1.6522,-1.6522,-1.6522,-1.649,-1.6459,-1.6283,-1.6207,-1.6281,-1.6176,-1.5942,-0.3645,-0.2518,-0.2234,-0.2177,-0.2178,-0.2178,-0.2177,-0.2178,-0.2176,-0.2856,-0.3598,-0.2685,-0.2741,-0.4051,-0.4286,-0.4511,-0.4279,-0.291,-0.2178,-0.2178,-0.2176,-0.2176,-0.2288,-0.3418,-0.399,-0.3882,-0.1401,-0.0,-0.0,-0.0,-0.0,-0.0,-0.0,-0.0,-0.0,-0.0,-0.0,-0.0,-0.0,-0.0,-0.0,-0.1343,-0.2634,-0.3882,-0.2967,-0.3014,-0.4309,-0.4423,-0.4475,-0.4463,-0.4462,-0.4462,-0.4625,-0.5167,-0.5544,-0.5812,-0.6845,-0.7862,-0.8577,-0.9225,-0.9854,-1.0559,-1.0762,-1.1116,-1.1674,-1.1823,-1.2133,-1.2701,-1.2866,-1.292,-1.306,-1.3557,-1.4267,-1.5315,-1.5543,-1.582,-1.6293,-1.6485,-1.6528,-1.6528,-1.6528,-1.6528,-1.6528,-1.6528,-1.6528,-1.6528,-1.6528,-1.6528,-1.6528,-1.6528,-1.6528,-1.6528,-1.6528,-1.6528,-1.6528,-1.6528,-1.6528,-1.6528,-1.6522,-1.6528,-1.6528,-1.6528,-1.6528,-1.6515,-1.6302,-1.6289,-1.6208,-1.6189,-1.6107,-1.6045,-1.5935,-1.5806,-1.5777,-1.5566,-1.4728,-0.4224,-0.3486,-0.1511,-0.0671,-0.0671,-0.0672,-0.0672,-0.0,-0.0,-0.0,-0.1233,-0.0896,-0.0952,-0.0,-0.3436,-0.4467,-0.4297,-0.1962,-0.0,-0.0,-0.0,-0.0,-0.0,-0.0,-0.1401,-0.1289,-0.0504,-0.0,-0.0,-0.0,-0.0,-0.0,-0.0,-0.0,-0.0,-0.0,-0.0,-0.0,-0.0,-0.0,-0.0,-0.0,-0.0,-0.1345,-0.185,-0.2465,-0.291,-0.3923,-0.4428,-0.4473,-0.4473,-0.447,-0.4519,-0.4679,-0.5003,-0.5487,-0.5867,-0.6519,-0.7222,-0.7916,-0.8652,-0.9315,-0.9788,-1.0415,-1.1015,-1.1111,-1.1425,-1.2035,-1.2138,-1.2295,-1.2818,-1.3065,-1.3557,-1.4267,-1.4732,-1.5192,-1.5782,-1.6201,-1.6485,-1.6528,-1.6528,-1.6528,-1.6528,-1.6528,-1.6528,-1.6528,-1.6528,-1.6528,-1.6528,-1.6528,-1.6528,-1.6528,-1.6528,-1.6405,-1.6337,-1.6312,-1.6368,-1.6312,-1.6281,-1.6485,-1.6528,-1.6479,-1.6479,-1.6303,-1.6103,-1.5994,-1.5913,-1.5793,-1.568,-1.5486,-1.5293,-1.5263,-1.5309,-1.4845,-1.4079,-0.2831,-0.2581,-0.0785,-0.0,-0.0,-0.0,-0.0,-0.0,-0.0,-0.0,-0.0,-0.0,-0.0,-0.0,-0.2023,-0.2758,-0.2588,-0.0,-0.0,-0.0,-0.0,-0.0,-0.0,-0.0,-0.0,-0.0,-0.0,-0.0,-0.0,-0.0,-0.0,-0.0,-0.0,-0.0,-0.0,-0.0,-0.0,-0.0,-0.0,-0.0,-0.0,-0.0,-0.0,-0.0,-0.0897,-0.1345,-0.1513,-0.2859,-0.3645,-0.3748,-0.4143,-0.4479,-0.4468,-0.4525,-0.4686,-0.5056,-0.5378,-0.5762,-0.6204,-0.6907,-0.7608,-0.8277,-0.8761,-0.9447,-1.0159,-1.0411,-1.0716,-1.1262,-1.1421,-1.1679,-1.2241,-1.2447,-1.2788,-1.3415,-1.4009,-1.4601,-1.5186,-1.5605,-1.5932,-1.6082,-1.6368,-1.6455,-1.6504,-1.6528,-1.6528,-1.6528,-1.6528,-1.6528,-1.6528,-1.6528,-1.6436,-1.625,-1.6101,-1.6044,-1.6067,-1.6098,-1.616,-1.6119,-1.6027,-1.6324,-1.6528,-1.6466,-1.6454,-1.5938,-1.5622,-1.5611,-1.5511,-1.526,-1.513,-1.489,-1.4714,-1.4815,-1.4822,-1.438,-1.3784,-0.0,-0.0,-0.0,-0.0,-0.0,-0.0,-0.0,-0.0,-0.0,-0.0,-0.0,-0.0,-0.0,-0.0,0.0112,-0.0112,0.0112,-0.0,-0.0,-0.0,-0.0,-0.0,-0.0,-0.0,-0.0,-0.0,-0.0,-0.0,-0.0,-0.0,-0.0,-0.0,-0.0,-0.0,-0.0,-0.0,-0.0,-0.0,-0.0,-0.0,-0.0,-0.0,-0.0,-0.0,-0.0,-0.0,-0.0,-0.1458,-0.2074,-0.2288,-0.3412,-0.4147,-0.4366,-0.442,-0.4531,-0.4627,-0.5109,-0.5324,-0.5599,-0.6147,-0.6802,-0.7388,-0.7658,-0.8196,-0.9343,-0.9544,-0.9906,-1.0606,-1.0767,-1.096,-1.1408,-1.1661,-1.2075,-1.2754,-1.35,-1.4097,-1.4566,-1.4749,-1.5113,-1.5546,-1.6078,-1.6522,-1.6504,-1.6492,-1.6461,-1.6262,-1.6269,-1.625,-1.6157,-1.602,-1.6014,-1.5826,-1.5555,-1.5534,-1.5504,-1.5584,-1.5635,-1.5439,-1.5339,-1.5498,-1.6164,-1.6299,-1.6157,-1.5638,-1.5185,-1.5189,-1.4977,-1.4676,-1.4513,-1.4381,-1.4336,-1.4419,-1.4192,-1.3777,-1.3647,-0.0,-0.0,-0.0,-0.0,-0.0,0.2298,0.3256,0.3138,0.2067,0.1061,0.0446,0.1171,0.2237,0.3136,0.2068,0.1619,0.1452,0.0558,0.0669,0.1675,0.2854,0.1847,-0.0,-0.0,-0.0,-0.0,0.1906,0.2187,-0.0,-0.0,-0.0,-0.0,0.2184,0.3197,0.3147,0.1175,0.067,0.1675,0.2804,0.2633,0.1564,0.0615,-0.0,-0.0,-0.0,-0.0,-0.0,-0.0336,-0.056,-0.067,-0.2008,-0.3013,-0.3347,-0.4024,-0.4475,-0.452,-0.4624,-0.4787,-0.4895,-0.5384,-0.5871,-0.6086,-0.6632,-0.7286,-0.8143,-0.8246,-0.8873,-0.9699,-1.0068,-1.0312,-1.0809,-1.0998,-1.1362,-1.207,-1.2996,-1.3768,-1.405,-1.4427,-1.4795,-1.5006,-1.5836,-1.6203,-1.6396,-1.6284,-1.6008,-1.5435,-1.5355,-1.5566,-1.5439,-1.5377,-1.5281,-1.5113,-1.4932,-1.4903,-1.4932,-1.5017,-1.4949,-1.4704,-1.4507,-1.426,-1.5124,-1.5935,-1.5648,-1.5259,-1.4877,-1.4739,-1.4343,-1.3942,-1.3885,-1.391,-1.3802,-1.3759,-1.3629,-1.3329,-1.3354,0.153,0.0924,0.0943,0.0558,0.0446,0.3197,0.4502,0.4327,0.3585,0.2738,0.2232,0.274,0.3645,0.4327,0.353,0.3189,0.302,0.2288,0.24,0.3132,0.4041,0.3081,-0.0,-0.0,0.0951,0.1063,0.2689,0.2858,-0.0,0.0724,0.067,0.2014,0.3645,0.4442,0.4278,0.2968,0.1898,0.2456,0.3645,0.3987,0.3132,0.2347,-0.0,-0.0,-0.0,-0.0,-0.0,-0.0,-0.0,-0.0,-0.0838,-0.1395,-0.1893,-0.3581,-0.4432,-0.4477,-0.4472,-0.447,-0.452,-0.4897,-0.5218,-0.5487,-0.5925,-0.6632,-0.745,-0.7723,-0.8246,-0.9152,-0.9364,-0.9592,-0.9841,-0.9949,-1.042,-1.129,-1.2351,-1.3092,-1.3362,-1.37,-1.4019,-1.4332,-1.4729,-1.524,-1.5573,-1.5337,-1.472,-1.4206,-1.41,-1.4438,-1.4659,-1.4635,-1.456,-1.4387,-1.4247,-1.4212,-1.4035,-1.4067,-1.4177,-1.394,-1.3871,-1.3586,-1.4049,-1.5016,-1.4348,-1.3959,-1.4118,-1.4124,-1.3664,-1.3368,-1.3483,-1.3411,-1.3229,-1.321,-1.321,-1.321,-1.321,0.3704,0.2442,0.245,0.167,0.1113,0.3299,0.4492,0.4494,0.4378,0.432,0.4263,0.4386,0.4325,0.4492,0.4262,0.4381,0.4379,0.409,0.4206,0.4319,0.4376,0.3638,0.2623,0.2457,0.2459,0.2514,0.2454,0.3242,0.3301,0.1671,0.2062,0.3583,0.4381,0.4496,0.4438,0.4265,0.3695,0.3014,0.3806,0.4432,0.4206,0.3922,0.2963,-0.0,-0.0,-0.0,-0.0,-0.0,-0.0,-0.0,-0.0,-0.0,-0.0,-0.2748,-0.3878,-0.4096,-0.4141,-0.4249,-0.4475,-0.4579,-0.4791,-0.522,-0.5326,-0.5975,-0.6956,-0.734,-0.7777,-0.8586,-0.8748,-0.8922,-0.8954,-0.8892,-0.9482,-1.0515,-1.1316,-1.1981,-1.2559,-1.2832,-1.3109,-1.3584,-1.3219,-1.3544,-1.3813,-1.3666,-1.2981,-1.3544,-1.3445,-1.3653,-1.3935,-1.4009,-1.3925,-1.3742,-1.3605,-1.351,-1.3296,-1.308,-1.3177,-1.3127,-1.3238,-1.3119,-1.3077,-1.3367,-1.2569,-1.2196,-1.2459,-1.2761,-1.2938,-1.2839,-1.306,-1.321,-1.321,-1.321,-1.321,-1.321,-1.321,0.4288,0.3995,0.3995,0.3806,0.363,0.4254,0.448,0.447,0.4468,0.447,0.447,0.4473,0.4473,0.4472,0.4472,0.447,0.447,0.4472,0.4468,0.4467,0.4468,0.4354,0.3961,0.3858,0.3923,0.392,0.3973,0.42,0.4089,0.3852,0.3738,0.432,0.4479,0.4475,0.4482,0.4482,0.442,0.4073,0.4363,0.4477,0.4473,0.448,0.4141,0.3071,0.1171,-0.0,-0.0,-0.0,-0.0,-0.0,-0.0,-0.0,-0.0,-0.0,-0.1677,-0.2514,-0.3124,-0.357,-0.4304,-0.447,-0.4519,-0.4734,-0.4842,-0.5058,-0.5814,-0.6581,-0.7128,-0.7886,-0.8427,-0.8682,-0.8807,-0.8771,-0.9188,-0.9931,-1.0618,-1.1266,-1.1931,-1.2564,-1.291,-1.3045,-1.3025,-1.3011,-1.3281,-1.3246,-1.2921,-1.2893,-1.2951,-1.3029,-1.3203,-1.3425,-1.3382,-1.3291,-1.3243,-1.32,-1.3109,-1.2886,-1.2886,-1.2923,-1.2896,-1.2625,-1.2591,-1.2089,-1.144,-1.1003,-1.0822,-1.1318,-1.224,-1.2621,-1.2873,-1.306,-1.321,-1.321,-1.321,-1.321,-1.3029,0.4494,0.448,0.4505,0.4477,0.4472,0.4472,0.4467,0.4463,0.4462,0.4462,0.4462,0.4462,0.4462,0.4462,0.4462,0.4462,0.4462,0.4462,0.4462,0.4462,0.4462,0.4462,0.4462,0.447,0.4479,0.448,0.4472,0.4473,0.4473,0.447,0.4354,0.4479,0.4467,0.4465,0.447,0.447,0.4468,0.4463,0.4468,0.4468,0.4465,0.4467,0.4475,0.3913,-0.0,-0.0,-0.0,-0.0,-0.0,-0.0,-0.0,-0.0,-0.0,-0.0,-0.0,-0.1006,-0.1394,-0.2681,-0.3865,-0.4479,-0.4472,-0.4468,-0.4463,-0.4893,-0.5326,-0.5925,-0.6578,-0.745,-0.8046,-0.8368,-0.8745,-0.8764,-0.9016,-0.9291,-0.9917,-1.0458,-1.0914,-1.1733,-1.2559,-1.2769,-1.2929,-1.2925,-1.2934,-1.2886,-1.2925,-1.2914,-1.2914,-1.2987,-1.2992,-1.3162,-1.307,-1.3022,-1.2978,-1.2929,-1.2929,-1.2886,-1.2886,-1.2887,-1.2914,-1.2468,-1.2056,-1.1308,-1.0474,-1.0409,-1.054,-1.1223,-1.2054,-1.2389,-1.2726,-1.3025,-1.321,-1.321,-1.321,-1.3148,-1.2818,0.4472,0.4462,0.4462,0.4462,0.4462,0.4463,0.4462,0.4462,0.4462,0.4462,0.4462,0.4462,0.4462,0.4462,0.4462,0.4462,0.4462,0.4462,0.4462,0.4462,0.4462,0.4462,0.4462,0.4463,0.4465,0.4462,0.4463,0.4463,0.4463,0.4462,0.4463,0.4462,0.4462,0.4462,0.4462,0.4462,0.4463,0.4462,0.4463,0.4465,0.4462,0.4462,0.4468,0.3968,-0.0,-0.0,-0.0,-0.0,-0.0,-0.0,-0.0,-0.0,-0.0,-0.0,-0.0,-0.0,-0.0,-0.1229,-0.2911,-0.3862,-0.4247,-0.442,-0.4467,-0.4734,-0.5166,-0.5544,-0.6086,-0.6961,-0.7619,-0.8228,-0.8593,-0.8742,-0.8794,-0.8906,-0.9361,-0.9666,-1.0016,-1.0914,-1.1837,-1.2515,-1.2808,-1.289,-1.2905,-1.2886,-1.2886,-1.2886,-1.2886,-1.2886,-1.2886,-1.2886,-1.2886,-1.2886,-1.2886,-1.2886,-1.2886,-1.2886,-1.2886,-1.2897,-1.2889,-1.2372,-1.1732,-1.0954,-1.04,-1.0483,-1.0759,-1.1276,-1.1641,-1.1903,-1.2318,-1.2879,-1.3008,-1.2804,-1.2875,-1.305,-1.2678,0.4462,0.4462,0.4462,0.4462,0.4462,0.4462,0.4462,0.4462,0.4462,0.4462,0.4462,0.4462,0.4462,0.4462,0.4462,0.4462,0.4462,0.4462,0.4462,0.4462,0.4462,0.4462,0.4462,0.4462,0.4462,0.4462,0.4462,0.4462,0.4462,0.4462,0.4462,0.4462,0.4462,0.4462,0.4462,0.4462,0.4462,0.4462,0.4462,0.4462,0.4462,0.4463,0.4467,0.4475,0.3576,0.2902,0.1729,-0.0,-0.0,-0.0,-0.0,-0.0,-0.0,-0.0,-0.0,-0.0,-0.0,-0.0,-0.0,-0.2399,-0.3515,-0.4245,-0.4468,-0.4462,-0.4787,-0.5167,-0.5599,-0.6253,-0.7422,-0.8369,-0.7943,-0.8434,-0.8758,-0.8804,-0.8956,-0.9208,-0.9766,-1.047,-1.122,-1.1886,-1.2415,-1.2929,-1.2925,-1.2886,-1.2886,-1.2886,-1.2886,-1.2886,-1.2886,-1.2881,-1.2876,-1.2881,-1.2886,-1.2886,-1.2886,-1.2886,-1.292,-1.2931,-1.2795,-1.2402,-1.1719,-1.0868,-1.0479,-1.0478,-1.05,-1.0776,-1.1111,-1.1457,-1.2014,-1.2627,-1.2543,-1.2333,-1.2383,-1.2449,-1.2621,0.4462,0.4462,0.4462,0.4462,0.4462,0.4462,0.4462,0.4462,0.4462,0.4462,0.4462,0.4462,0.4462,0.4462,0.4462,0.4462,0.4462,0.4462,0.4462,0.4462,0.4462,0.4462,0.4462,0.4462,0.4462,0.4462,0.4462,0.4462,0.4462,0.4462,0.4462,0.4462,0.4462,0.4462,0.4462,0.4462,0.4462,0.4462,0.4462,0.4462,0.4462,0.4462,0.4465,0.4468,0.4477,0.4081,0.3519,0.285,-0.0,-0.0,-0.0,-0.0,-0.0,-0.0,-0.0,-0.0,-0.0,-0.0,-0.0,-0.1116,-0.2232,-0.4209,-0.4482,-0.4472,-0.4579,-0.4794,-0.5167,-0.5764,-0.648,-0.7535,-0.7182,-0.813,-0.8513,-0.8381,-0.8537,-0.8959,-0.9316,-0.9917,-1.0568,-1.1321,-1.2175,-1.2719,-1.291,-1.2886,-1.2886,-1.2886,-1.2886,-1.2886,-1.2886,-1.2881,-1.2876,-1.2662,-1.2666,-1.2779,-1.2832,-1.2886,-1.2886,-1.2903,-1.2824,-1.2388,-1.1672,-1.0843,-1.0468,-1.0356,-1.0428,-1.0499,-1.0928,-1.1436,-1.1917,-1.2261,-1.2096,-1.1906,-1.1813,-1.1839,-1.2047,0.468,0.4679,0.4574,0.4462,0.4462,0.4462,0.4462,0.4462,0.4462,0.4462,0.4462,0.4462,0.4462,0.4462,0.4462,0.4462,0.4462,0.4462,0.4462,0.4462,0.4462,0.4462,0.4462,0.4462,0.4462,0.4462,0.4462,0.4462,0.4462,0.4462,0.4462,0.4462,0.4462,0.4462,0.4462,0.4462,0.4462,0.4462,0.4462,0.4462,0.4462,0.4462,0.4462,0.4462,0.4472,0.4473,0.4302,0.4144,0.3131,0.1563,-0.0,-0.0,-0.0,-0.0,-0.0,-0.0,-0.0,-0.0,-0.0,-0.0,-0.1341,-0.3482,-0.392,-0.4141,-0.4479,-0.4582,-0.4791,-0.533,-0.6041,-0.648,-0.6588,-0.7842,-0.8271,-0.8071,-0.8331,-0.8821,-0.9064,-0.9462,-1.0064,-1.0927,-1.2004,-1.2578,-1.2793,-1.2886,-1.2886,-1.2886,-1.2886,-1.2886,-1.2886,-1.2886,-1.2779,-1.2452,-1.2349,-1.2559,-1.272,-1.2886,-1.2886,-1.289,-1.279,-1.2559,-1.1704,-1.0808,-1.056,-1.0322,-1.0331,-1.0446,-1.0922,-1.1137,-1.1271,-1.14,-1.1458,-1.1388,-1.1185,-1.1308,-1.1586,0.538,0.5324,0.4791,0.4462,0.4572,0.4572,0.4519,0.4515,0.457,0.4462,0.4462,0.4462,0.4462,0.4462,0.4462,0.4462,0.4462,0.4462,0.4462,0.4462,0.4462,0.4462,0.4462,0.4462,0.4462,0.4462,0.4462,0.4462,0.4462,0.4462,0.4462,0.4462,0.4462,0.4462,0.4462,0.4462,0.4462,0.4462,0.4462,0.4462,0.4462,0.4462,0.4462,0.4462,0.4463,0.4467,0.4467,0.4475,0.3971,0.369,0.1339,-0.0,-0.0,-0.0,-0.0,-0.0,-0.0,-0.0,-0.0,-0.0,-0.0503,-0.2128,-0.2458,-0.3187,-0.3862,-0.4425,-0.4581,-0.4625,-0.5447,-0.5828,-0.5996,-0.7418,-0.8024,-0.8167,-0.8246,-0.8619,-0.8867,-0.9361,-0.9913,-1.0316,-1.1338,-1.2234,-1.2768,-1.2852,-1.2886,-1.2886,-1.2886,-1.2891,-1.2779,-1.2627,-1.2671,-1.2295,-1.1783,-1.1945,-1.2393,-1.2613,-1.2779,-1.2832,-1.2799,-1.2604,-1.1738,-1.0951,-1.0483,-1.0311,-1.0303,-1.0302,-1.0562,-1.0659,-1.0549,-1.0659,-1.0883,-1.0731,-1.0467,-1.0713,-1.1121,0.6524,0.6095,0.5821,0.5716,0.566,0.5721,0.5443,0.5111,0.5058,0.484,0.4517,0.4462,0.4462,0.4517,0.4462,0.4462,0.4462,0.4462,0.4462,0.4462,0.4462,0.4462,0.4462,0.4462,0.4462,0.4462,0.4462,0.4462,0.4462,0.4462,0.4462,0.4462,0.4462,0.4462,0.4462,0.4462,0.4462,0.4462,0.4462,0.4462,0.4462,0.4462,0.4462,0.4462,0.4462,0.4462,0.4463,0.4465,0.4473,0.4307,0.2903,-0.0,-0.0,-0.0,-0.0,-0.0,-0.0,-0.0,-0.0,-0.0,-0.0,-0.0,-0.0,-0.1618,-0.2961,-0.3916,-0.4364,-0.4527,-0.4851,-0.5011,-0.5001,-0.5773,-0.6211,-0.6756,-0.7818,-0.819,-0.8543,-0.9364,-0.9917,-1.0218,-1.0576,-1.1418,-1.2207,-1.2548,-1.2695,-1.291,-1.2861,-1.2808,-1.2426,-1.1945,-1.2039,-1.2129,-1.1579,-1.1133,-1.1729,-1.2183,-1.251,-1.2671,-1.2891,-1.2535,-1.1817,-1.1113,-1.0593,-1.0339,-1.0317,-1.0312,-1.0322,-1.0361,-1.0438,-1.04,-1.0322,-1.0322,-1.0312,-1.0377,-1.0699,0.7667,0.7128,0.675,0.6591,0.6591,0.6591,0.6256,0.5817,0.5762,0.5492,0.512,0.5022,0.4917,0.4631,0.4688,0.4746,0.4462,0.4462,0.4462,0.4462,0.4462,0.4462,0.4462,0.4462,0.4462,0.4462,0.4462,0.4462,0.4462,0.4462,0.4462,0.4462,0.4462,0.4462,0.4462,0.4462,0.4462,0.4462,0.4462,0.4462,0.4462,0.4462,0.4462,0.4462,0.4462,0.4462,0.4462,0.4462,0.4467,0.4415,0.4364,0.3126,-0.0,-0.0,-0.0,-0.0,-0.0,-0.0,-0.0,-0.0,-0.0,-0.0,-0.0,-0.0614,-0.1451,-0.0,-0.4086,-0.4312,-0.4529,-0.4579,-0.4517,-0.4606,-0.5154,-0.6095,-0.7095,-0.747,-0.8002,-0.889,-0.9462,-0.9614,-0.9972,-1.0498,-1.1276,-1.1932,-1.2396,-1.2783,-1.2832,-1.2715,-1.213,-1.1384,-1.1434,-1.1633,-1.1275,-1.0775,-1.1124,-1.1674,-1.2044,-1.2426,-1.27,-1.2536,-1.1846,-1.1141,-1.0512,-1.0378,-1.0312,-1.0327,-1.0322,-1.0322,-1.0322,-1.0322,-1.0322,-1.0322,-1.0326,-1.0314,-1.0381,0.8699,0.8533,0.7184,0.6642,0.6699,0.6591,0.6588,0.6529,0.6529,0.6477,0.627,0.6327,0.5605,0.5026,0.5136,0.5138,0.4519,0.4517,0.4572,0.4572,0.4517,0.4629,0.4627,0.457,0.457,0.4519,0.4625,0.4624,0.4513,0.4503,0.451,0.4517,0.4849,0.4629,0.457,0.4679,0.4679,0.4625,0.4572,0.4462,0.4462,0.4462,0.4462,0.4462,0.4462,0.4462,0.4462,0.4462,0.4463,0.4467,0.4472,0.4477,0.3182,0.1728,-0.0,-0.0,-0.0,-0.0,-0.0,-0.0,-0.0,-0.0,-0.0,-0.0,-0.0,-0.0,-0.0,-0.3752,-0.4027,-0.4479,-0.4473,-0.4575,-0.484,-0.5494,-0.6433,-0.7144,-0.7735,-0.8484,-0.8952,-0.9005,-0.9372,-0.9836,-1.0039,-1.0694,-1.1132,-1.149,-1.1683,-1.1521,-1.1506,-1.0986,-1.0994,-1.0994,-1.0825,-1.0669,-1.072,-1.1028,-1.1279,-1.1895,-1.2407,-1.2286,-1.1948,-1.1242,-1.096,-1.0372,-1.0358,-1.0317,-1.0322,-1.0322,-1.0322,-1.0322,-1.0322,-1.0322,-1.0322,-1.0312,-1.039,0.8808,0.8752,0.8156,0.7937,0.7943,0.794,0.7723,0.7343,0.7289,0.7023,0.6593,0.6559,0.6334,0.5957,0.5946,0.5782,0.5277,0.5664,0.5226,0.5062,0.5171,0.5228,0.5005,0.4895,0.4948,0.4734,0.4895,0.484,0.4517,0.4542,0.4988,0.5218,0.5624,0.5452,0.5281,0.5113,0.5111,0.4948,0.4734,0.4517,0.4462,0.4462,0.4462,0.4462,0.4462,0.4462,0.4462,0.4462,0.4462,0.4463,0.4467,0.4472,0.4477,0.3071,0.2231,0.1338,0.0726,-0.0,-0.0,-0.0,-0.0,-0.0,-0.0,-0.0,-0.0,-0.0,-0.0,-0.1842,-0.3413,-0.4032,-0.4477,-0.4472,-0.4688,-0.5175,-0.5884,-0.6704,-0.7408,-0.8103,-0.8699,-0.8854,-0.8906,-0.9166,-0.926,-0.9357,-0.9735,-1.0124,-1.0261,-1.0406,-1.045,-1.0486,-1.0391,-1.0241,-1.0072,-1.0068,-1.0119,-1.0265,-1.0466,-1.1188,-1.1981,-1.1773,-1.157,-1.2362,-1.1948,-1.119,-1.0288,-1.0198,-1.0162,-1.0283,-1.0322,-1.0283,-1.0283,-1.0322,-1.0322,-1.0312,-1.0513,0.9256,0.911,0.9113,0.8952,0.8804,0.8808,0.853,0.8103,0.7996,0.7613,0.6969,0.7087,0.697,0.6758,0.6838,0.6519,0.6086,0.6202,0.588,0.5825,0.5932,0.5934,0.5607,0.5496,0.5658,0.5279,0.5496,0.5607,0.5565,0.4839,0.5348,0.6157,0.6846,0.6668,0.5989,0.5817,0.5762,0.538,0.5111,0.4625,0.457,0.4462,0.4462,0.4462,0.4462,0.4462,0.4462,0.4462,0.4462,0.4462,0.4463,0.4467,0.4473,0.4363,0.3856,0.2902,0.1953,0.1006,-0.0,-0.0,-0.0,-0.0,-0.0,-0.0,-0.0,-0.0,-0.0,-0.0335,-0.2068,-0.3356,-0.3688,-0.4081,-0.4415,-0.4903,-0.5834,-0.6601,-0.7025,-0.767,-0.8265,-0.8755,-0.8804,-0.8857,-0.8906,-0.9001,-0.9127,-0.9456,-0.9482,-0.9633,-0.9636,-0.9666,-0.9681,-0.9472,-0.9263,-0.9312,-0.9417,-0.9562,-0.9758,-1.0155,-1.0804,-1.0939,-1.1106,-1.1846,-1.189,-1.0606,-0.9931,-0.9949,-0.9887,-0.9779,-1.001,-1.0244,-1.0298,-1.0371,-1.0325,-1.0361,-1.0796,1.0364,0.9817,0.9762,0.9413,0.8959,0.8808,0.8752,0.8646,0.8646,0.8321,0.7777,0.8284,0.7895,0.7173,0.7466,0.7256,0.6738,0.6748,0.6588,0.6477,0.6748,0.6642,0.648,0.6423,0.6421,0.6534,0.6588,0.6709,0.6954,0.5936,0.6117,0.7031,0.783,0.7881,0.6699,0.6586,0.6199,0.5647,0.554,0.5056,0.4732,0.457,0.4462,0.4462,0.4462,0.4462,0.4462,0.4462,0.4462,0.4462,0.4462,0.4463,0.4465,0.4472,0.4306,0.4138,0.4099,0.2746,-0.0,-0.0,-0.0,-0.0,-0.0,-0.0,-0.0,-0.0,-0.0,-0.0,-0.0,-0.0,-0.2232,-0.3576,-0.419,-0.4796,-0.567,-0.6213,-0.664,-0.7345,-0.8049,-0.8484,-0.8699,-0.8804,-0.8808,-0.8804,-0.8804,-0.8862,-0.8847,-0.886,-0.9023,-0.9099,-0.9169,-0.9117,-0.8906,-0.8959,-0.9061,-0.8959,-0.905,-0.944,-0.9776,-1.0003,-1.0029,-1.0213,-1.0027,-0.9657,-0.9701,-0.9722,-0.947,-0.9198,-0.9848,-1.0512,-1.039,-1.04,-1.0374,-1.0571,-1.1086,1.0665,1.0462,1.0466,1.0368,1.0012,0.9162,0.8808,0.8808,0.8752,0.8643,0.8533,0.8752,0.8643,0.8256,0.8137,0.8025,0.7498,0.7883,0.783,0.6807,0.7453,0.7233,0.7071,0.7074,0.713,0.6861,0.6969,0.7079,0.6768,0.6707,0.7095,0.7904,0.835,0.8503,0.8049,0.7667,0.7122,0.6791,0.614,0.538,0.5109,0.4787,0.4572,0.4572,0.4572,0.457,0.457,0.457,0.4462,0.4462,0.4462,0.4462,0.4462,0.4467,0.4467,0.447,0.4426,0.3077,-0.0,-0.0,-0.0,-0.0,-0.0,-0.0,-0.0,-0.0,-0.0,-0.0,-0.0,-0.0,-0.2121,-0.364,-0.4369,-0.4631,-0.5226,-0.5603,-0.6143,-0.7122,-0.7886,-0.8103,-0.8315,-0.8643,-0.8752,-0.8804,-0.8808,-0.8808,-0.88,-0.8797,-0.8893,-0.89,-0.891,-0.891,-0.8804,-0.8804,-0.8808,-0.8808,-0.8808,-0.9099,-0.9249,-0.9399,-0.9271,-0.9425,-0.9619,-0.9943,-0.9743,-0.9549,-0.9589,-0.9705,-1.0399,-1.0818,-1.0789,-1.0801,-1.0874,-1.1165,-1.1655,1.1375,1.1166,1.1162,1.1015,1.0665,0.9614,0.9064,0.8857,0.8808,0.8808,0.8804,0.8804,0.8752,0.8752,0.8752,0.8643,0.8153,0.848,0.859,0.7509,0.8265,0.8099,0.783,0.7777,0.7833,0.7563,0.7723,0.7833,0.7566,0.8374,0.8431,0.8318,0.853,0.8702,0.8533,0.8265,0.7883,0.7501,0.674,0.6251,0.5871,0.5548,0.5279,0.5226,0.5117,0.4895,0.4785,0.4679,0.4462,0.4462,0.4462,0.4462,0.4462,0.4462,0.4462,0.4465,0.4301,0.3409,-0.0,-0.0,-0.0,-0.0,-0.0,0.0953,0.0504,-0.0,-0.0,-0.0,-0.0,-0.0,-0.2009,-0.3528,-0.4428,-0.4634,-0.4789,-0.5167,-0.5651,-0.6686,-0.7122,-0.7391,-0.7937,-0.8315,-0.8755,-0.8752,-0.8808,-0.8808,-0.8801,-0.8808,-0.8808,-0.8808,-0.8808,-0.8808,-0.8808,-0.8808,-0.8808,-0.8808,-0.8808,-0.8808,-0.8906,-0.9061,-0.9695,-1.0003,-1.0104,-1.0259,-1.0297,-1.0281,-1.014,-1.0382,-1.0908,-1.1217,-1.1315,-1.1363,-1.1377,-1.1665,-1.2038,1.2501,1.1868,1.1814,1.1471,1.0813,1.0218,0.9566,0.8906,0.8857,0.8906,0.891,0.8966,0.8973,0.886,0.8864,0.8811,0.8699,0.8808,0.8699,0.8643,0.8699,0.859,0.859,0.859,0.8484,0.8646,0.8643,0.848,0.8695,0.8752,0.8752,0.8699,0.8699,0.8808,0.8752,0.8646,0.8318,0.7937,0.7503,0.7015,0.6635,0.6423,0.615,0.5932,0.5601,0.5273,0.5056,0.4789,0.4572,0.4462,0.4462,0.4462,0.4462,0.4462,0.4462,0.4465,0.447,0.4201,0.3646,0.162,-0.0,-0.0,-0.0,0.2075,0.1624,0.1509,0.1397,0.0895,-0.0,-0.0,-0.184,-0.3186,-0.4487,-0.4532,-0.4522,-0.4844,-0.5273,-0.5762,-0.6088,-0.6576,-0.7233,-0.7833,-0.8612,-0.8775,-0.8795,-0.8814,-0.8765,-0.8765,-0.8814,-0.8808,-0.8808,-0.8808,-0.8808,-0.8808,-0.8808,-0.8808,-0.8808,-0.8808,-0.8804,-0.9008,-0.9732,-1.0246,-1.0164,-1.0314,-1.0888,-1.1084,-1.1113,-1.1144,-1.1318,-1.1583,-1.1856,-1.1824,-1.1855,-1.1875,-1.2165,1.2769,1.2559,1.2608,1.2452,1.2206,1.1529,1.0817,1.0214,0.9766,0.9766,1.0218,0.9694,0.9519,0.9524,0.9492,0.9214,0.8983,0.8808,0.8808,0.8808,0.8808,0.8808,0.8808,0.8808,0.8808,0.8808,0.8808,0.8808,0.8752,0.8808,0.8808,0.8752,0.8808,0.8808,0.8808,0.8808,0.859,0.8371,0.7993,0.767,0.7289,0.702,0.6637,0.6197,0.5923,0.5542,0.5058,0.4787,0.457,0.4517,0.4517,0.4462,0.4462,0.4462,0.4462,0.4462,0.4465,0.4415,0.4146,0.2682,0.1507,0.1451,0.2571,0.3198,0.2857,0.2686,0.2571,0.2124,0.106,-0.0111,-0.117,-0.24,-0.3635,-0.4027,-0.4189,-0.4632,-0.5009,-0.5273,-0.5546,-0.598,-0.6632,-0.7297,-0.813,-0.8801,-0.8811,-0.8808,-0.8775,-0.8725,-0.8715,-0.8702,-0.8808,-0.8808,-0.8808,-0.8808,-0.8808,-0.8808,-0.8808,-0.8804,-0.8804,-0.8896,-0.9392,-0.9823,-0.9941,-1.0234,-1.0622,-1.1405,-1.2168,-1.2068,-1.1617,-1.2219,-1.2535,-1.2399,-1.2275,-1.2315,-1.2349,1.2886,1.2886,1.2886,1.2886,1.2832,1.2403,1.1985,1.1484,1.0622,1.0466,1.0724,1.0383,1.0177,1.0186,1.0181,0.9877,0.9267,0.9263,0.911,0.8808,0.8857,0.8808,0.8808,0.8857,0.8808,0.8808,0.8808,0.8808,0.8801,0.8804,0.8808,0.8808,0.8808,0.8808,0.8808,0.8808,0.8808,0.8643,0.8424,0.8209,0.7937,0.7667,0.723,0.6738,0.6517,0.5925,0.5277,0.506,0.4787,0.4572,0.4462,0.4462,0.4462,0.4462,0.4462,0.4462,0.4463,0.447,0.4311,0.3801,0.2901,0.2565,0.2733,0.358,0.3808,0.3691,0.3809,0.3645,0.2007,0.0556,-0.0446,-0.1506,-0.2511,-0.3463,-0.3968,-0.4421,-0.4688,-0.4897,-0.5166,-0.549,-0.6093,-0.6753,-0.745,-0.8235,-0.8292,-0.7523,-0.7616,-0.8271,-0.8356,-0.8431,-0.8646,-0.8808,-0.8808,-0.8808,-0.8808,-0.8808,-0.8808,-0.8808,-0.8804,-0.8945,-0.927,-0.9334,-0.9398,-0.9729,-1.0162,-1.097,-1.18,-1.1975,-1.1848,-1.2398,-1.2725,-1.2681,-1.2574,-1.2633,-1.2715,1.2973,1.2978,1.2925,1.2886,1.2886,1.2876,1.2871,1.2813,1.1579,1.0969,1.1023,1.0922,1.088,1.0876,1.085,1.0498,1.0072,0.9865,0.9662,0.9008,0.926,0.926,0.9211,0.9012,0.9312,0.9113,0.9005,0.9197,0.889,0.8949,0.9008,0.8804,0.8808,0.8808,0.8808,0.8808,0.8808,0.8752,0.8699,0.859,0.8646,0.8699,0.8752,0.8374,0.783,0.7179,0.6421,0.5819,0.5218,0.4732,0.4462,0.4462,0.4462,0.468,0.4625,0.4462,0.4462,0.4467,0.4475,0.4195,0.363,0.3404,0.363,0.4138,0.425,0.4247,0.4366,0.4315,0.2843,0.2172,0.1336,-0.0111,-0.1337,-0.251,-0.3352,-0.4027,-0.4584,-0.4739,-0.4842,-0.5113,-0.533,-0.5934,-0.6199,-0.6846,-0.6792,-0.5898,-0.6004,-0.7047,-0.7597,-0.7771,-0.8096,-0.8421,-0.8752,-0.8752,-0.8808,-0.8808,-0.8808,-0.8808,-0.8808,-0.8804,-0.8991,-0.8928,-0.8817,-0.9291,-0.976,-1.0358,-1.1007,-1.1266,-1.1616,-1.1976,-1.2349,-1.272,-1.2822,-1.2861,-1.2866,1.3601,1.3563,1.3109,1.2886,1.2934,1.2886,1.3195,1.3505,1.2749,1.2403,1.2264,1.1864,1.1601,1.167,1.1606,1.12,1.0665,1.0513,1.0462,1.0269,1.0218,1.0072,1.0218,1.0123,1.0222,1.032,1.0206,0.9729,0.9245,0.9273,0.926,0.885,0.8801,0.8808,0.8808,0.8808,0.8808,0.8808,0.8808,0.8808,0.8808,0.8699,0.8593,0.8212,0.7667,0.712,0.6414,0.576,0.5166,0.4624,0.4517,0.4462,0.4462,0.5005,0.4952,0.4627,0.4625,0.4574,0.4577,0.4527,0.4135,0.4076,0.4244,0.4358,0.447,0.4465,0.4463,0.4358,0.4079,0.363,0.2956,0.1336,-0.0223,-0.1449,-0.2681,-0.3465,-0.4307,-0.4525,-0.4572,-0.4679,-0.4732,-0.4942,-0.5204,-0.5198,-0.5029,-0.4967,-0.4907,-0.541,-0.6077,-0.6443,-0.6993,-0.7483,-0.8474,-0.8695,-0.8755,-0.8808,-0.8808,-0.8808,-0.8808,-0.8808,-0.8808,-0.8798,-0.8834,-0.9037,-0.946,-0.9927,-1.0368,-1.0817,-1.1166,-1.1421,-1.1882,-1.2206,-1.2681,-1.2779,-1.2881,1.4201,1.4143,1.3836,1.3705,1.371,1.37,1.3878,1.4102,1.3831,1.37,1.352,1.2803,1.2452,1.2565,1.2412,1.1914,1.1312,1.114,1.0902,1.0864,1.1044,1.0893,1.0939,1.104,1.0838,1.088,1.0771,1.0332,0.9838,0.9504,0.9451,0.8911,0.882,0.8804,0.8804,0.8808,0.8808,0.8808,0.8808,0.8808,0.8808,0.8699,0.8649,0.8265,0.799,0.7388,0.6956,0.6411,0.6036,0.566,0.5553,0.55,0.5607,0.5823,0.5767,0.5496,0.5224,0.495,0.4842,0.4682,0.4524,0.4522,0.4465,0.4467,0.4467,0.4462,0.4462,0.441,0.441,0.4016,0.3968,0.2788,0.117,-0.0223,-0.1281,-0.2172,-0.3459,-0.4531,-0.4522,-0.457,-0.4625,-0.4624,-0.4835,-0.4835,-0.4721,-0.4719,-0.4546,-0.4542,-0.5035,-0.5467,-0.5903,-0.6448,-0.7489,-0.8447,-0.8751,-0.8785,-0.8808,-0.8808,-0.8814,-0.8808,-0.8808,-0.8808,-0.884,-0.896,-0.9103,-0.9284,-0.9762,-1.0163,-1.0364,-1.0568,-1.1128,-1.1647,-1.2166,-1.2637,-1.2676,1.4963,1.4824,1.4681,1.4703,1.4703,1.4703,1.4749,1.4795,1.4703,1.4801,1.4749,1.3652,1.351,1.3462,1.3147,1.2535,1.2075,1.1909,1.1512,1.1443,1.16,1.1628,1.1569,1.1528,1.1514,1.1447,1.1329,1.1296,1.1095,1.0631,0.9974,0.9096,0.8884,0.8906,0.8804,0.8808,0.8808,0.8808,0.8808,0.8808,0.8808,0.8808,0.8755,0.8755,0.8752,0.8427,0.794,0.756,0.7235,0.6912,0.6532,0.6423,0.648,0.6532,0.6529,0.6258,0.5873,0.5601,0.5382,0.5001,0.4732,0.4515,0.4517,0.4462,0.4462,0.4462,0.4462,0.4462,0.4462,0.4465,0.4418,0.4084,0.2454,0.1114,0.0167,-0.0,-0.0,-0.0,-0.4361,-0.4408,-0.4465,-0.4465,-0.4465,-0.4465,-0.4463,-0.4462,-0.4462,-0.4462,-0.4624,-0.4944,-0.5376,-0.5756,-0.646,-0.7362,-0.846,-0.8665,-0.8629,-0.8785,-0.8791,-0.8768,-0.8808,-0.8808,-0.8808,-0.8804,-0.8956,-0.9057,-0.9159,-0.9462,-0.961,-0.9862,-1.0316,-1.0981,-1.1846,-1.226,-1.2407,1.6183,1.531,1.4874,1.4749,1.4749,1.4749,1.4966,1.5326,1.4926,1.5197,1.5611,1.4932,1.4242,1.3779,1.3147,1.2803,1.288,1.2614,1.2594,1.2583,1.2396,1.2436,1.2431,1.2234,1.248,1.2417,1.2269,1.2419,1.1995,1.1488,1.057,0.924,0.9463,0.9309,0.8857,0.8804,0.8808,0.8808,0.8808,0.8808,0.8808,0.8808,0.8808,0.8808,0.8752,0.8318,0.7883,0.7723,0.7235,0.702,0.713,0.713,0.713,0.7238,0.7238,0.6964,0.6578,0.6197,0.5871,0.5433,0.5109,0.468,0.4627,0.4462,0.4462,0.4462,0.4462,0.4462,0.4462,0.4462,0.4468,0.4477,0.335,0.2509,0.1613,-0.0,-0.0,-0.0,-0.3976,-0.4143,-0.4366,-0.4421,-0.4477,-0.4472,-0.4465,-0.4465,-0.4462,-0.4462,-0.4462,-0.468,-0.4844,-0.5222,-0.5597,-0.6962,-0.8349,-0.8441,-0.847,-0.8621,-0.8758,-0.8672,-0.8649,-0.8755,-0.8808,-0.8808,-0.8808,-0.8857,-0.8959,-0.9008,-0.926,-0.9562,-0.9758,-1.0316,-1.1225,-1.185,-1.1904]},{"header":{"parameterUnit":"m.s-1","parameterCategory":1,"la1":31.0,"la2":29.5877,"lo1":-88.7671,"lo2":-86.6584,"dy":0.0162,"dx":0.0185,"nx":115,"ny":88,"refTime":"2024-07-27T06:00:00:Z","depth":0,"parameterNumber":3,"parameterNumberName":"V-component_of_WINDS"},"data":[0.0,0.0,0.0,0.0,0.0,0.0,0.0,0.0,0.0,0.0,0.0,0.0,0.0,0.0,0.0,0.0,0.0,0.0,0.0,0.0,0.0,0.0,0.0,0.0,0.0,0.0,0.0,0.0,0.0,0.0,0.0,0.0,0.0,0.0,0.0,0.0,0.0,0.0,0.0,0.0,0.0,0.0,0.0,0.0,0.0,0.0,0.0,0.0,0.0,0.0,0.0,0.0,0.0,0.0,0.0,0.0,0.0,0.0,0.0,0.0,0.0,0.0,0.0,0.0,0.0,0.0,0.0,0.0,0.0,0.0,0.0,0.0,0.0,0.0,0.0,0.0,0.0,0.0,0.0,0.0,0.0,0.0,0.0,0.0,0.0,0.0,0.0,0.0,0.0,0.0,0.0,0.0,0.0,0.0,0.0,0.0,0.0,0.0,0.0,0.0,0.0,0.0,0.0,0.0,0.0,0.0,0.0,0.0,0.0,0.0,0.0,0.0,0.0,0.0,0.0,0.0,0.0,0.0,0.0,0.0,0.0,0.0,0.0,0.0,0.0,0.0,0.0,0.0,0.0,0.0,0.0,0.0,0.0,0.0,0.0,0.0,0.0,0.0,0.0,0.0,0.0,0.0,0.0,0.0,0.0,0.0,0.0,0.0,0.0,0.0,0.0,0.0,0.0,0.0,0.0,0.0,0.0,0.0,0.0,0.0,0.0,0.0,0.0,0.0,0.0,0.0,0.0,0.0,0.0,0.0,0.0,0.0,0.0,0.0,0.0,0.0,0.0,0.0,0.0,0.0,0.0,0.0,0.0,0.0,0.0,0.0,0.0,0.0,0.0,0.0,0.0,0.0,0.0,0.0,0.0,0.0,0.0,0.0,0.0,0.0,0.0,0.0,0.0,0.0,0.0,0.0,0.0,0.0,0.0,0.0,0.0,0.0,0.0,0.0,0.0,0.0,0.0,0.0,0.0,0.0,0.0,0.0,0.0,0.0,0.0,0.0,0.0,0.0,0.0,0.0,0.0,0.0,0.0,0.0,0.0,0.0,0.0,0.0,0.0,0.0,0.0,0.0,0.0,0.0,0.0,0.0,0.0,0.0,0.0,0.0,0.0,0.0,0.0,0.0,0.0,0.0,0.0,0.0,0.0,0.0,0.0,0.0,0.0,0.0,0.0,0.0,0.0,0.0,0.0,0.0,0.0,0.0,0.0,0.0,0.0,0.0,0.0,0.0,0.0,0.0,0.0,0.0,0.0,0.0,0.0,0.0,0.0,0.0,0.0,0.0,0.0,0.0,0.0,0.0,0.0,0.0,0.0,0.0,0.0,0.0,0.0,0.0,0.0,0.0,0.0,0.0,0.0,0.0,0.0,0.0,0.0,0.0,0.0,0.0,0.0,0.0,0.0,0.0,0.0,0.0,0.0,0.0,0.0,0.0,0.0,0.0,0.0,0.0,0.0,0.0,0.0,0.0,0.0,0.0,0.0,0.0,0.0,0.0,0.0,0.0,0.0,0.0,0.0,0.0,0.0,0.0,0.0,0.0,0.0,0.0,0.0,0.0,0.0,0.0,0.0,0.0,0.0,0.0,0.0,0.0,0.0,0.0,0.0,0.0,0.0,0.0,0.0,0.0,0.0,0.0,0.0,0.0,0.0,0.0,0.0,0.0,0.0,0.0,0.0,0.0,0.0,0.0,0.0,0.0,0.0,0.0,0.0,0.0,0.0,0.0,0.0,0.0,0.0,0.0,0.0,0.0,0.0,0.0,0.0,0.0,0.0,0.0,0.0,0.0,0.0,0.0,0.0,0.0,0.0,0.0,0.0,0.0,0.0,0.0,0.0,0.0,0.0,0.0,0.0,0.0,0.0,0.0,0.0,0.0,0.0,0.0,0.0,0.0,0.0,0.0,0.0,0.0,0.0,0.0,0.0,0.0,0.0,0.0,0.0,0.0,0.0,0.0,0.0,0.0,0.0,0.0,0.0,0.0,0.0,0.0,0.0,0.0,0.0,0.0,0.0,0.0,0.0,0.0,0.0,0.0,0.0,0.0,0.0,0.0,0.0,0.0,0.0,0.0,0.0,0.0,0.0,0.0,0.0,0.0,0.0,0.0,0.0,0.0,0.0,0.0,0.0,0.0,0.0,0.0,0.0,0.0,0.0,0.0,0.0,0.0,0.0,0.0,0.0,0.0,0.0,0.0,0.0,0.0,0.0,0.0,0.0,0.0,0.0,0.0,0.0,0.0,0.0,0.0,0.0,0.0,0.0,0.0,0.0,0.0,0.0,0.0,0.0,0.0,0.0,0.0,0.0,0.0,0.0,0.0,0.0,0.0,0.0,0.0,0.0,0.0,0.0,0.0,0.0,0.0,0.0,0.0,0.0,0.0,0.0,0.0,0.0,0.0,0.0,0.0,0.0,0.0,0.0,0.0,0.0,0.0,0.0,0.0,0.0,0.0,0.0,0.0,0.0,0.0,0.0,0.0,0.0,0.0,0.0,0.0,0.0,0.0,0.0,0.0,0.0,0.0,0.0,0.0,0.0,0.0,0.0,0.0,0.0,0.0,0.0,0.0,0.0,0.0,0.0,0.0,0.0,0.0,0.0,0.0,0.0,0.0,0.0,0.0,0.0,0.0,0.0,0.0,0.0,0.0,0.0,0.0,0.0,0.0,0.0,0.0,0.0,0.0,0.0,0.0,0.0,0.0,0.0,0.0,0.0,0.0,0.0,0.0,0.0,0.0,0.0,0.0,0.0,0.0,0.0,0.0,0.0,0.0,0.0,0.0,0.0,0.0,0.0,0.0,0.0,0.0,0.0,0.0,0.0,0.0,0.0,0.0,0.0,0.0,0.0,0.0,0.0,0.0,0.0,0.0,0.0,0.0,0.0,0.0,0.0,0.0,0.0,0.0,0.0,0.0,0.0,0.0,0.0,0.0,0.0,0.0,0.0,0.0,0.0,0.0,0.0,0.0,0.0,0.0,0.0,0.0,0.0,0.0,0.0,0.0,0.0,0.0,0.0,0.0,0.0,0.0,0.0,0.0,0.0,0.0,0.0,0.0,0.0,0.0,0.0,0.0,0.0,0.0,0.0,0.0,0.0,0.0,0.0,0.0,0.0,0.0,0.0,0.0,0.0,0.0,0.0,0.0,0.0,0.0,0.0,0.0,0.0,0.0,0.0,0.0,0.0,0.0,0.0,0.0,0.0,0.0,0.0,0.0,0.0,0.0,0.0,0.0,0.0,0.0,0.0,0.0,0.0,0.0,0.0,0.0,0.0,0.0,0.0,0.0,0.0,0.0,0.0,0.0,0.0,0.0,0.0,0.0,0.0,0.0,0.0,0.0,0.0,0.0,0.0,0.0,0.0,0.0,0.0,0.0,0.0,0.0,0.0,0.0,0.0,0.0,0.0,0.0,0.0,0.0,0.0,0.0,0.0,0.0,0.0,0.0,0.0,0.0,0.0,0.0,0.0,0.0,0.0,0.0,0.0,0.0,0.0,0.0,0.0,0.0,0.0,0.0,0.0,0.0,0.0,0.0,0.0,0.0,0.0,0.0,0.0,0.0,0.0,0.0,0.0,0.0,0.0,0.0,0.0,0.0,0.0,0.0,0.0,0.0,0.0,0.0,0.0,0.0,0.0,0.0,0.0,0.0,0.0,0.0,0.0,0.0,0.0,0.0,0.0,0.0,0.0,0.0,0.0,0.0,0.0,0.0,0.0,0.0,0.0,0.0,0.0,0.0,0.0,0.0,0.0,0.0,0.0,0.0,0.0,0.0,0.0,0.0,0.0,0.0,0.0,0.0,0.0,0.0,0.0,0.0,0.0,0.0,0.0,0.0,0.0,0.0,0.0,0.0,0.0,0.0,0.0,0.0,0.0,0.0,0.0,0.0,0.0,0.0,0.0,0.0,0.0,0.0,0.0,0.0,0.0,0.0,0.0,0.0,0.0,0.0,0.0,0.0,0.0,0.0,0.0,0.0,0.0,0.0,0.0,0.0,0.0,0.0,0.0,0.0,0.0,0.0,0.0,0.0,0.0,0.0,0.0,0.0,0.0,0.0,0.0,0.0,0.0,0.0,0.0,0.0,0.0,0.0,0.0,0.0,0.0,0.0,0.0,0.0,0.0,0.0,0.0,0.0,0.0,0.0,0.0,0.0,0.0,0.0,0.0,0.0,0.0,0.0,0.0,0.0,0.0,0.0,0.0,0.0,0.0,0.0,0.0,0.0,0.0,0.0,0.0,0.0,0.0,0.0,0.0,0.0,0.0,0.0,0.0,0.0,-1.6458,0.0,0.0,0.0,0.0,0.0,0.0,0.0,0.0,0.0,0.0,0.0,0.0,0.0,0.0,0.0,0.0,0.0,0.0,0.0,0.0,0.0,0.0,0.0,0.0,0.0,0.0,0.0,0.0,0.0,0.0,0.0,0.0,0.0,0.0,0.0,0.0,0.0,0.0,0.0,0.0,0.0,0.0,0.0,0.0,0.0,0.0,0.0,0.0,0.0,0.0,0.0,0.0,0.0,0.0,0.0,0.0,0.0,0.0,0.0,0.0,0.0,0.0,0.0,0.0,0.0,0.0,0.0,0.0,0.0,0.0,0.0,0.0,0.0,0.0,0.0,0.0,0.0,0.0,0.0,0.0,0.0,0.0,0.0,0.0,0.0,0.0,0.0,0.0,0.0,0.0,0.0,0.0,0.0,0.0,0.0,0.0,0.0,0.0,0.0,0.0,0.0,0.0,0.0,0.0,0.0,0.0,0.0,0.0,0.0,0.0,-1.7386,-1.7157,-1.6415,-1.5765,-1.5319,0.0,0.0,0.0,0.0,0.0,0.0,0.0,0.0,0.0,0.0,0.0,0.0,0.0,0.0,0.0,0.0,0.0,0.0,0.0,0.0,0.0,0.0,0.0,0.0,0.0,0.0,0.0,0.0,0.0,0.0,0.0,0.0,0.0,0.0,0.0,0.0,0.0,0.0,0.0,0.0,0.0,0.0,0.0,0.0,0.0,0.0,0.0,0.0,0.0,0.0,0.0,0.0,0.0,0.0,0.0,0.0,0.0,0.0,0.0,0.0,0.0,0.0,0.0,0.0,0.0,0.0,0.0,0.0,0.0,0.0,0.0,0.0,0.0,0.0,0.0,0.0,0.0,0.0,0.0,0.0,0.0,0.0,0.0,0.0,0.0,0.0,0.0,0.0,0.0,0.0,0.0,0.0,0.0,0.0,0.0,0.0,0.0,0.0,0.0,0.0,0.0,0.0,0.0,0.0,0.0,0.0,0.0,0.0,0.0,0.0,0.0,0.0,-1.5837,-1.5159,-1.4447,0.0,0.0,0.0,0.0,0.0,0.0,0.0,0.0,0.0,0.0,0.0,0.0,0.0,0.0,0.0,0.0,0.0,0.0,0.0,0.0,0.0,0.0,0.0,0.0,0.0,0.0,0.0,0.0,0.0,0.0,0.0,0.0,0.0,0.0,0.0,0.0,0.0,0.0,0.0,0.0,0.0,0.0,0.0,0.0,0.0,0.0,0.0,0.0,0.0,0.0,0.0,0.0,0.0,0.0,0.0,0.0,0.0,0.0,0.0,0.0,0.0,0.0,0.0,0.0,0.0,0.0,0.0,0.0,0.0,0.0,0.0,0.0,0.0,0.0,0.0,0.0,0.0,0.0,0.0,0.0,0.0,0.0,0.0,0.0,0.0,0.0,0.0,0.0,0.0,0.0,0.0,0.0,0.0,0.0,0.0,0.0,0.0,0.0,0.0,0.0,0.0,0.0,0.0,0.0,0.0,0.0,0.0,0.0,0.0,0.0,-1.5808,-1.5979,-1.5997,0.0,-1.5137,0.0,0.0,0.0,0.0,0.0,0.0,0.0,0.0,0.0,0.0,0.0,0.0,0.0,0.0,0.0,0.0,0.0,0.0,0.0,0.0,0.0,0.0,0.0,0.0,0.0,0.0,0.0,0.0,0.0,0.0,0.0,0.0,0.0,0.0,0.0,0.0,0.0,0.0,0.0,0.0,0.0,0.0,0.0,0.0,0.0,0.0,0.0,0.0,0.0,0.0,0.0,0.0,0.0,0.0,0.0,0.0,0.0,0.0,0.0,0.0,0.0,0.0,0.0,0.0,0.0,0.0,0.0,0.0,0.0,0.0,0.0,0.0,0.0,0.0,0.0,0.0,0.0,0.0,0.0,0.0,0.0,0.0,0.0,0.0,0.0,0.0,0.0,0.0,0.0,0.0,0.0,0.0,0.0,0.0,0.0,0.0,0.0,0.0,0.0,0.0,0.0,0.0,0.0,0.0,0.0,0.0,0.0,0.0,0.0,0.0,-1.4857,-1.5113,-1.4756,-1.4354,0.0,0.0,0.0,0.0,0.0,0.0,0.0,0.0,0.0,0.0,0.0,0.0,0.0,0.0,0.0,0.0,0.0,0.0,0.0,0.0,0.0,0.0,0.0,0.0,0.0,0.0,0.0,0.0,0.0,0.0,0.0,0.0,0.0,0.0,0.0,0.0,0.0,0.0,0.0,0.0,0.0,0.0,0.0,0.0,0.0,0.0,0.0,0.0,0.0,0.0,0.0,0.0,0.0,0.0,0.0,0.0,0.0,0.0,0.0,0.0,0.0,0.0,0.0,0.0,0.0,0.0,0.0,0.0,0.0,0.0,0.0,0.0,0.0,0.0,0.0,0.0,0.0,0.0,0.0,0.0,0.0,0.0,0.0,0.0,0.0,0.0,0.0,0.0,0.0,0.0,0.0,0.0,0.0,0.0,0.0,0.0,0.0,0.0,0.0,0.0,0.0,0.0,0.0,0.0,0.0,0.0,0.0,0.0,0.0,0.0,-1.3799,-1.3894,-1.4345,-1.4086,-1.3561,-1.2841,0.0,0.0,0.0,0.0,0.0,0.0,0.0,0.0,0.0,0.0,0.0,0.0,0.0,0.0,0.0,0.0,0.0,0.0,0.0,0.0,0.0,0.0,0.0,0.0,0.0,0.0,0.0,0.0,0.0,0.0,0.0,0.0,0.0,0.0,0.0,0.0,0.0,0.0,0.0,0.0,0.0,0.0,0.0,0.0,0.0,0.0,0.0,0.0,0.0,0.0,0.0,0.0,0.0,0.0,0.0,0.0,0.0,0.0,0.0,0.0,0.0,0.0,0.0,0.0,0.0,0.0,0.0,0.0,0.0,0.0,0.0,0.0,0.0,0.0,0.0,0.0,0.0,0.0,0.0,0.0,0.0,0.0,0.0,0.0,0.0,0.0,0.0,0.0,0.0,0.0,0.0,0.0,0.0,0.0,0.0,0.0,0.0,0.0,0.0,0.0,0.0,0.0,0.0,0.0,0.0,0.0,0.0,0.0,-1.443,-1.32,-1.2943,-1.3905,-1.4506,-1.4059,0.0,0.0,0.0,0.0,0.0,0.0,0.0,0.0,0.0,0.0,0.0,0.0,0.0,0.0,0.0,0.0,0.0,0.0,0.0,0.0,0.0,0.0,0.0,0.0,0.0,0.0,0.0,0.0,0.0,0.0,0.0,0.0,0.0,0.0,0.0,0.0,0.0,0.0,0.0,0.0,0.0,0.0,0.0,0.0,0.0,0.0,0.0,0.0,0.0,0.0,0.0,0.0,0.0,0.0,0.0,0.0,0.0,0.0,0.0,0.0,0.0,0.0,0.0,0.0,0.0,0.0,0.0,0.0,0.0,0.0,0.0,0.0,0.0,0.0,0.0,0.0,0.0,0.0,0.0,0.0,0.0,0.0,0.0,0.0,0.0,0.0,0.0,0.0,0.0,0.0,0.0,0.0,0.0,0.0,0.0,0.0,0.0,0.0,0.0,0.0,0.0,0.0,0.0,0.0,0.0,0.0,0.0,0.0,0.0,-1.1626,-1.1872,-1.2463,-1.3309,-1.2814,-1.2356,0.0,0.0,0.0,0.0,0.0,0.0,0.0,0.0,0.0,0.0,0.0,0.0,0.0,0.0,0.0,0.0,0.0,0.0,0.0,0.0,0.0,0.0,0.0,0.0,0.0,0.0,0.0,0.0,0.0,0.0,0.0,0.0,0.0,0.0,0.0,0.0,0.0,0.0,0.0,0.0,0.0,0.0,0.0,0.0,0.0,0.0,0.0,0.0,0.0,0.0,0.0,0.0,0.0,0.0,0.0,0.0,0.0,0.0,0.0,0.0,0.0,0.0,0.0,0.0,0.0,0.0,0.0,0.0,0.0,0.0,0.0,0.0,0.0,0.0,0.0,0.0,0.0,0.0,0.0,0.0,0.0,0.0,0.0,0.0,0.0,0.0,0.0,0.0,0.0,0.0,0.0,0.0,0.0,0.0,0.0,0.0,0.0,0.0,0.0,0.0,0.0,0.0,0.0,0.0,0.0,0.0,0.0,0.0,0.0,-1.0296,0.0,-1.231,0.0,-1.2053,-1.1489,0.0,0.0,0.0,0.0,0.0,0.0,0.0,0.0,0.0,0.0,0.0,0.0,0.0,0.0,0.0,0.0,0.0,0.0,0.0,0.0,0.0,0.0,0.0,0.0,0.0,0.0,0.0,0.0,0.0,0.0,0.0,0.0,0.0,0.0,0.0,0.0,0.0,0.0,0.0,0.0,0.0,0.0,0.0,0.0,0.0,0.0,0.0,0.0,0.0,0.0,0.0,0.0,0.0,0.0,0.0,0.0,0.0,0.0,0.0,0.0,0.0,0.0,0.0,0.0,0.0,0.0,0.0,0.0,0.0,0.0,0.0,0.0,0.0,0.0,0.0,0.0,0.0,0.0,0.0,0.0,0.0,0.0,0.0,0.0,0.0,0.0,0.0,0.0,0.0,0.0,0.0,0.0,0.0,0.0,0.0,0.0,0.0,0.0,0.0,0.0,0.0,0.0,0.0,0.0,0.0,0.0,0.0,0.0,-0.9884,-1.0856,-1.221,-1.2408,-1.1567,-1.2424,-1.167,0.0,0.0,0.0,0.0,0.0,0.0,0.0,0.0,0.0,0.0,0.0,0.0,0.0,0.0,0.0,0.0,0.0,0.0,0.0,0.0,0.0,0.0,0.0,0.0,0.0,0.0,0.0,0.0,0.0,0.0,0.0,0.0,0.0,0.0,0.0,0.0,0.0,0.0,0.0,0.0,0.0,0.0,0.0,0.0,0.0,0.0,0.0,0.0,0.0,0.0,0.0,0.0,0.0,0.0,0.0,0.0,0.0,0.0,0.0,0.0,0.0,0.0,0.0,0.0,0.0,0.0,0.0,0.0,0.0,0.0,0.0,0.0,0.0,0.0,0.0,0.0,0.0,0.0,0.0,0.0,0.0,0.0,0.0,0.0,0.0,0.0,0.0,0.0,0.0,0.0,0.0,0.0,0.0,0.0,0.0,0.0,0.0,0.0,0.0,0.0,0.0,0.0,0.0,0.0,0.0,0.0,0.0,0.0,0.0,-0.983,-1.0821,-1.1337,-1.1287,-1.1195,-1.0673,0.0,0.0,0.0,0.0,0.0,0.0,0.0,0.0,0.0,0.0,0.0,0.0,0.0,0.0,0.0,0.0,0.0,0.0,0.0,0.0,0.0,0.0,0.0,0.0,0.0,0.0,0.0,0.0,0.0,0.0,0.0,0.0,0.0,0.0,0.0,0.0,0.0,0.0,0.0,0.0,0.0,0.0,0.0,0.0,0.0,0.0,0.0,0.0,0.0,0.0,0.0,0.0,0.0,0.0,0.0,0.0,0.0,0.0,0.0,0.0,0.0,0.0,0.0,0.0,0.0,0.0,0.0,0.0,0.0,0.0,0.0,0.0,0.0,0.0,0.0,0.0,0.0,0.0,0.0,0.0,0.0,0.0,0.0,0.0,0.0,0.0,0.0,0.0,0.0,0.0,0.0,0.0,0.0,0.0,0.0,0.0,0.0,0.0,0.0,0.0,0.0,0.0,0.0,0.0,0.0,0.0,0.0,0.0,0.0,-0.9307,-1.0169,-1.0852,-1.119,-1.0658,-1.0258,-0.9985,0.0,0.0,0.0,0.0,0.0,0.0,0.0,0.0,0.0,0.0,0.0,0.0,0.0,0.0,0.0,0.0,0.0,0.0,0.0,0.0,0.0,0.0,0.0,0.0,0.0,0.0,0.0,0.0,0.0,0.0,0.0,0.0,0.0,0.0,0.0,0.0,0.0,0.0,0.0,0.0,0.0,0.0,0.0,0.0,0.0,0.0,0.0,0.0,0.0,0.0,0.0,0.0,0.0,0.0,0.0,0.0,0.0,0.0,0.0,0.0,0.0,0.0,0.0,0.0,0.0,0.0,0.0,0.0,0.0,0.0,0.0,0.0,0.0,0.0,0.0,0.0,0.0,0.0,0.0,0.0,0.0,0.0,0.0,0.0,0.0,0.0,0.0,0.0,0.0,0.0,0.0,0.0,0.0,0.0,0.0,0.0,0.0,0.0,0.0,0.0,0.0,0.0,0.0,0.0,0.0,0.0,0.0,0.0,-0.9166,-1.0162,-1.0826,-1.1179,-1.0747,-1.0358,0.0,0.0,0.0,0.0,0.0,0.0,0.0,0.0,0.0,0.0,0.0,0.0,0.0,0.0,0.0,0.0,0.0,0.0,0.0,0.0,0.0,0.0,0.0,0.0,0.0,0.0,0.0,0.0,0.0,0.0,0.0,0.0,0.0,0.0,0.0,0.0,0.0,0.0,0.0,0.0,0.0,0.0,0.0,0.0,0.0,0.0,0.0,0.0,0.0,0.0,0.0,0.0,0.0,0.0,0.0,0.0,0.0,0.0,0.0,0.0,0.0,0.0,0.0,0.0,0.0,0.0,0.0,0.0,0.0,0.0,0.0,0.0,0.0,0.0,0.0,0.0,0.0,0.0,0.0,0.0,0.0,0.0,0.0,0.0,0.0,0.0,0.0,0.0,0.0,0.0,0.0,0.0,0.0,0.0,0.0,0.0,0.0,0.0,0.0,0.0,0.0,0.0,0.0,0.0,0.0,0.0,0.0,0.0,0.0,-0.8992,-0.9003,-0.9634,-1.0847,-1.067,-1.0601,0.0,0.0,0.0,0.0,0.0,0.0,0.0,0.0,0.0,0.0,0.0,0.0,0.0,0.0,0.0,0.0,0.0,0.0,0.0,0.0,0.0,0.0,0.0,0.0,0.0,0.0,0.0,0.0,0.0,0.0,0.0,0.0,0.0,0.0,0.0,0.0,0.0,0.0,0.0,0.0,0.0,0.0,0.0,0.0,0.0,0.0,0.0,0.0,0.0,0.0,0.0,0.0,0.0,0.0,0.0,0.0,0.0,0.0,0.0,0.0,0.0,0.0,0.0,0.0,0.0,0.0,0.0,0.0,0.0,0.0,0.0,0.0,0.0,0.0,0.0,0.0,0.0,0.0,0.0,0.0,0.0,0.0,0.0,0.0,0.0,0.0,0.0,0.0,0.0,0.0,0.0,0.0,0.0,0.0,0.0,0.0,0.0,0.0,0.0,0.0,0.0,0.0,0.0,0.0,0.0,0.0,0.0,0.0,-0.9099,-0.8676,-0.8348,-0.8882,-1.0311,-1.0089,-1.0241,0.0,0.0,0.0,0.0,0.0,0.0,0.0,0.0,0.0,0.0,0.0,0.0,0.0,0.0,0.0,0.0,0.0,0.0,0.0,0.0,0.0,0.0,0.0,0.0,0.0,0.0,0.0,0.0,0.0,0.0,0.0,0.0,0.0,0.0,0.0,0.0,0.0,0.0,0.0,0.0,0.0,0.0,0.0,0.0,0.0,0.0,0.0,0.0,0.0,0.0,0.0,0.0,0.0,0.0,0.0,0.0,0.0,0.0,0.0,0.0,0.0,0.0,0.0,0.0,0.0,0.0,0.0,0.0,0.0,0.0,0.0,0.0,0.0,0.0,0.0,0.0,0.0,0.0,0.0,0.0,0.0,0.0,0.0,0.0,0.0,0.0,0.0,0.0,0.0,0.0,0.0,0.0,0.0,0.0,0.0,0.0,0.0,0.0,0.0,0.0,0.0,0.0,0.0,0.0,0.0,0.0,0.0,0.0,-0.8965,-0.833,-0.8067,-0.8468,-0.9497,-0.9273,-0.9617,0.0,0.0,0.0,0.0,0.0,0.0,0.0,0.0,0.0,0.0,0.0,0.0,0.0,0.0,0.0,0.0,0.0,0.0,0.0,0.0,0.0,0.0,0.0,0.0,0.0,0.0,0.0,0.0,0.0,0.0,0.0,0.0,0.0,0.0,0.0,0.0,0.0,0.0,0.0,0.0,0.0,0.0,0.0,0.0,0.0,0.0,0.0,0.0,0.0,0.0,0.0,0.0,0.0,0.0,0.0,0.0,0.0,0.0,0.0,0.0,0.0,0.0,0.0,0.0,0.0,0.0,0.0,0.0,0.0,0.0,0.0,0.0,0.0,0.0,0.0,0.0,0.0,0.0,0.0,0.0,0.0,0.0,0.0,0.0,0.0,0.0,0.0,0.0,0.0,0.0,0.0,0.0,0.0,0.0,0.0,0.0,0.0,0.0,0.0,0.0,0.0,0.0,0.0,0.0,0.0,0.0,0.0,0.0,-0.8328,-0.7715,-0.8007,-0.8323,-0.8587,-0.9212,-0.9969,0.0,0.0,0.0,0.0,0.0,0.0,0.0,0.0,0.0,0.0,0.0,0.0,0.0,0.0,0.0,0.0,0.0,0.0,0.0,0.0,0.0,0.0,0.0,0.0,0.0,0.0,0.0,0.0,0.0,0.0,0.0,0.0,0.0,0.0,0.0,0.0,0.0,0.0,0.0,0.0,0.0,0.0,0.0,0.0,0.0,0.0,0.0,0.0,-0.7599,0.0,0.0,0.0,0.0,0.0,0.0,0.0,0.0,0.0,0.0,0.0,0.0,0.0,0.0,0.0,0.0,0.0,0.0,0.0,0.0,0.0,0.0,0.0,0.0,0.0,0.0,0.0,0.0,0.0,0.0,0.0,0.0,0.0,0.0,0.0,0.0,0.0,0.0,0.0,0.0,0.0,0.0,0.0,0.0,0.0,0.0,0.0,0.0,0.0,0.0,0.0,0.0,0.0,0.0,0.0,0.0,0.0,0.0,0.0,-0.7936,-0.7527,-0.7635,-0.7946,-0.8473,-0.9136,-0.9913,0.0,0.0,0.0,0.0,0.0,0.0,0.0,0.0,0.0,0.0,0.0,0.0,0.0,0.0,0.0,0.0,0.0,0.0,0.0,0.0,0.0,0.0,0.0,0.0,0.0,0.0,0.0,0.0,0.0,0.0,0.0,0.0,0.0,0.0,0.0,0.0,0.0,0.0,0.0,0.0,0.0,0.0,0.0,0.0,0.0,0.0,0.0,0.0,0.0,0.0,0.0,0.0,0.0,0.0,0.0,0.0,0.0,0.0,0.0,0.0,0.0,0.0,0.0,0.0,0.0,0.0,0.0,0.0,0.0,0.0,0.0,0.0,0.0,0.0,0.0,0.0,0.0,0.0,0.0,0.0,0.0,0.0,0.0,0.0,0.0,0.0,0.0,0.0,0.0,0.0,0.0,0.0,0.0,0.0,0.0,0.0,0.0,0.0,0.0,0.0,0.0,0.0,0.0,0.0,0.0,0.0,0.0,-0.7799,-0.7786,-0.7513,-0.7343,-0.7727,-0.8679,-0.9177,-0.9915,-1.0843,0.0,0.0,0.0,0.0,0.0,0.0,0.0,0.0,0.0,0.0,0.0,0.0,0.0,0.0,0.0,0.0,0.0,0.0,0.0,0.0,0.0,0.0,0.0,0.0,0.0,0.0,0.0,0.0,0.0,0.0,0.0,0.0,0.0,0.0,0.0,0.0,0.0,0.0,-0.2084,-0.2662,0.0,0.0,0.0,0.0,0.0,0.0,0.0,0.0,-0.8771,0.0,0.0,0.0,0.0,0.0,0.0,0.0,0.0,0.0,0.0,0.0,0.0,0.0,0.0,0.0,0.0,0.0,0.0,0.0,0.0,0.0,0.0,0.0,0.0,0.0,0.0,0.0,0.0,0.0,0.0,0.0,0.0,0.0,0.0,0.0,0.0,0.0,0.0,0.0,0.0,0.0,0.0,0.0,0.0,0.0,0.0,0.0,0.0,0.0,0.0,0.0,0.0,0.0,0.0,0.0,0.0,-0.7809,-0.7903,-0.7776,-0.751,-0.8104,-0.8517,-0.872,-0.9626,-1.06,-1.155,0.0,0.0,0.0,0.0,0.0,0.0,0.0,0.0,0.0,0.0,0.0,0.0,0.0,0.0,0.0,0.0,0.0,0.0,0.0,0.0,0.0,0.0,0.0,0.0,0.0,0.0,0.0,0.0,0.0,0.0,0.0,0.0,0.0,0.0,0.0,0.0,0.0,0.0,0.0,-0.3124,-0.3825,0.0,0.0,0.0,0.0,0.0,0.0,0.0,0.0,-0.8791,0.0,0.0,0.0,0.0,0.0,0.0,0.0,0.0,0.0,0.0,0.0,0.0,0.0,0.0,0.0,0.0,0.0,0.0,0.0,0.0,0.0,0.0,0.0,0.0,0.0,0.0,0.0,0.0,0.0,0.0,0.0,0.0,0.0,0.0,0.0,0.0,0.0,0.0,0.0,0.0,0.0,0.0,0.0,0.0,0.0,0.0,0.0,0.0,0.0,0.0,0.0,0.0,0.0,0.0,0.0,-0.812,-0.7993,-0.7978,-0.811,-0.8233,-0.8561,-0.9123,-0.9855,-1.0743,0.0,0.0,0.0,0.0,0.0,0.0,0.0,0.0,0.0,0.0,0.0,0.0,0.0,0.0,0.0,0.0,0.0,0.0,0.0,0.0,0.0,0.0,0.0,0.0,0.0,0.0,0.0,0.0,0.0,0.0,0.0,0.0,0.0,0.0,0.0,0.0,0.0,0.0,0.0,0.0,-0.294,-0.3769,-0.532,0.0,0.0,0.0,0.0,0.0,0.0,-0.8743,-0.8808,0.0,0.0,0.0,0.0,0.0,0.0,0.0,0.0,0.0,0.0,0.0,0.0,0.0,0.0,0.0,0.0,0.0,0.0,0.0,0.0,0.0,0.0,0.0,0.0,0.0,0.0,0.0,0.0,0.0,0.0,0.0,0.0,0.0,0.0,0.0,0.0,0.0,0.0,0.0,0.0,0.0,0.0,0.0,0.0,0.0,0.0,0.0,0.0,0.0,0.0,0.0,0.0,0.0,0.0,0.0,-0.829,-0.8268,-0.839,-0.868,-0.8398,-0.8671,-0.9623,-1.0123,-1.0836,0.0,0.0,0.0,0.0,0.0,0.0,0.0,0.0,0.0,0.0,0.0,0.0,0.0,0.0,0.0,0.0,0.0,0.0,0.0,0.0,0.0,0.0,0.0,0.0,0.0,0.0,0.0,0.0,0.0,0.0,0.0,0.0,0.0,0.0,0.0,0.0,0.0,0.0,0.0,0.0,0.0,-0.3828,-0.5105,-0.4842,0.0,0.0,0.0,0.0,-0.8586,-0.8808,0.0,0.0,0.0,0.0,0.0,0.0,0.0,0.0,0.0,0.0,0.0,0.0,0.0,0.0,0.0,0.0,0.0,0.0,0.0,0.0,0.0,0.0,0.0,0.0,0.0,0.0,0.0,0.0,0.0,0.0,0.0,0.0,0.0,0.0,0.0,0.0,0.0,0.0,0.0,0.0,0.0,0.0,0.0,0.0,0.0,0.0,0.0,0.0,0.0,0.0,0.0,0.0,0.0,0.0,0.0,0.0,-0.8382,-0.9076,-0.9217,-0.8761,-0.9075,-0.9579,-1.0104,-1.0619,-1.1377,0.0,0.0,0.0,0.0,0.0,0.0,0.0,0.0,0.0,0.0,0.0,0.0,0.0,0.0,0.0,0.0,0.0,0.0,0.0,0.0,0.0,0.0,0.0,0.0,0.0,0.0,0.0,0.0,0.0,0.0,0.0,0.0,0.0,0.0,0.0,0.0,0.0,0.0,0.0,0.0,0.0,-0.4405,-0.457,-0.4574,-0.5062,0.0,0.0,-0.7128,-0.859,-0.8808,0.0,0.0,0.0,0.0,0.0,0.0,0.0,0.0,0.0,0.0,0.0,0.0,0.0,0.0,0.0,0.0,0.0,0.0,0.0,0.0,0.0,0.0,0.0,0.0,0.0,0.0,0.0,0.0,0.0,0.0,0.0,0.0,0.0,0.0,0.0,0.0,0.0,0.0,0.0,0.0,0.0,0.0,0.0,0.0,0.0,0.0,0.0,0.0,0.0,0.0,0.0,0.0,0.0,0.0,0.0,-0.9256,-0.9236,-0.9514,-0.9696,-0.9599,-0.9518,-0.9859,-1.0657,-1.1153,-1.1892,0.0,0.0,0.0,0.0,0.0,0.0,0.0,0.0,0.0,0.0,0.0,0.0,0.0,0.0,0.0,0.0,0.0,0.0,0.0,0.0,0.0,0.0,0.0,0.0,0.0,0.0,0.0,0.0,0.0,0.0,0.0,0.0,0.0,0.0,0.0,0.0,0.0,0.0,0.0,0.0,0.0,0.0,-0.5001,-0.4734,0.0,0.0,0.0,-0.7128,-0.859,0.0,0.0,0.0,0.0,0.0,0.0,0.0,0.0,0.0,0.0,0.0,0.0,0.0,0.0,0.0,0.0,0.0,0.0,0.0,0.0,0.0,0.0,0.0,0.0,0.0,0.0,0.0,0.0,0.0,0.0,0.0,0.0,0.0,0.0,0.0,0.0,0.0,0.0,0.0,0.0,0.0,0.0,0.0,0.0,0.0,0.0,0.0,0.0,0.0,0.0,0.0,0.0,0.0,0.0,0.0,0.0,0.0,-0.9909,-1.0092,-1.0259,-1.0463,-1.0103,-1.0272,-1.1141,-1.1542,0.0,0.0,0.0,0.0,0.0,0.0,0.0,0.0,0.0,0.0,0.0,0.0,0.0,0.0,0.0,0.0,0.0,0.0,0.0,0.0,0.0,0.0,0.0,0.0,0.0,0.0,0.0,-0.6447,0.0,0.0,0.0,0.0,0.0,0.0,0.0,0.0,0.0,0.0,0.0,0.0,0.0,0.0,-0.4563,-0.5378,-0.5056,-0.5439,0.0,0.0,-0.7343,-0.859,-0.8808,-0.8808,0.0,0.0,0.0,0.0,0.0,0.0,0.0,0.0,0.0,0.0,0.0,0.0,0.0,0.0,0.0,0.0,0.0,0.0,0.0,0.0,0.0,0.0,0.0,0.0,0.0,0.0,0.0,0.0,0.0,0.0,0.0,0.0,0.0,0.0,0.0,0.0,0.0,0.0,0.0,0.0,0.0,0.0,0.0,0.0,0.0,0.0,0.0,0.0,0.0,0.0,0.0,0.0,0.0,0.0,0.0,-1.0003,-1.0936,-1.1296,-1.0985,-1.0905,-1.1135,-1.1626,-1.1676,-1.1956,0.0,0.0,0.0,0.0,0.0,0.0,0.0,0.0,0.0,0.0,0.0,0.0,0.0,0.0,0.0,0.0,0.0,0.0,0.0,0.0,0.0,0.0,0.0,0.0,0.0,0.0,0.0,0.0,0.0,0.0,0.0,0.0,0.0,0.0,0.0,0.0,0.0,0.0,0.0,0.0,0.0,-0.4734,-0.5378,-0.5431,-0.5977,0.0,0.0,-0.7883,-0.8695,-0.8808,-0.8808,-0.8808,0.0,0.0,0.0,0.0,0.0,0.0,0.0,0.0,0.0,0.0,0.0,0.0,0.0,0.0,0.0,0.0,0.0,0.0,0.0,0.0,0.0,0.0,0.0,0.0,0.0,0.0,0.0,0.0,0.0,0.0,0.0,0.0,0.0,0.0,0.0,0.0,0.0,0.0,0.0,0.0,0.0,0.0,0.0,0.0,0.0,0.0,0.0,0.0,0.0,0.0,0.0,0.0,0.0,-1.0775,-1.0172,-1.1397,-1.1701,-1.1056,-1.1319,-1.1563,-1.1696,-1.1684,-1.2172,0.0,0.0,0.0,0.0,0.0,0.0,0.0,0.0,0.0,0.0,0.0,0.0,0.0,0.0,0.0,0.0,0.0,0.0,0.0,0.0,0.0,0.0,0.0,0.0,0.0,0.0,0.0,0.0,-0.66,-0.6449,-0.6368,0.0,0.0,0.0,0.0,0.0,0.0,0.0,0.0,0.0,0.0,-0.5198,-0.5483,-0.5871,0.0,0.0,-0.767,-0.794,-0.8695,-0.8808,-0.8808,-0.8808,-0.8921,0.0,0.0,0.0,0.0,0.0,0.0,0.0,0.0,0.0,0.0,0.0,0.0,0.0,0.0,0.0,0.0,0.0,0.0,0.0,0.0,0.0,0.0,0.0,0.0,0.0,0.0,0.0,0.0,0.0,0.0,0.0,0.0,0.0,0.0,0.0,0.0,0.0,0.0,0.0,0.0,0.0,0.0,0.0,0.0,0.0,0.0,0.0,0.0,0.0,0.0,0.0,0.0,-1.1066,-1.071,-1.1747,-1.2024,-1.1447,-1.1799,-1.1891,-1.1702,-1.195,-1.2462,0.0,0.0,0.0,0.0,0.0,0.0,0.0,0.0,0.0,0.0,0.0,0.0,0.0,0.0,0.0,0.0,0.0,0.0,0.0,0.0,0.0,0.0,0.0,0.0,0.0,0.0,0.0,0.0,-0.7273,-0.7077,-0.683,0.0,0.0,0.0,0.0,0.0,0.0,0.0,0.0,0.0,0.0,-0.6013,-0.6138,-0.6578,-0.7182,-0.7937,-0.8049,-0.8209,-0.8755,-0.9106,-0.9302,-0.9294,0.0,0.0,0.0,0.0,0.0,0.0,0.0,0.0,0.0,0.0,0.0,0.0,0.0,0.0,0.0,0.0,0.0,0.0,0.0,0.0,0.0,0.0,0.0,0.0,0.0,0.0,0.0,0.0,0.0,0.0,-1.4708,0.0,0.0,0.0,0.0,0.0,0.0,0.0,0.0,0.0,0.0,0.0,0.0,0.0,0.0,0.0,0.0,0.0,0.0,0.0,0.0,0.0,0.0,-1.1984,-1.1687,-1.2105,-1.2383,-1.2466,-1.2461,-1.2225,-1.1669,-1.2498,-1.2737,-1.2301,0.0,0.0,0.0,0.0,0.0,0.0,0.0,0.0,0.0,0.0,0.0,0.0,0.0,0.0,0.0,0.0,0.0,0.0,0.0,0.0,0.0,0.0,0.0,0.0,0.0,0.0,-0.927,-0.8198,-0.7344,0.0,0.0,0.0,0.0,0.0,0.0,0.0,0.0,0.0,0.0,-0.6362,-0.7212,-0.7566,-0.7667,-0.7937,-0.8639,-0.8755,-0.8755,-0.8814,-0.9718,-1.0458,0.0,0.0,0.0,0.0,0.0,0.0,0.0,0.0,0.0,0.0,0.0,0.0,0.0,0.0,0.0,0.0,0.0,0.0,0.0,0.0,0.0,0.0,0.0,0.0,0.0,0.0,0.0,-1.8693,-1.8397,0.0,0.0,0.0,0.0,0.0,0.0,0.0,0.0,0.0,0.0,0.0,-1.3885,-1.4152,0.0,0.0,0.0,0.0,0.0,0.0,0.0,0.0,0.0,0.0,0.0,0.0,-1.2867,-1.1825,-1.2862,-1.3242,-1.2928,-1.3272,-1.3084,-1.2359,-1.2643,-1.285,-1.2925,0.0,0.0,0.0,0.0,0.0,0.0,0.0,0.0,0.0,0.0,0.0,0.0,0.0,0.0,0.0,0.0,0.0,0.0,0.0,0.0,0.0,0.0,0.0,0.0,0.0,-0.9937,0.0,0.0,0.0,0.0,0.0,0.0,0.0,0.0,0.0,0.0,0.0,-0.6696,-0.6547,-0.7303,-0.7775,-0.7696,-0.8106,-0.8533,0.0,0.0,0.0,0.0,0.0,0.0,0.0,0.0,0.0,0.0,0.0,0.0,0.0,0.0,-1.3823,-1.2342,-1.1867,-1.1703,-1.1692,0.0,0.0,0.0,0.0,0.0,0.0,0.0,0.0,0.0,0.0,0.0,0.0,0.0,0.0,-1.9779,0.0,-1.8179,0.0,0.0,0.0,0.0,0.0,0.0,0.0,0.0,-1.5169,-1.5205,-1.5223,-1.5307,-1.5344,0.0,-1.5344,-1.4858,0.0,0.0,0.0,0.0,0.0,0.0,0.0,0.0,-1.3714,-1.2581,-1.362,-1.3925,-1.3427,-1.3861,-1.3652,-1.2747,-1.2613,-1.296,-1.3784,-1.4872,-1.5559,0.0,0.0,0.0,0.0,0.0,0.0,0.0,0.0,0.0,0.0,0.0,0.0,0.0,0.0,0.0,0.0,0.0,0.0,0.0,0.0,0.0,0.0,0.0,-0.9964,0.0,0.0,0.0,0.0,0.0,0.0,0.0,0.0,0.0,-0.6576,-0.7214,-0.7712,-0.7659,-0.8285,-0.8614,-0.8275,0.0,0.0,0.0,0.0,0.0,0.0,0.0,-1.0969,-1.2257,-1.2493,-1.2629,-1.3099,-1.3932,-1.4511,-1.4286,0.0,0.0,-1.3532,-1.3042,-1.2828,-1.2858,-1.2833,-1.2772,-1.2634,-1.282,-1.2884,0.0,0.0,0.0,0.0,0.0,0.0,0.0,0.0,-2.0692,-1.9959,0.0,-1.8364,0.0,0.0,0.0,0.0,0.0,-1.8104,0.0,0.0,-1.7511,-1.7347,-1.7258,-1.6782,-1.6552,-1.6552,-1.6552,-1.6231,-1.5684,-1.5116,0.0,0.0,0.0,0.0,0.0,0.0,-1.453,-1.4043,-1.4467,-1.4421,-1.3974,-1.431,-1.3951,-1.2796,-1.2483,-1.3139,-1.467,-1.4775,-1.5104,-1.5754,-1.5799,0.0,0.0,0.0,0.0,0.0,0.0,0.0,0.0,0.0,0.0,0.0,0.0,0.0,0.0,0.0,0.0,0.0,0.0,0.0,0.0,-1.1417,0.0,0.0,0.0,0.0,0.0,0.0,0.0,0.0,0.0,0.0,-0.7482,-0.8253,-0.8927,-0.8688,0.0,0.0,0.0,0.0,-0.9057,-0.9714,-0.9825,-1.0095,-1.0749,-1.2047,-1.2987,-1.3123,0.0,0.0,-1.4347,-1.4877,-1.5133,-1.4415,-1.4853,-1.5391,-1.5298,-1.4653,-1.415,-1.4145,-1.4118,-1.4048,-1.3785,-1.4093,-1.4457,-1.9006,0.0,0.0,0.0,0.0,-2.0117,-2.0528,-2.1343,-2.0393,-2.0041,-2.0064,-1.9499,0.0,0.0,0.0,0.0,0.0,0.0,-1.8437,-1.8095,-1.7919,-1.786,-1.786,-1.77,-1.7632,-1.7626,-1.7632,-1.7533,-1.7364,-1.7188,-1.6527,-1.5385,0.0,0.0,0.0,0.0,-1.6432,-1.5101,-1.5524,-1.5482,-1.478,-1.489,-1.4471,-1.3509,-1.3392,-1.3589,-1.4087,-1.4543,-1.5089,-1.5761,-1.5814,0.0,0.0,0.0,0.0,0.0,0.0,0.0,0.0,0.0,0.0,0.0,0.0,0.0,0.0,0.0,0.0,0.0,0.0,0.0,-1.2173,-1.1706,-1.1206,0.0,0.0,0.0,0.0,0.0,0.0,0.0,0.0,0.0,-0.9398,-0.9525,-0.9746,0.0,0.0,-0.9768,-0.9936,-0.9691,-0.9721,-1.0407,-1.0733,0.0,0.0,-1.188,-1.229,-1.3596,-1.4449,-1.4882,-1.4655,-1.5037,-1.5337,-1.5095,-1.5002,-1.4975,-1.4941,-1.4791,-1.4616,-1.4619,-1.4393,-1.4116,-1.3982,-1.4147,-1.4169,-2.0014,-1.9493,-2.0072,-2.0468,-2.0677,-2.0266,-2.0557,-2.1261,-2.0445,-2.0183,-2.0288,-1.9869,-1.9697,-1.9697,-1.9697,0.0,0.0,0.0,-1.9016,-1.8745,-1.8494,-1.8412,-1.8419,-1.8192,-1.8099,-1.8099,-1.8099,-1.8104,-1.8089,-1.8329,-1.7806,-1.6664,0.0,0.0,-1.7088,-1.776,-1.7454,-1.6244,-1.6407,-1.6209,-1.5499,-1.5301,-1.4927,-1.4412,-1.4265,-1.4331,-1.4594,-1.4978,-1.5509,-1.616,-1.6199,-1.6128,0.0,0.0,0.0,0.0,0.0,0.0,0.0,0.0,0.0,0.0,0.0,-1.4833,-1.3968,0.0,0.0,0.0,-1.3231,-1.2978,-1.23,-1.1969,0.0,0.0,0.0,0.0,0.0,0.0,0.0,-1.1407,-1.1721,-1.1775,-1.1193,-1.1059,-1.0852,-1.0554,-1.0284,-1.0268,-1.0651,0.0,-1.0448,-1.1107,-1.1362,-1.1774,-1.2531,-1.2394,-1.262,-1.3903,-1.4332,-1.4516,-1.4527,-1.4741,-1.4854,-1.4841,-1.4675,-1.4513,-1.4497,-1.4394,-1.434,-1.4508,-1.4289,-1.4083,-1.3908,-1.3876,-1.376,-2.0915,-2.0314,-1.9945,-2.0173,-2.079,-2.0753,-2.076,-2.0813,-2.0753,-2.0369,-1.979,-1.9818,-1.9811,-1.9818,-1.9841,0.0,-1.9805,-1.9747,-1.9747,-1.9732,-1.9199,-1.8968,-1.893,-1.8458,-1.8217,-1.8256,-1.8249,-1.8263,-1.8305,-1.8764,-1.8772,-1.8317,-1.8276,-1.826,-1.8217,-1.8256,-1.7988,-1.7469,-1.7205,-1.6768,-1.6182,-1.5664,-1.5384,-1.5314,-1.5042,-1.5163,-1.5751,-1.5799,-1.6104,-1.6741,-1.6789,-1.6659,-1.6348,0.0,0.0,0.0,0.0,0.0,0.0,0.0,0.0,0.0,0.0,0.0,0.0,0.0,0.0,0.0,-1.4182,0.0,-1.2949,-1.2299,0.0,0.0,0.0,-1.1714,-1.1761,-1.2393,-1.2628,-1.2294,0.0,0.0,-1.2572,-1.2398,-1.2055,-1.132,-1.0948,-1.0887,-1.1324,-1.1093,-1.1126,-1.181,-1.1864,-1.2133,-1.2778,-1.3093,-1.3428,-1.3829,-1.4043,-1.4086,-1.412,-1.421,-1.4159,-1.4302,-1.4215,-1.4222,-1.4149,-1.3859,-1.3621,-1.3965,-1.3966,-1.3851,-1.3541,-1.3476,-1.335,-2.0964,-2.0821,-2.0723,-2.1067,-2.1623,-2.1145,-2.1232,-2.1623,-2.1153,-2.0838,-2.0673,-2.0714,-2.0714,-2.0706,-2.0906,-2.087,-2.0683,-2.0331,-2.0154,-2.0127,-1.973,-1.9522,-1.9522,-1.9361,-1.9332,-1.9354,-1.9643,-1.9762,-1.9768,-1.9923,-2.0096,-2.0272,-1.9963,-1.9606,-1.9266,-1.9613,-1.9473,-1.8928,-1.8578,-1.7827,-1.6679,-1.6502,-1.6195,-1.5695,-1.5598,-1.5654,-1.5783,-1.5799,-1.6104,-1.6749,-1.6789,-1.6755,-1.6686,-1.6429,0.0,0.0,0.0,0.0,0.0,0.0,0.0,0.0,0.0,-1.631,-1.4951,0.0,-1.5056,0.0,-1.4178,-1.3542,-1.2949,-1.2749,0.0,0.0,-1.3039,-1.3268,-1.3957,-1.4138,-1.3993,-1.3326,-1.3363,-1.3033,-1.203,-1.1881,-1.191,-1.2001,-1.1506,-1.1372,-1.1952,-1.1754,-1.1804,-1.2433,-1.2613,-1.272,-1.2881,-1.2959,-1.3076,-1.3159,-1.3447,-1.3651,-1.3654,-1.4322,-1.4862,-1.4851,-1.4931,-1.4826,-1.4402,-1.4006,-1.359,-1.3293,-1.3184,-1.3184,-1.3052,-1.3062,-1.3037,-2.1275,-2.1275,-2.1477,-2.1784,-2.2081,-2.1327,-2.1215,-2.151,-2.1159,-2.0999,-2.0999,-2.0999,-2.0999,-2.1015,-2.1143,-2.1151,-2.098,-2.0738,-2.0618,-2.0611,-2.039,-2.0166,-1.9965,-2.0174,-2.0174,-1.9965,-2.039,-2.0595,-2.0607,-2.0631,-2.0748,-2.0983,-2.0739,-2.0574,-2.0479,-2.0567,-2.0443,-2.0114,-1.9317,-1.8359,-1.7337,-1.7113,-1.684,-1.6507,-1.6625,-1.6695,-1.6695,-1.7007,-1.7214,-1.724,-1.7568,-1.7657,-1.7513,-1.735,-1.7327,0.0,0.0,0.0,0.0,0.0,0.0,0.0,0.0,0.0,0.0,0.0,-1.5359,-1.4755,-1.4655,-1.437,-1.3768,-1.3468,-1.3385,-1.3629,-1.3539,-1.3722,-1.4175,-1.4385,-1.4323,-1.3867,-1.3816,-1.3542,-1.2832,-1.2629,-1.2571,-1.2801,-1.2374,-1.2129,-1.2489,-1.2372,-1.2434,-1.2818,-1.2886,-1.2886,-1.2886,-1.3109,-1.3339,-1.3344,-1.3715,-1.4028,-1.4047,-1.4513,-1.4949,-1.4915,-1.4963,-1.4949,-1.4611,-1.4379,-1.4057,-1.3845,-1.3724,-1.3615,-1.3351,-1.3499,-1.368,-2.1705,-2.1735,-2.2183,-2.2349,-2.2304,-2.1574,-2.1228,-2.1158,-2.1166,-2.1166,-2.1166,-2.1174,-2.1158,-2.1166,-2.1174,-2.1166,-2.1166,-2.1086,-2.1063,-2.1055,-2.1031,-2.0789,-2.0416,-2.0789,-2.0789,-2.0424,-2.0846,-2.1087,-2.1079,-2.107,-2.1094,-2.1165,-2.1085,-2.1304,-2.1706,-2.1383,-2.1156,-2.1005,-1.9766,-1.8744,-1.8036,-1.7666,-1.7451,-1.7376,-1.765,-1.7789,-1.7805,-1.8513,-1.8606,-1.8022,-1.8648,-1.8908,-1.8634,-1.8583,-1.87,0.0,-1.9026,0.0,0.0,0.0,0.0,0.0,0.0,0.0,0.0,-1.6009,-1.5454,-1.488,-1.5291,-1.5371,-1.476,-1.422,-1.3941,-1.3979,-1.3838,-1.376,-1.3845,-1.4064,-1.4213,-1.4154,-1.4101,-1.4027,-1.3992,-1.3766,-1.3539,-1.3614,-1.3399,-1.317,-1.3154,-1.2969,-1.292,-1.307,-1.3162,-1.3296,-1.3296,-1.3605,-1.3915,-1.3952,-1.4296,-1.4713,-1.4639,-1.4777,-1.4807,-1.4856,-1.4954,-1.4949,-1.4835,-1.4846,-1.4769,-1.4638,-1.4678,-1.4573,-1.4133,-1.4252,-1.4698,-2.2163,-2.2192,-2.2501,-2.2643,-2.2626,-2.2737,-2.2494,-2.2049,-2.2057,-2.2049,-2.2049,-2.2049,-2.204,-2.204,-2.204,-2.2057,-2.202,-2.1658,-2.1499,-2.1469,-2.115,-2.0967,-2.0862,-2.0959,-2.0959,-2.0894,-2.129,-2.1499,-2.148,-2.1488,-2.1695,-2.2023,-2.1672,-2.1826,-2.246,0.0,0.0,0.0,-2.0524,-1.9712,-1.8783,-1.8622,-1.8301,-1.7737,-1.7766,0.0,-1.7814,-1.8521,-1.8834,-1.8716,-1.9376,0.0,0.0,0.0,0.0,0.0,0.0,0.0,0.0,0.0,0.0,0.0,-1.8738,-1.8086,-1.6639,-1.6401,-1.6101,-1.5493,-1.5525,-1.5331,-1.4772,-1.4614,-1.4677,-1.4959,-1.4963,-1.5116,-1.5463,-1.5163,-1.4785,-1.4377,-1.3906,-1.3683,-1.386,-1.3765,-1.3928,-1.4338,-1.4412,-1.4352,-1.4333,-1.355,-1.3301,-1.4113,-1.4247,-1.434,-1.4387,-1.4427,-1.4514,-1.4536,-1.4605,-1.4719,-1.4773,-1.5163,-1.5411,-1.5419,-1.5836,-1.597,-1.5505,-1.5454,-1.5299,-1.4815,-1.5108,-1.5254,-1.467,-1.4615,-1.4729,-2.2607,0.0,-2.2881,-2.2939,0.0,-2.3117,-2.3047,-2.2747,-2.2756,-2.2756,-2.273,-2.2747,-2.2764,-2.2764,-2.2756,-2.273,-2.2747,-2.2485,-2.2307,-2.2122,-2.1943,-2.166,-2.1306,-2.1532,-2.1524,-2.1346,-2.1874,-2.2131,-2.2151,-2.2311,-2.2521,-2.273,-2.2505,-2.2573,-2.2939,-2.293,-2.2698,-2.2192,-2.1601,-2.1024,-2.0483,-2.013,-1.9747,-1.9391,0.0,0.0,0.0,0.0,0.0,0.0,0.0,0.0,0.0,0.0,0.0,-2.0849,-2.0719,-2.0574,-2.0493,-2.0321,-2.0032,-1.9606,-1.917,-1.8331,-1.701,-1.6907,-1.6655,-1.6089,-1.6046,-1.5941,-1.5632,-1.532,-1.523,-1.5395,-1.5185,-1.5115,-1.5296,-1.5121,-1.4823,-1.4606,-1.4265,-1.4121,-1.4237,-1.4263,-1.4343,-1.465,-1.471,-1.4839,-1.5017,-1.437,-1.4071,-1.4617,-1.4703,-1.4703,-1.4749,-1.5011,-1.5147,-1.5186,-1.5377,-1.5582,-1.556,-1.583,-1.6034,-1.6046,-1.6318,-1.6386,-1.6145,-1.6058,-1.5964,-1.5688,-1.5826,-1.5947,-1.5641,-1.56,-1.5561,-2.2947,-2.3198,-2.3268,-2.3282,-2.3291,-2.3355,-2.3378,-2.336,0.0,0.0,0.0,-2.3215,-2.3215,-2.3189,-2.3248,-2.3215,-2.3189,-2.3189,-2.3045,-2.2788,-2.2806,-2.2468,-2.1911,-2.2271,-2.2262,-2.194,-2.2495,-2.279,-2.2809,-2.3069,-2.3197,-2.3193,-2.3195,-2.3216,-2.3282,-2.3355,-2.3369,-2.3333,-2.2678,-2.2171,-2.1888,-2.1301,-2.0838,-2.0581,-2.0726,-2.0788,-2.0806,-2.1381,-2.1429,-2.0845,-2.1207,-2.147,-2.1461,-2.1425,-2.1651,-2.2251,-2.2319,-2.2115,-2.162,-2.1275,-2.0854,-2.034,-1.96,-1.8712,-1.7666,-1.7504,-1.7229,-1.6674,-1.6633,-1.6609,-1.6528,-1.6046,-1.577,-1.5752,-1.5326,-1.5028,-1.5028,-1.4926,-1.492,-1.4841,-1.4766,-1.4766,-1.4817,-1.4863,-1.4915,-1.4988,-1.5142,-1.5191,-1.5592,-1.5339,-1.4966,-1.4926,-1.5062,-1.5062,-1.5107,-1.5421,-1.5732,-1.577,-1.6151,-1.6485,-1.6528,-1.6528,-1.6528,-1.6466,-1.6528,-1.6479,-1.6485,-1.6479,-1.6528,-1.6528,-1.6528,-1.6528,-1.6528,-1.6485,-1.6442,-2.3174,-2.3221,-2.3513,-2.364,-2.3631,-2.3955,-2.4065,-2.4016,-2.3468,-2.3189,-2.3198,-2.3386,-2.3354,-2.3206,-2.3386,-2.3345,-2.3198,-2.3189,-2.3174,0.0,-2.3117,-2.3085,-2.2979,-2.3054,-2.3054,-2.2988,-2.3093,-2.3135,-2.3131,-2.3184,-2.32,-2.3202,-2.3189,-2.3345,-2.3626,-2.3917,-2.4065,-2.4036,-2.3383,-2.2415,-2.1112,-2.0953,-2.0271,-1.9038,-1.9672,-1.9974,-1.9992,-2.1303,-2.1989,-2.1892,-2.2265,-2.2496,-2.247,-2.2274,-2.22,-2.2302,-2.2319,-2.2106,-2.1658,-2.1568,-2.1165,-2.0382,-2.0162,-1.97,-1.8772,-1.827,-1.7754,-1.7236,-1.718,-1.6995,-1.6553,-1.6447,-1.6392,-1.6374,-1.6287,-1.6244,-1.6201,-1.5738,-1.5454,-1.5454,-1.5011,-1.4954,-1.54,-1.5486,-1.5643,-1.61,-1.6059,-1.625,-1.6268,-1.6318,-1.6014,-1.5682,-1.5914,-1.6201,-1.6113,-1.6293,-1.6337,-1.6374,-1.6436,-1.6528,-1.6528,-1.6528,-1.6528,-1.6528,-1.6528,-1.6528,-1.6528,-1.6528,-1.6528,-1.6528,-1.6528,-1.6528,-1.6528,-1.6528,-1.6528,-2.3315,-2.312,-2.3251,-2.3113,-2.2822,-2.3529,-2.4092,-2.4484,-2.4201,-2.3956,-2.3774,-2.3856,-2.3847,-2.3762,-2.3838,-2.3828,-2.3744,-2.3744,-2.364,-2.3491,-2.3468,-2.3369,-2.3212,-2.3189,-2.3255,-2.3361,-2.3545,-2.3687,-2.3815,-2.3992,-2.4075,-2.407,-2.4066,-2.4086,-2.4146,-2.4381,-2.4528,-2.4502,-2.3992,-2.3392,-2.2707,-2.268,-2.2128,-2.1015,-2.1341,-2.1541,-2.1522,-2.2039,-2.2511,-2.2953,-2.2956,-2.288,-2.2721,-2.2755,-2.2651,-2.233,-2.2436,-2.2364,-2.1995,-2.1739,-2.1329,-2.0723,-2.0442,-2.0128,-1.97,-1.8977,-1.8334,-1.7794,-1.7752,-1.7663,-1.7365,-1.7109,-1.6948,-1.6928,-1.6674,-1.6528,-1.6479,-1.6287,-1.6101,-1.6051,-1.5832,-1.5786,-1.606,-1.6078,-1.6142,-1.6491,-1.6528,-1.6534,-1.6528,-1.6522,-1.6429,-1.6151,-1.6331,-1.6479,-1.6528,-1.6528,-1.6528,-1.6528,-1.6528,-1.6528,-1.6528,-1.6534,-1.6534,-1.6528,-1.6528,-1.6528,-1.6528,-1.6528,-1.6528,-1.6528,-1.6528,-1.6528,-1.6528,-1.6528,-1.6528,-2.3731,-2.3397,-2.3388,-2.3093,-2.2712,-2.346,-2.4195,-2.4785,-2.4813,-2.4623,-2.4366,-2.4339,-2.4321,-2.433,-2.433,-2.4339,-2.433,-2.433,-2.4201,-2.3973,-2.3945,-2.3806,-2.3581,-2.3541,-2.3641,-2.3808,-2.4045,-2.4264,-2.4423,-2.4679,-2.4804,-2.4808,-2.4818,-2.4706,-2.4568,-2.4725,-2.4813,-2.479,-2.4486,-2.4229,-2.4034,-2.4044,-2.3665,-2.2926,-2.3018,-2.311,-2.3084,-2.3014,-2.3244,-2.3826,-2.3526,-2.3189,-2.2947,-2.3093,-2.2989,-2.2571,-2.2704,-2.2686,-2.2398,-2.2015,-2.1568,-2.1158,-2.0707,-2.0408,-2.0238,-1.9543,-1.8848,-1.839,-1.8275,-1.8242,-1.8042,-1.7733,-1.7467,-1.7463,-1.7111,-1.6873,-1.6716,-1.6686,-1.6595,-1.6552,-1.6595,-1.665,-1.6713,-1.6777,-1.6845,-1.6715,-1.6689,-1.667,-1.6693,-1.6685,-1.6725,-1.6782,-1.6674,-1.6522,-1.6528,-1.6528,-1.6565,-1.6631,-1.6699,-1.6811,-1.686,-1.6908,-1.6878,-1.6937,-1.6915,-1.6957,-1.6873,-1.6915,-1.6957,-1.6999,-1.6993,-1.6899,-1.6775,-1.6871,-1.6761,-2.464,-2.4633,-2.458,-2.4619,-2.4473,-2.4606,-2.4705,-2.4809,-2.4813,-2.479,-2.4746,-2.4746,-2.4746,-2.4746,-2.4731,-2.4731,-2.4731,-2.4746,-2.4706,-2.4672,-2.4687,-2.4663,-2.4607,-2.4632,-2.4663,-2.4653,-2.4693,-2.4716,-2.4745,-2.4806,-2.4824,-2.4815,-2.4812,-2.4804,-2.4775,-2.4795,-2.4813,-2.4813,-2.476,-2.435,-2.3606,-2.3564,-2.3177,-2.2399,-2.3083,-2.3451,-2.3441,-2.401,-2.4342,-2.4381,-2.3923,-2.364,-2.3588,-2.336,-2.3183,-2.3111,-2.3117,-2.303,-2.2686,-2.2409,-2.2032,-2.156,-2.1173,-2.0756,-2.0382,-1.9894,-1.9398,-1.8984,-1.8832,-1.8659,-1.82,-1.8047,-1.8019,-1.8032,-1.79,-1.778,-1.7305,-1.7242,-1.7028,-1.6552,-1.6957,-1.7231,-1.7251,-1.7555,-1.7669,-1.7284,-1.7248,-1.7238,-1.7214,-1.7216,-1.7377,-1.7599,-1.7188,-1.6631,-1.6607,-1.6522,-1.6791,-1.7133,-1.7229,-1.7363,-1.765,-1.7817,-1.7909,-1.7645,-1.7799,-1.7785,-1.782,-1.794,-1.786,-1.774,-1.772,-1.7727,-1.7456,-1.7527,-1.7505,-2.4426,-2.4087,-2.4639,-2.4612,-2.4249,-2.4333,-2.4654,-2.5103,-2.5113,-2.5113,-2.5101,-2.5103,-2.4994,-2.4813,-2.4813,-2.4813,-2.4813,-2.4813,-2.4813,-2.4813,-2.4813,-2.4813,-2.4813,-2.4813,-2.4851,-2.4907,-2.493,-2.4968,-2.5082,-2.5091,-2.5045,-2.4937,-2.5034,-2.5046,-2.4943,-2.5037,-2.5113,-2.5103,-2.5103,-2.4922,-2.4595,-2.4375,-2.3874,-2.3137,-2.3326,-2.3506,-2.352,-2.378,-2.415,-2.4613,-2.4454,-2.421,-2.3888,-2.3926,-2.3726,-2.325,-2.3189,-2.3045,-2.2729,-2.2591,-2.2383,-2.204,-2.1598,-2.1267,-2.107,-2.0698,-2.0261,-1.9806,-1.9533,-1.9295,-1.9059,-1.8772,-1.86,-1.8552,-1.8295,-1.802,-1.782,-1.778,-1.7666,-1.7504,-1.7626,-1.7781,-1.7814,-1.795,-1.8003,-1.7818,-1.7773,-1.7785,-1.7774,-1.7778,-1.7869,-1.7981,-1.77,-1.7504,-1.7407,-1.7427,-1.7547,-1.7686,-1.7751,-1.7909,-1.8057,-1.811,-1.8085,-1.8126,-1.8177,-1.8173,-1.8025,-1.8085,-1.8099,-1.8138,-1.8099,-1.7935,-1.7413,-1.7712,-1.7692,-2.4496,-2.4141,-2.474,-2.4705,-2.423,-2.4361,-2.4755,-2.5245,-2.5303,-2.5303,-2.5322,-2.5313,-2.5189,-2.4987,-2.4932,-2.4942,-2.4951,-2.4923,-2.4923,-2.4945,-2.4942,-2.4936,-2.4932,-2.4923,-2.4987,-2.5086,-2.5117,-2.5201,-2.5341,-2.5351,-2.5284,-2.5187,-2.5293,-2.5291,-2.5168,-2.5301,-2.5361,-2.5351,-2.5351,-2.5351,-2.5302,-2.5096,-2.4661,-2.4062,-2.3996,-2.3999,-2.3996,-2.3939,-2.4187,-2.4818,-2.4823,-2.4632,-2.4271,-2.4456,-2.4264,-2.3642,-2.3419,-2.3198,-2.2839,-2.2746,-2.2581,-2.2321,-2.1869,-2.162,-2.1529,-2.1244,-2.0862,-2.0524,-2.025,-2.0007,-1.9654,-1.9354,-1.913,-1.9095,-1.8734,-1.8496,-1.8334,-1.8302,-1.8256,-1.8138,-1.8178,-1.8412,-1.8496,-1.8581,-1.8553,-1.8358,-1.8313,-1.831,-1.8305,-1.8325,-1.8367,-1.8489,-1.8528,-1.8373,-1.8166,-1.8011,-1.8113,-1.8321,-1.8342,-1.8375,-1.8474,-1.8559,-1.8542,-1.8857,-1.8629,-1.8571,-1.874,-1.8643,-1.8535,-1.8535,-1.8535,-1.8334,-1.7994,-1.8249,-1.8254,-2.5254,-2.5196,-2.5264,-2.5235,-2.5235,-2.5226,-2.5235,-2.5322,-2.5313,-2.5351,-2.538,-2.5332,-2.5332,-2.535,-2.5272,-2.5264,-2.5283,-2.5263,-2.5253,-2.5253,-2.5253,-2.5273,-2.5283,-2.5283,-2.5312,-2.5351,-2.5351,-2.5399,-2.5476,-2.5486,-2.5476,-2.5486,-2.5486,-2.5495,-2.5457,-2.5457,-2.5495,-2.5486,-2.5486,-2.5486,-2.5476,-2.5409,-2.5293,-2.5148,-2.5177,-2.5129,-2.5148,-2.5011,-2.4951,-2.4998,-2.4887,-2.4795,-2.4766,-2.4775,-2.4636,-2.4399,-2.3952,-2.3535,-2.3189,-2.2914,-2.2625,-2.2324,-2.194,-2.162,-2.1667,-2.1346,-2.1095,-2.0975,-2.0934,-2.0607,-1.9909,-1.9711,-1.9654,-1.9639,-1.9639,-1.9339,-1.8938,-1.8848,-1.8612,-1.8373,-1.8612,-1.9006,-1.9479,-1.9654,-1.9324,-1.9,-1.8848,-1.8848,-1.888,-1.8863,-1.9053,-1.9375,-1.945,-1.9244,-1.8373,-1.8368,-1.851,-1.8691,-1.8928,-1.9,-1.9359,-1.9639,-1.9566,-1.9522,-1.9419,-1.9396,-1.9565,-1.9566,-1.9493,-1.9457,-1.9376,-1.9177,-1.8548,-1.9169,-1.9155,-2.5341,-2.5428,-2.5418,-2.5438,-2.5428,-2.5428,-2.5418,-2.5418,-2.5438,-2.5428,-2.5457,-2.5449,-2.5434,-2.5447,-2.5438,-2.5409,-2.537,-2.5418,-2.5428,-2.5428,-2.5418,-2.5428,-2.5428,-2.5428,-2.5428,-2.5457,-2.5451,-2.5472,-2.5505,-2.5509,-2.5511,-2.5511,-2.5515,-2.5515,-2.5515,-2.5515,-2.5515,-2.5515,-2.5515,-2.5515,-2.5515,-2.5476,-2.5449,-2.5438,-2.5341,-2.5303,-2.5303,-2.5234,-2.5194,-2.5203,-2.5139,-2.5051,-2.4933,-2.4842,-2.4716,-2.451,-2.4311,-2.4011,-2.361,-2.3423,-2.3111,-2.2599,-2.2431,-2.222,-2.2081,-2.1915,-2.1713,-2.1469,-2.136,-2.111,-2.0632,-2.0269,-2.0089,-2.007,-1.9839,-1.9639,-1.9486,-1.9406,-1.9325,-1.9207,-1.9325,-1.9486,-1.961,-1.9697,-1.9616,-1.9483,-1.941,-1.9375,-1.9398,-1.9433,-1.9491,-1.9652,-1.9697,-1.9574,-1.9281,-1.9162,-1.9244,-1.931,-1.9426,-1.944,-1.9675,-1.969,-1.9646,-1.961,-1.9697,-1.9697,-1.969,-1.969,-1.9697,-1.9682,-1.9682,-1.938,-1.9031,-1.9183,-1.9199,-2.5427,-2.5508,-2.5516,-2.5516,-2.5516,-2.5516,-2.5516,-2.5516,-2.5516,-2.5512,-2.5532,-2.5509,-2.5509,-2.5534,-2.5543,-2.5515,-2.5467,-2.5492,-2.5516,-2.5516,-2.5516,-2.5516,-2.5509,-2.5514,-2.5515,-2.5523,-2.5561,-2.5561,-2.557,-2.5556,-2.5576,-2.5566,-2.5554,-2.5561,-2.5561,-2.5561,-2.5561,-2.5571,-2.5571,-2.5561,-2.5558,-2.555,-2.5522,-2.5523,-2.5425,-2.5358,-2.5332,-2.5341,-2.5322,-2.5303,-2.5303,-2.5234,-2.509,-2.4933,-2.4814,-2.4682,-2.4559,-2.4301,-2.3864,-2.3729,-2.3468,-2.2947,-2.2848,-2.2738,-2.2472,-2.2434,-2.2234,-2.194,-2.184,-2.1683,-2.1424,-2.1015,-2.0608,-2.0348,-2.0062,-1.9846,-1.9718,-1.9697,-1.9697,-1.9654,-1.9654,-1.9697,-1.9697,-1.9697,-1.969,-1.9697,-1.9697,-1.9697,-1.9697,-1.9697,-1.9697,-1.9697,-1.9697,-1.9697,-1.9574,-1.9486,-1.9486,-1.9595,-1.9588,-1.969,-1.9697,-1.9697,-1.9697,-1.9697,-1.9682,-1.969,-1.969,-1.969,-1.9652,-1.9615,-1.9405,-1.906,-1.8895,-1.8856,-1.8748,-2.5532,-2.557,-2.5537,-2.5523,-2.5532,-2.5532,-2.5523,-2.5532,-2.5513,-2.5564,-2.5598,-2.5543,-2.5547,-2.558,-2.5611,-2.5582,-2.5572,-2.5538,-2.5532,-2.5532,-2.5513,-2.5513,-2.5513,-2.5534,-2.555,-2.5596,-2.5665,-2.5684,-2.5684,-2.5674,-2.5674,-2.5693,-2.5674,-2.5674,-2.5693,-2.5674,-2.5684,-2.5684,-2.5674,-2.5693,-2.5693,-2.5629,-2.5597,-2.5596,-2.5541,-2.5467,-2.5409,-2.5409,-2.538,-2.5313,-2.5303,-2.5303,-2.5264,-2.5118,-2.5008,-2.4927,-2.4684,-2.4379,-2.4054,-2.3876,-2.3644,-2.3305,-2.3212,-2.3045,-2.2789,-2.2712,-2.2581,-2.2335,-2.2285,-2.2265,-2.2172,-2.1802,-2.1251,-2.0509,-2.0348,-2.0158,-1.9854,-1.9733,-1.9697,-1.9697,-1.9697,-1.9697,-1.9697,-1.9697,-1.9697,-1.9697,-1.9697,-1.9697,-1.9697,-1.9697,-1.9697,-1.9697,-1.9697,-1.9697,-1.9697,-1.9697,-1.9697,-1.9697,-1.969,-1.9697,-1.9697,-1.9697,-1.9697,-1.9682,-1.9428,-1.9413,-1.9316,-1.9293,-1.9196,-1.9121,-1.8907,-1.8671,-1.8554,-1.8388,-1.8106,-2.5581,-2.5613,-2.5619,-2.5636,-2.5636,-2.5645,-2.5645,-2.5644,-2.5644,-2.5635,-2.5673,-2.5658,-2.5656,-2.5654,-2.5669,-2.5659,-2.5678,-2.5648,-2.5635,-2.5644,-2.5625,-2.5625,-2.5635,-2.5644,-2.5665,-2.5671,-2.5679,-2.5693,-2.5693,-2.5693,-2.5693,-2.5693,-2.5693,-2.5693,-2.5693,-2.5693,-2.5693,-2.5693,-2.5693,-2.5693,-2.5693,-2.5674,-2.5674,-2.5668,-2.5646,-2.5604,-2.5538,-2.5491,-2.5438,-2.537,-2.537,-2.5351,-2.5303,-2.5244,-2.5152,-2.501,-2.4914,-2.4762,-2.4576,-2.4361,-2.4099,-2.3799,-2.3629,-2.3392,-2.3093,-2.3036,-2.2915,-2.2634,-2.259,-2.2527,-2.2313,-2.218,-2.1802,-2.1251,-2.0943,-2.0624,-2.02,-1.9917,-1.9733,-1.9697,-1.9697,-1.9697,-1.9697,-1.9697,-1.9697,-1.9697,-1.9697,-1.9697,-1.9697,-1.9697,-1.9697,-1.9697,-1.9697,-1.9812,-1.9906,-1.9965,-1.9944,-1.9876,-1.9839,-1.9733,-1.9697,-1.9726,-1.9726,-1.9516,-1.9276,-1.9061,-1.8964,-1.8822,-1.8687,-1.8455,-1.8145,-1.803,-1.8004,-1.777,-1.7463,-2.534,-2.5632,-2.5681,-2.5693,-2.5693,-2.5693,-2.5693,-2.5693,-2.5693,-2.5693,-2.5693,-2.5693,-2.5693,-2.5693,-2.5702,-2.5702,-2.57,-2.5693,-2.5693,-2.5693,-2.5693,-2.5693,-2.5693,-2.5693,-2.5693,-2.5693,-2.5693,-2.5693,-2.5693,-2.5693,-2.5693,-2.5693,-2.5693,-2.5693,-2.5693,-2.5693,-2.5693,-2.5693,-2.5693,-2.5693,-2.5693,-2.5693,-2.5693,-2.5693,-2.5697,-2.5668,-2.5649,-2.5593,-2.5532,-2.5458,-2.5436,-2.5399,-2.5341,-2.5341,-2.5282,-2.5131,-2.5034,-2.4959,-2.4883,-2.4697,-2.45,-2.421,-2.407,-2.383,-2.3504,-2.3383,-2.3245,-2.2963,-2.2906,-2.2798,-2.2545,-2.2455,-2.2262,-2.189,-2.1469,-2.1047,-2.0616,-2.0337,-2.012,-2.0038,-1.9944,-1.9873,-1.9756,-1.9697,-1.9697,-1.9697,-1.9697,-1.9697,-1.9697,-1.9697,-1.9762,-1.9889,-1.9972,-2.008,-2.0199,-2.0238,-2.0225,-2.0084,-1.9969,-1.9803,-1.9697,-1.9711,-1.9696,-1.9248,-1.8951,-1.8605,-1.8485,-1.8186,-1.7951,-1.7667,-1.7458,-1.7347,-1.7277,-1.6986,-1.6721,-2.4941,-2.5596,-2.5684,-2.5693,-2.5693,-2.5693,-2.5684,-2.5674,-2.5684,-2.5674,-2.5684,-2.5674,-2.5674,-2.5684,-2.5664,-2.5664,-2.5683,-2.5664,-2.5664,-2.5664,-2.5674,-2.5674,-2.5693,-2.5693,-2.5693,-2.5693,-2.5693,-2.5693,-2.5693,-2.5674,-2.5693,-2.5693,-2.5684,-2.5684,-2.5674,-2.5693,-2.5674,-2.5664,-2.5684,-2.5684,-2.5674,-2.5693,-2.5684,-2.5684,-2.5693,-2.5693,-2.5693,-2.5681,-2.5639,-2.5513,-2.5485,-2.5465,-2.5409,-2.539,-2.537,-2.5273,-2.5111,-2.5046,-2.4996,-2.4887,-2.4736,-2.4547,-2.4474,-2.432,-2.3871,-2.3771,-2.3622,-2.3273,-2.3221,-2.3109,-2.288,-2.2763,-2.2591,-2.2315,-2.1815,-2.1399,-2.1095,-2.0967,-2.0706,-2.0444,-2.0303,-2.0222,-1.9933,-1.9918,-1.988,-1.9904,-1.9912,-1.9978,-1.9952,-2.005,-2.0042,-2.0166,-2.0364,-2.0429,-2.0574,-2.0587,-2.0561,-2.0488,-2.0356,-2.0198,-1.9872,-1.9773,-1.96,-1.914,-1.8502,-1.8182,-1.7849,-1.749,-1.7296,-1.7139,-1.6934,-1.6734,-1.6544,-1.6346,-1.6263,-2.5117,-2.4814,-2.543,-2.5684,-2.5625,-2.562,-2.5594,-2.556,-2.5551,-2.5574,-2.5562,-2.5549,-2.5566,-2.5541,-2.5561,-2.5554,-2.5564,-2.557,-2.5548,-2.5551,-2.5544,-2.5607,-2.5684,-2.5693,-2.5693,-2.5693,-2.5652,-2.5639,-2.5693,-2.5605,-2.5596,-2.5693,-2.561,-2.5572,-2.5628,-2.5627,-2.5597,-2.556,-2.5599,-2.5587,-2.5567,-2.5608,-2.5635,-2.5635,-2.5674,-2.5693,-2.5693,-2.5701,-2.5668,-2.5577,-2.5517,-2.5457,-2.5425,-2.5406,-2.538,-2.5312,-2.5254,-2.5214,-2.5183,-2.5063,-2.4933,-2.4872,-2.4752,-2.4598,-2.4338,-2.4293,-2.405,-2.3708,-2.3575,-2.3437,-2.318,-2.3058,-2.2914,-2.2582,-2.2062,-2.1612,-2.143,-2.1189,-2.0934,-2.0844,-2.0825,-2.0739,-2.0612,-2.0564,-2.0582,-2.0577,-2.0563,-2.0564,-2.0488,-2.0499,-2.0558,-2.0706,-2.0837,-2.0893,-2.0933,-2.0956,-2.0957,-2.0903,-2.0814,-2.0748,-2.0346,-1.9943,-1.9672,-1.927,-1.8047,-1.7488,-1.7018,-1.6615,-1.6548,-1.6578,-1.6376,-1.6181,-1.6099,-1.5956,-1.5986,-2.5012,-2.4914,-2.5412,-2.559,-2.5562,-2.5572,-2.5534,-2.5515,-2.5511,-2.5517,-2.5508,-2.5537,-2.5532,-2.5515,-2.5519,-2.5514,-2.5515,-2.5513,-2.5512,-2.5511,-2.5512,-2.5557,-2.5605,-2.5615,-2.5627,-2.5622,-2.5582,-2.5583,-2.5596,-2.5537,-2.5567,-2.5585,-2.5532,-2.5515,-2.5562,-2.5551,-2.5535,-2.5507,-2.5532,-2.553,-2.5511,-2.5537,-2.5576,-2.5596,-2.5635,-2.5664,-2.5693,-2.5693,-2.5684,-2.5644,-2.5611,-2.5558,-2.5477,-2.5482,-2.5457,-2.539,-2.5361,-2.5351,-2.5312,-2.5192,-2.5088,-2.501,-2.492,-2.4752,-2.4559,-2.4495,-2.4293,-2.3998,-2.3926,-2.3741,-2.3469,-2.3297,-2.3132,-2.2895,-2.2396,-2.2005,-2.1911,-2.1713,-2.1485,-2.1348,-2.1231,-2.1169,-2.1046,-2.1014,-2.1023,-2.0962,-2.0904,-2.091,-2.0935,-2.0999,-2.1086,-2.1229,-2.1323,-2.137,-2.1509,-2.1559,-2.1521,-2.1466,-2.1057,-2.1021,-2.0442,-1.9927,-1.939,-1.8779,-1.767,-1.6832,-1.6503,-1.6216,-1.6069,-1.6053,-1.5836,-1.5814,-1.5814,-1.5814,-1.5814,-2.4783,-2.5361,-2.5449,-2.5482,-2.5493,-2.549,-2.5476,-2.5486,-2.5476,-2.5476,-2.5476,-2.5524,-2.5505,-2.5476,-2.5466,-2.5495,-2.5486,-2.5465,-2.5475,-2.5466,-2.5467,-2.5484,-2.549,-2.5517,-2.5536,-2.5521,-2.5488,-2.5488,-2.55,-2.5492,-2.5493,-2.5492,-2.5495,-2.5495,-2.5495,-2.5485,-2.5485,-2.5467,-2.5469,-2.5457,-2.5475,-2.5481,-2.5512,-2.5557,-2.5586,-2.5635,-2.5684,-2.5693,-2.5693,-2.5693,-2.5693,-2.5654,-2.5596,-2.5605,-2.5567,-2.5503,-2.5427,-2.5389,-2.538,-2.5322,-2.5233,-2.5098,-2.5055,-2.4888,-2.4663,-2.4582,-2.4478,-2.4247,-2.42,-2.4022,-2.3791,-2.347,-2.3322,-2.3207,-2.2947,-2.2652,-2.2426,-2.2338,-2.2143,-2.1739,-2.1678,-2.1465,-2.127,-2.1144,-2.1183,-2.1465,-2.1412,-2.1431,-2.1458,-2.1469,-2.1546,-2.1675,-2.1773,-2.1832,-2.202,-2.2205,-2.2148,-2.2064,-2.1392,-2.0994,-2.0234,-1.9631,-1.899,-1.8253,-1.7467,-1.6857,-1.6412,-1.6141,-1.5913,-1.5814,-1.5814,-1.5814,-1.5814,-1.5814,-1.5814,-2.4956,-2.453,-2.5223,-2.5469,-2.5426,-2.5418,-2.5409,-2.5351,-2.5341,-2.5351,-2.5351,-2.537,-2.537,-2.5361,-2.5361,-2.5351,-2.5351,-2.5361,-2.5341,-2.5332,-2.5341,-2.5341,-2.5366,-2.5432,-2.5491,-2.5471,-2.5444,-2.5437,-2.5455,-2.5393,-2.539,-2.5476,-2.5399,-2.538,-2.5418,-2.5418,-2.539,-2.5359,-2.539,-2.539,-2.537,-2.5409,-2.5427,-2.547,-2.5549,-2.5625,-2.5684,-2.5693,-2.5693,-2.5693,-2.5693,-2.5674,-2.5625,-2.5605,-2.558,-2.5521,-2.5444,-2.5405,-2.538,-2.5351,-2.5303,-2.5234,-2.5203,-2.5141,-2.4937,-2.4776,-2.4654,-2.4453,-2.4303,-2.4182,-2.4033,-2.3775,-2.3628,-2.3538,-2.33,-2.2972,-2.2678,-2.2434,-2.2248,-2.2147,-2.2113,-2.2088,-2.1995,-2.1936,-2.1936,-2.1998,-2.1987,-2.2009,-2.1973,-2.1907,-2.1945,-2.2011,-2.204,-2.2077,-2.2143,-2.2319,-2.2319,-2.2049,-2.1463,-2.0908,-2.0149,-1.9253,-1.8577,-1.8043,-1.7489,-1.6938,-1.6466,-1.6226,-1.6039,-1.5913,-1.5814,-1.5814,-1.5814,-1.5814,-1.5875,-2.5168,-2.4774,-2.5226,-2.539,-2.5361,-2.5361,-2.5332,-2.5313,-2.5303,-2.5303,-2.5303,-2.5303,-2.5303,-2.5303,-2.5303,-2.5303,-2.5303,-2.5303,-2.5303,-2.5303,-2.5303,-2.5303,-2.5303,-2.5351,-2.5399,-2.5409,-2.5361,-2.537,-2.537,-2.5351,-2.5341,-2.5399,-2.5332,-2.5322,-2.5351,-2.5351,-2.5341,-2.5313,-2.5341,-2.5341,-2.5322,-2.5332,-2.538,-2.5423,-2.5537,-2.5615,-2.5654,-2.5693,-2.5693,-2.5693,-2.5693,-2.5684,-2.5644,-2.5644,-2.5625,-2.5595,-2.5528,-2.5504,-2.548,-2.5399,-2.5361,-2.5341,-2.5313,-2.5173,-2.5055,-2.492,-2.4766,-2.4559,-2.4401,-2.4303,-2.419,-2.408,-2.3955,-2.3892,-2.3649,-2.3351,-2.3141,-2.2781,-2.2426,-2.2341,-2.2282,-2.2274,-2.2291,-2.2319,-2.2274,-2.2144,-2.2144,-2.2158,-2.2166,-2.2123,-2.2189,-2.2217,-2.2254,-2.2282,-2.2282,-2.2319,-2.2319,-2.1877,-2.1178,-2.0649,-2.0065,-1.9101,-1.8141,-1.776,-1.7455,-1.7036,-1.6591,-1.6367,-1.6143,-1.5942,-1.5814,-1.5814,-1.5814,-1.5879,-1.5971,-2.5361,-2.5303,-2.5303,-2.5303,-2.5303,-2.5313,-2.5303,-2.5303,-2.5303,-2.5303,-2.5303,-2.5303,-2.5303,-2.5303,-2.5303,-2.5303,-2.5303,-2.5303,-2.5303,-2.5303,-2.5303,-2.5303,-2.5303,-2.5313,-2.5322,-2.5303,-2.5313,-2.5313,-2.5313,-2.5303,-2.5313,-2.5303,-2.5303,-2.5303,-2.5303,-2.5303,-2.5313,-2.5303,-2.5313,-2.5322,-2.5303,-2.5303,-2.5341,-2.5415,-2.5498,-2.5566,-2.5596,-2.5635,-2.5674,-2.5693,-2.5693,-2.5693,-2.5693,-2.5693,-2.5693,-2.5693,-2.5615,-2.5586,-2.5548,-2.5461,-2.5379,-2.539,-2.5332,-2.5234,-2.5109,-2.5008,-2.4872,-2.4682,-2.4538,-2.4413,-2.4266,-2.4181,-2.4162,-2.4142,-2.3917,-2.3774,-2.3597,-2.3141,-2.2738,-2.2462,-2.2409,-2.244,-2.2353,-2.2319,-2.2319,-2.2319,-2.2319,-2.2319,-2.2319,-2.2319,-2.2319,-2.2319,-2.2319,-2.2319,-2.2319,-2.2319,-2.2319,-2.1894,-2.1136,-2.049,-1.9917,-1.8878,-1.8014,-1.7796,-1.7471,-1.7118,-1.686,-1.6688,-1.6421,-1.6047,-1.5993,-1.6169,-1.6113,-1.5972,-1.6082,-2.5303,-2.5303,-2.5303,-2.5303,-2.5303,-2.5303,-2.5303,-2.5303,-2.5303,-2.5303,-2.5303,-2.5303,-2.5303,-2.5303,-2.5303,-2.5303,-2.5303,-2.5303,-2.5303,-2.5303,-2.5303,-2.5303,-2.5303,-2.5303,-2.5303,-2.5303,-2.5303,-2.5303,-2.5303,-2.5303,-2.5303,-2.5303,-2.5303,-2.5303,-2.5303,-2.5303,-2.5303,-2.5303,-2.5303,-2.5303,-2.5303,-2.5313,-2.5332,-2.538,-2.5443,-2.547,-2.5527,-2.5576,-2.5615,-2.5615,-2.5664,-2.5684,-2.5693,-2.5693,-2.5693,-2.5684,-2.5635,-2.5615,-2.5596,-2.5493,-2.5412,-2.537,-2.5341,-2.5303,-2.5214,-2.5118,-2.4996,-2.485,-2.4659,-2.4478,-2.4445,-2.4321,-2.4227,-2.419,-2.4113,-2.3987,-2.3723,-2.3378,-2.3005,-2.2712,-2.2629,-2.2508,-2.2386,-2.2319,-2.2319,-2.2319,-2.2319,-2.2319,-2.2319,-2.231,-2.2302,-2.231,-2.2319,-2.2319,-2.2319,-2.2319,-2.2265,-2.1953,-2.1295,-2.0438,-1.9697,-1.8635,-1.7968,-1.7788,-1.765,-1.7414,-1.7191,-1.6986,-1.6765,-1.6456,-1.6495,-1.6592,-1.6433,-1.6297,-1.63,-2.5303,-2.5303,-2.5303,-2.5303,-2.5303,-2.5303,-2.5303,-2.5303,-2.5303,-2.5303,-2.5303,-2.5303,-2.5303,-2.5303,-2.5303,-2.5303,-2.5303,-2.5303,-2.5303,-2.5303,-2.5303,-2.5303,-2.5303,-2.5303,-2.5303,-2.5303,-2.5303,-2.5303,-2.5303,-2.5303,-2.5303,-2.5303,-2.5303,-2.5303,-2.5303,-2.5303,-2.5303,-2.5303,-2.5303,-2.5303,-2.5303,-2.5303,-2.5322,-2.5341,-2.539,-2.5407,-2.5441,-2.5505,-2.5557,-2.5586,-2.5635,-2.5664,-2.5684,-2.5693,-2.5693,-2.5693,-2.5674,-2.5654,-2.5644,-2.5552,-2.5508,-2.5495,-2.5418,-2.5361,-2.5322,-2.5252,-2.5118,-2.4968,-2.4832,-2.4645,-2.4639,-2.4476,-2.4377,-2.434,-2.4275,-2.4122,-2.3955,-2.3649,-2.3323,-2.2956,-2.2659,-2.2481,-2.2361,-2.2319,-2.2319,-2.2319,-2.2319,-2.2319,-2.2319,-2.231,-2.2302,-2.2379,-2.2388,-2.2358,-2.2338,-2.2319,-2.2319,-2.2015,-2.1449,-2.0617,-1.9816,-1.8875,-1.8223,-1.7848,-1.7704,-1.756,-1.7319,-1.7035,-1.6941,-1.6876,-1.6802,-1.6769,-1.6716,-1.6674,-1.6657,-2.5253,-2.5244,-2.5293,-2.5303,-2.5303,-2.5303,-2.5303,-2.5303,-2.5303,-2.5303,-2.5303,-2.5303,-2.5303,-2.5303,-2.5303,-2.5303,-2.5303,-2.5303,-2.5303,-2.5303,-2.5303,-2.5303,-2.5303,-2.5303,-2.5303,-2.5303,-2.5303,-2.5303,-2.5303,-2.5303,-2.5303,-2.5303,-2.5303,-2.5303,-2.5303,-2.5303,-2.5303,-2.5303,-2.5303,-2.5303,-2.5303,-2.5303,-2.5303,-2.5303,-2.5361,-2.537,-2.537,-2.5446,-2.5502,-2.5548,-2.5596,-2.5635,-2.5684,-2.5693,-2.5693,-2.5693,-2.5693,-2.5693,-2.5674,-2.5625,-2.558,-2.5584,-2.5471,-2.5427,-2.5399,-2.5341,-2.5233,-2.5075,-2.4923,-2.4832,-2.4804,-2.4683,-2.4542,-2.4475,-2.4367,-2.4236,-2.4083,-2.3867,-2.3566,-2.3168,-2.2695,-2.246,-2.2383,-2.2319,-2.2319,-2.2319,-2.2319,-2.2319,-2.2319,-2.2319,-2.2358,-2.2463,-2.2509,-2.2426,-2.2369,-2.2319,-2.2319,-2.2215,-2.1605,-2.0799,-2.0069,-1.9299,-1.8665,-1.7969,-1.7715,-1.7557,-1.7311,-1.7232,-1.7273,-1.7223,-1.7067,-1.7043,-1.7142,-1.7085,-1.7016,-2.5044,-2.5046,-2.5233,-2.5303,-2.5283,-2.5283,-2.5303,-2.5284,-2.5274,-2.5303,-2.5303,-2.5303,-2.5303,-2.5303,-2.5303,-2.5303,-2.5303,-2.5303,-2.5303,-2.5303,-2.5303,-2.5303,-2.5303,-2.5303,-2.5303,-2.5303,-2.5303,-2.5303,-2.5303,-2.5303,-2.5303,-2.5303,-2.5303,-2.5303,-2.5303,-2.5303,-2.5303,-2.5303,-2.5303,-2.5303,-2.5303,-2.5303,-2.5303,-2.5303,-2.5313,-2.5332,-2.5332,-2.538,-2.5434,-2.5447,-2.5541,-2.5596,-2.5625,-2.5674,-2.5693,-2.5693,-2.5693,-2.5693,-2.5693,-2.5654,-2.562,-2.5605,-2.5526,-2.5495,-2.5461,-2.5418,-2.5331,-2.5264,-2.5089,-2.4994,-2.4974,-2.4844,-2.4696,-2.4587,-2.4468,-2.4339,-2.4198,-2.3917,-2.364,-2.3446,-2.2991,-2.2649,-2.2454,-2.2372,-2.2319,-2.2319,-2.2319,-2.2327,-2.2358,-2.2432,-2.2396,-2.2527,-2.2755,-2.2704,-2.2473,-2.2407,-2.2358,-2.2338,-2.1838,-2.108,-2.023,-1.9454,-1.8719,-1.8133,-1.7845,-1.7665,-1.7579,-1.7566,-1.7643,-1.7566,-1.7416,-1.7511,-1.7681,-1.7567,-1.7289,-2.478,-2.491,-2.4965,-2.5009,-2.5012,-2.5028,-2.507,-2.512,-2.5141,-2.5194,-2.5293,-2.5303,-2.5303,-2.5293,-2.5303,-2.5303,-2.5303,-2.5303,-2.5303,-2.5303,-2.5303,-2.5303,-2.5303,-2.5303,-2.5303,-2.5303,-2.5303,-2.5303,-2.5303,-2.5303,-2.5303,-2.5303,-2.5303,-2.5303,-2.5303,-2.5303,-2.5303,-2.5303,-2.5303,-2.5303,-2.5303,-2.5303,-2.5303,-2.5303,-2.5303,-2.5303,-2.5313,-2.5322,-2.537,-2.5399,-2.548,-2.5527,-2.5586,-2.5625,-2.5654,-2.5693,-2.5693,-2.5693,-2.5693,-2.5674,-2.5654,-2.5644,-2.5586,-2.5535,-2.5493,-2.5443,-2.5399,-2.5351,-2.5251,-2.519,-2.5142,-2.5006,-2.4911,-2.4779,-2.4608,-2.4477,-2.4293,-2.3926,-2.3649,-2.35,-2.3341,-2.3028,-2.2719,-2.2521,-2.2439,-2.2361,-2.2389,-2.2409,-2.2533,-2.2704,-2.2643,-2.2573,-2.2849,-2.308,-2.2772,-2.2555,-2.2453,-2.2396,-2.2327,-2.1495,-2.0365,-1.9542,-1.8915,-1.8274,-1.787,-1.7772,-1.7789,-1.7766,-1.7721,-1.7743,-1.7789,-1.7789,-1.7772,-1.753,-1.7289,-2.4502,-2.4654,-2.476,-2.4813,-2.4813,-2.4813,-2.486,-2.4946,-2.4959,-2.503,-2.5168,-2.5248,-2.5298,-2.5292,-2.5292,-2.5301,-2.5303,-2.5303,-2.5303,-2.5303,-2.5303,-2.5303,-2.5303,-2.5303,-2.5303,-2.5303,-2.5303,-2.5303,-2.5303,-2.5303,-2.5303,-2.5303,-2.5303,-2.5303,-2.5303,-2.5303,-2.5303,-2.5303,-2.5303,-2.5303,-2.5303,-2.5303,-2.5303,-2.5303,-2.5303,-2.5303,-2.5303,-2.5303,-2.5332,-2.5361,-2.5399,-2.5463,-2.5527,-2.5576,-2.5625,-2.5664,-2.5674,-2.5693,-2.5693,-2.5693,-2.5693,-2.5684,-2.5654,-2.5588,-2.5545,-2.5478,-2.5436,-2.5428,-2.536,-2.5322,-2.5293,-2.5158,-2.5051,-2.491,-2.4745,-2.4624,-2.4446,-2.4096,-2.3867,-2.3795,-2.3637,-2.344,-2.3119,-2.2799,-2.2594,-2.2479,-2.2451,-2.2473,-2.2694,-2.2958,-2.2933,-2.2832,-2.2989,-2.3239,-2.3063,-2.2789,-2.2651,-2.2533,-2.2447,-2.1934,-2.0832,-1.9996,-1.9361,-1.8722,-1.8042,-1.7797,-1.7789,-1.7789,-1.7789,-1.7789,-1.7789,-1.7789,-1.7707,-1.751,-1.7448,-2.4228,-2.4266,-2.4648,-2.479,-2.4784,-2.4813,-2.4804,-2.4799,-2.4799,-2.4823,-2.4916,-2.5144,-2.5284,-2.5267,-2.5244,-2.5254,-2.5303,-2.5293,-2.5283,-2.5283,-2.5293,-2.5283,-2.5273,-2.5274,-2.5274,-2.5303,-2.5264,-2.5254,-2.5274,-2.5216,-2.5255,-2.5293,-2.5241,-2.5283,-2.5274,-2.5244,-2.5244,-2.5264,-2.5283,-2.5303,-2.5303,-2.5303,-2.5303,-2.5303,-2.5303,-2.5303,-2.5303,-2.5303,-2.5313,-2.5332,-2.5361,-2.539,-2.5456,-2.5518,-2.5586,-2.5605,-2.5654,-2.5674,-2.5684,-2.5693,-2.5693,-2.5693,-2.5684,-2.5644,-2.5605,-2.5596,-2.5557,-2.5487,-2.5425,-2.5399,-2.537,-2.5302,-2.5194,-2.5039,-2.4875,-2.4711,-2.4532,-2.4294,-2.4104,-2.4084,-2.3944,-2.3747,-2.3651,-2.333,-2.2951,-2.2795,-2.2807,-2.2856,-2.2951,-2.3162,-2.3179,-2.3179,-2.3215,-2.3277,-2.3253,-2.312,-2.2998,-2.2851,-2.2733,-2.2164,-2.1335,-2.0598,-1.9773,-1.9004,-1.8308,-1.8051,-1.7789,-1.7789,-1.7789,-1.7789,-1.7789,-1.7789,-1.7789,-1.7682,-1.7726,-2.4199,-2.4209,-2.4375,-2.4426,-2.4445,-2.4436,-2.4495,-2.4591,-2.4607,-2.4695,-2.4823,-2.5135,-2.5172,-2.5053,-2.5006,-2.5044,-2.5096,-2.5031,-2.5126,-2.516,-2.5138,-2.5136,-2.5161,-2.5183,-2.5163,-2.5234,-2.5183,-2.5194,-2.5293,-2.512,-2.5075,-2.5088,-2.511,-2.5108,-2.5115,-2.513,-2.512,-2.5163,-2.5234,-2.5293,-2.5303,-2.5303,-2.5303,-2.5303,-2.5303,-2.5303,-2.5303,-2.5303,-2.5303,-2.5313,-2.5332,-2.5361,-2.539,-2.547,-2.5498,-2.5531,-2.5595,-2.5635,-2.5654,-2.5684,-2.5693,-2.5693,-2.5693,-2.5684,-2.5654,-2.5625,-2.5586,-2.5539,-2.5495,-2.5454,-2.539,-2.5361,-2.5292,-2.5157,-2.499,-2.4803,-2.4613,-2.4393,-2.4228,-2.4161,-2.4142,-2.4034,-2.3967,-2.3908,-2.3503,-2.3146,-2.3182,-2.3235,-2.3333,-2.3413,-2.3477,-2.3553,-2.3584,-2.3575,-2.3553,-2.3468,-2.3369,-2.3195,-2.3015,-2.2496,-2.1875,-2.0883,-2.0084,-1.9284,-1.856,-1.8118,-1.7869,-1.7811,-1.7789,-1.7811,-1.7811,-1.7789,-1.7789,-1.7862,-1.8118,-2.3958,-2.4045,-2.4054,-2.4104,-2.419,-2.4199,-2.4257,-2.4393,-2.4428,-2.4519,-2.471,-2.492,-2.4922,-2.4789,-2.4655,-2.4762,-2.4872,-2.4873,-2.4971,-2.4984,-2.4949,-2.4958,-2.5034,-2.5049,-2.5003,-2.5105,-2.5049,-2.5034,-2.5103,-2.4895,-2.4891,-2.4925,-2.4896,-2.4884,-2.4945,-2.4946,-2.4959,-2.5044,-2.512,-2.5264,-2.5274,-2.5303,-2.5303,-2.5303,-2.5303,-2.5303,-2.5303,-2.5303,-2.5303,-2.5303,-2.5313,-2.5332,-2.537,-2.539,-2.5422,-2.547,-2.5531,-2.5595,-2.5625,-2.5664,-2.5693,-2.5693,-2.5693,-2.5693,-2.5684,-2.5644,-2.5625,-2.5613,-2.5561,-2.5493,-2.5437,-2.5407,-2.5361,-2.5221,-2.5022,-2.4851,-2.4704,-2.4512,-2.4348,-2.4218,-2.419,-2.417,-2.4142,-2.4075,-2.3934,-2.3553,-2.3469,-2.3545,-2.3702,-2.3774,-2.381,-2.3894,-2.3976,-2.3946,-2.3905,-2.3816,-2.3705,-2.3495,-2.3301,-2.3064,-2.2398,-2.137,-2.0593,-2.0053,-1.9282,-1.8323,-1.8023,-1.8104,-1.7966,-1.7833,-1.7836,-1.7873,-1.8249,-1.8407,-1.8699,-2.3414,-2.3701,-2.3714,-2.3896,-2.4122,-2.4199,-2.4209,-2.4247,-2.4247,-2.4339,-2.4478,-2.4404,-2.4481,-2.4611,-2.4421,-2.4495,-2.4713,-2.4751,-2.4804,-2.4823,-2.4751,-2.479,-2.4832,-2.4837,-2.4828,-2.4818,-2.4804,-2.4822,-2.4866,-2.4727,-2.4763,-2.4723,-2.4645,-2.4619,-2.4784,-2.4795,-2.4864,-2.4955,-2.4989,-2.5131,-2.5224,-2.5274,-2.5303,-2.5303,-2.5303,-2.5303,-2.5303,-2.5303,-2.5303,-2.5303,-2.5303,-2.5313,-2.5322,-2.5361,-2.5389,-2.5407,-2.5522,-2.5585,-2.5605,-2.5674,-2.5693,-2.5693,-2.5693,-2.5693,-2.5693,-2.5684,-2.5674,-2.5664,-2.5635,-2.5576,-2.5508,-2.5443,-2.5379,-2.5262,-2.506,-2.4921,-2.478,-2.4601,-2.441,-2.4294,-2.4228,-2.419,-2.4199,-2.419,-2.419,-2.4023,-2.382,-2.3857,-2.3973,-2.4018,-2.4043,-2.4063,-2.4142,-2.4122,-2.4074,-2.4122,-2.4047,-2.3812,-2.3602,-2.3422,-2.2793,-2.1777,-2.1141,-2.0711,-1.978,-1.8676,-1.8487,-1.8449,-1.8521,-1.858,-1.8087,-1.8104,-1.8523,-1.8973,-1.9298,-2.3268,-2.336,-2.3369,-2.3423,-2.3588,-2.4025,-2.4199,-2.4199,-2.4209,-2.4238,-2.4266,-2.4209,-2.4238,-2.4321,-2.4319,-2.4336,-2.4524,-2.4444,-2.4461,-2.4755,-2.4568,-2.4614,-2.466,-2.467,-2.4664,-2.474,-2.471,-2.4689,-2.4826,-2.46,-2.4542,-2.4509,-2.4423,-2.4349,-2.441,-2.4502,-2.4636,-2.4698,-2.4858,-2.5044,-2.5111,-2.5214,-2.5283,-2.5283,-2.5283,-2.5274,-2.5274,-2.5274,-2.5303,-2.5303,-2.5303,-2.5303,-2.5303,-2.5332,-2.5332,-2.5351,-2.5428,-2.5518,-2.5566,-2.5635,-2.5664,-2.5684,-2.5693,-2.5693,-2.5693,-2.5693,-2.5693,-2.5693,-2.5684,-2.5615,-2.5527,-2.5493,-2.5428,-2.5292,-2.5126,-2.5015,-2.4868,-2.4636,-2.4453,-2.4393,-2.4321,-2.4238,-2.4209,-2.419,-2.4199,-2.4199,-2.4015,-2.4005,-2.4105,-2.4124,-2.4151,-2.4151,-2.419,-2.419,-2.4199,-2.4199,-2.4199,-2.4018,-2.3939,-2.386,-2.3091,-2.2204,-2.1479,-2.0964,-1.9977,-1.9049,-1.9128,-1.9255,-1.9456,-1.9416,-1.8973,-1.8707,-1.9026,-1.9534,-1.9985,-2.294,-2.3021,-2.3012,-2.3093,-2.3268,-2.3795,-2.4083,-2.417,-2.4199,-2.4199,-2.419,-2.419,-2.4209,-2.4209,-2.4209,-2.4238,-2.4366,-2.4284,-2.4256,-2.4561,-2.4348,-2.4383,-2.4461,-2.4478,-2.447,-2.4545,-2.4495,-2.447,-2.4554,-2.4321,-2.4312,-2.433,-2.4257,-2.4237,-2.4266,-2.4348,-2.4444,-2.4533,-2.4723,-2.4841,-2.4933,-2.5027,-2.5105,-2.5126,-2.5149,-2.5183,-2.5204,-2.5244,-2.5303,-2.5303,-2.5303,-2.5303,-2.5303,-2.5303,-2.5303,-2.5322,-2.5361,-2.5466,-2.5557,-2.5605,-2.5644,-2.5693,-2.5674,-2.5676,-2.5669,-2.5644,-2.5664,-2.5674,-2.5684,-2.5615,-2.5526,-2.5509,-2.5438,-2.5312,-2.5223,-2.5118,-2.4974,-2.4737,-2.4636,-2.4556,-2.4426,-2.4321,-2.4218,-2.4209,-2.4199,-2.4199,-2.4181,-2.4199,-2.4199,-2.4199,-2.4199,-2.4199,-2.4199,-2.4199,-2.4199,-2.4199,-2.4199,-2.4199,-2.4142,-2.4074,-2.3699,-2.2869,-2.2043,-2.1268,-2.0652,-2.0178,-2.0009,-2.005,-2.0091,-2.0133,-1.9999,-1.9781,-1.9705,-2.0103,-2.0643,-2.2436,-2.2678,-2.2695,-2.2881,-2.3189,-2.35,-2.3825,-2.4142,-2.417,-2.4142,-2.4151,-2.4141,-2.4159,-2.418,-2.4189,-2.4208,-2.4228,-2.4199,-2.4228,-2.4238,-2.4228,-2.4256,-2.4256,-2.4256,-2.4294,-2.4247,-2.4238,-2.4284,-2.4219,-2.4209,-2.4209,-2.4228,-2.4228,-2.4199,-2.4209,-2.4247,-2.433,-2.4426,-2.4543,-2.4666,-2.4761,-2.4837,-2.4896,-2.4949,-2.5005,-2.5077,-2.5131,-2.5223,-2.5283,-2.5303,-2.5303,-2.5303,-2.5303,-2.5303,-2.5303,-2.5322,-2.5351,-2.5446,-2.5542,-2.5564,-2.5605,-2.5644,-2.5625,-2.5649,-2.5642,-2.559,-2.5597,-2.5619,-2.5625,-2.5576,-2.551,-2.5485,-2.5447,-2.538,-2.5322,-2.5213,-2.5077,-2.4959,-2.4881,-2.4757,-2.4614,-2.447,-2.4321,-2.4273,-2.4328,-2.4217,-2.4246,-2.4246,-2.4217,-2.4199,-2.4199,-2.4199,-2.4199,-2.4199,-2.4199,-2.4199,-2.4199,-2.4199,-2.419,-2.4094,-2.3789,-2.3424,-2.2562,-2.1869,-2.1601,-2.1292,-2.1011,-2.074,-2.0524,-2.0577,-2.0849,-2.0688,-2.0534,-2.0883,-2.1392,-2.2341,-2.2426,-2.2398,-2.2463,-2.2598,-2.2874,-2.3198,-2.3491,-2.3723,-2.3723,-2.35,-2.3994,-2.4012,-2.3873,-2.4096,-2.4162,-2.4186,-2.4199,-2.4199,-2.4199,-2.4199,-2.4199,-2.4199,-2.4199,-2.4199,-2.4199,-2.4199,-2.4199,-2.4209,-2.4199,-2.4199,-2.4209,-2.4199,-2.4199,-2.4199,-2.4199,-2.4256,-2.4312,-2.4418,-2.4512,-2.4607,-2.4685,-2.4771,-2.4854,-2.4911,-2.4998,-2.5141,-2.5214,-2.5274,-2.5293,-2.5293,-2.5303,-2.5303,-2.5303,-2.5303,-2.5303,-2.5322,-2.5361,-2.5456,-2.5514,-2.5551,-2.5554,-2.5535,-2.5582,-2.5573,-2.5553,-2.5535,-2.5566,-2.5564,-2.5517,-2.552,-2.5512,-2.5464,-2.5425,-2.5369,-2.5302,-2.518,-2.5077,-2.5018,-2.4907,-2.4752,-2.4635,-2.4476,-2.4513,-2.454,-2.4365,-2.4273,-2.4301,-2.4274,-2.4237,-2.4199,-2.4199,-2.4199,-2.4199,-2.4199,-2.4199,-2.4199,-2.419,-2.419,-2.4114,-2.3842,-2.3424,-2.2864,-2.2456,-2.2145,-2.2027,-2.1951,-2.166,-2.1395,-2.1597,-2.1822,-2.1585,-2.1476,-2.1656,-2.1827,-2.2319,-2.2319,-2.2319,-2.2319,-2.2338,-2.249,-2.266,-2.2908,-2.3309,-2.3369,-2.3262,-2.3598,-2.3688,-2.3567,-2.3697,-2.3846,-2.3985,-2.3976,-2.4045,-2.4199,-2.417,-2.4199,-2.4199,-2.417,-2.4199,-2.4199,-2.4199,-2.4199,-2.4181,-2.419,-2.4199,-2.4199,-2.4199,-2.4199,-2.4199,-2.4199,-2.4199,-2.4238,-2.4294,-2.4357,-2.4426,-2.4502,-2.4604,-2.4713,-2.4752,-2.492,-2.5096,-2.515,-2.5214,-2.5283,-2.5303,-2.5303,-2.5303,-2.5303,-2.5303,-2.5303,-2.5313,-2.5351,-2.5418,-2.543,-2.546,-2.5477,-2.5469,-2.5472,-2.5479,-2.5456,-2.5488,-2.5532,-2.5507,-2.5492,-2.5523,-2.5532,-2.5492,-2.5449,-2.5415,-2.5399,-2.5292,-2.5192,-2.5109,-2.502,-2.49,-2.477,-2.4753,-2.4791,-2.4782,-2.4608,-2.4528,-2.4542,-2.4441,-2.4312,-2.4247,-2.4199,-2.4199,-2.4199,-2.4199,-2.4199,-2.4199,-2.4199,-2.419,-2.4086,-2.3837,-2.3697,-2.3408,-2.3061,-2.2692,-2.2617,-2.2548,-2.2522,-2.2401,-2.2482,-2.2377,-2.2076,-2.189,-2.1991,-2.2135,-2.2245,-2.2254,-2.2274,-2.2319,-2.2319,-2.2302,-2.2293,-2.2304,-2.2849,-2.3126,-2.3111,-2.3159,-2.32,-2.3192,-2.3268,-2.344,-2.3584,-2.3671,-2.3765,-2.4094,-2.3967,-2.3967,-2.3996,-2.4103,-2.3946,-2.4054,-2.4084,-2.3959,-2.4096,-2.4095,-2.4094,-2.419,-2.4199,-2.4199,-2.4199,-2.4199,-2.4199,-2.4209,-2.4228,-2.4256,-2.4247,-2.4228,-2.4209,-2.4321,-2.4461,-2.4629,-2.4828,-2.4956,-2.5088,-2.5224,-2.5303,-2.5303,-2.5303,-2.5253,-2.5264,-2.5303,-2.5303,-2.5332,-2.538,-2.5408,-2.5426,-2.5427,-2.5426,-2.5407,-2.5399,-2.5379,-2.5409,-2.5447,-2.5447,-2.5464,-2.5492,-2.5517,-2.5502,-2.5482,-2.5464,-2.5425,-2.5351,-2.5262,-2.5203,-2.513,-2.5075,-2.4958,-2.4864,-2.4896,-2.4911,-2.4806,-2.4771,-2.4779,-2.4657,-2.4459,-2.4374,-2.4284,-2.4209,-2.4209,-2.4199,-2.4199,-2.4199,-2.4199,-2.4199,-2.419,-2.4048,-2.404,-2.406,-2.3587,-2.3133,-2.3128,-2.3076,-2.2972,-2.2797,-2.2643,-2.2509,-2.2369,-2.2321,-2.2276,-2.2285,-2.166,-2.1811,-2.2143,-2.2319,-2.2291,-2.2319,-2.2069,-2.1823,-2.2307,-2.249,-2.2588,-2.279,-2.2892,-2.278,-2.2901,-2.3091,-2.3268,-2.3337,-2.336,-2.3477,-2.35,-2.3584,-2.35,-2.3562,-2.3509,-2.3455,-2.3473,-2.3632,-2.3773,-2.3846,-2.3967,-2.4152,-2.4181,-2.4199,-2.4199,-2.4199,-2.4199,-2.4199,-2.4199,-2.4199,-2.4199,-2.4228,-2.4266,-2.4366,-2.4502,-2.4626,-2.4799,-2.4949,-2.5109,-2.5254,-2.5293,-2.5303,-2.5303,-2.5161,-2.5182,-2.5273,-2.5264,-2.5293,-2.5312,-2.5351,-2.5388,-2.5378,-2.536,-2.5361,-2.5351,-2.5322,-2.5313,-2.5361,-2.5397,-2.5426,-2.5454,-2.5492,-2.5517,-2.5515,-2.5504,-2.5459,-2.5399,-2.5341,-2.5283,-2.5244,-2.5224,-2.5134,-2.5021,-2.4992,-2.4997,-2.497,-2.4952,-2.4917,-2.4834,-2.4691,-2.4591,-2.4477,-2.4266,-2.4219,-2.4218,-2.4199,-2.4199,-2.4199,-2.4199,-2.4199,-2.4199,-2.4171,-2.4106,-2.3853,-2.3562,-2.3529,-2.3423,-2.3198,-2.3021,-2.2906,-2.2704,-2.2598,-2.2413,-2.2358,-2.231,-2.1154,-2.1368,-2.1615,-2.1721,-2.173,-2.1713,-2.1576,-2.1407,-2.1606,-2.1713,-2.1848,-2.2287,-2.2463,-2.2322,-2.2508,-2.2764,-2.2939,-2.2968,-2.3115,-2.3165,-2.3155,-2.3227,-2.3194,-2.3146,-2.3242,-2.32,-2.323,-2.3343,-2.346,-2.3671,-2.384,-2.3994,-2.407,-2.419,-2.419,-2.4199,-2.4199,-2.4199,-2.4199,-2.4199,-2.4199,-2.4228,-2.4256,-2.4348,-2.4409,-2.4547,-2.4663,-2.479,-2.4904,-2.5012,-2.5046,-2.5068,-2.5034,-2.4975,-2.4978,-2.5049,-2.5117,-2.5172,-2.5203,-2.5263,-2.5332,-2.5322,-2.5322,-2.5332,-2.5332,-2.5303,-2.5303,-2.5332,-2.5332,-2.5358,-2.5415,-2.5453,-2.551,-2.5536,-2.5505,-2.5464,-2.542,-2.537,-2.5322,-2.5274,-2.5264,-2.5254,-2.5165,-2.5165,-2.5166,-2.5157,-2.5139,-2.512,-2.5026,-2.4915,-2.4825,-2.471,-2.4496,-2.4358,-2.4375,-2.4301,-2.4199,-2.4199,-2.4217,-2.4199,-2.4199,-2.4199,-2.4125,-2.3966,-2.387,-2.3874,-2.3714,-2.3513,-2.3414,-2.3323,-2.3072,-2.2858,-2.2642,-2.2449,-2.2405,-2.0501,-2.0782,-2.0967,-2.0999,-2.0999,-2.0999,-2.0967,-2.0934,-2.0999,-2.0942,-2.0967,-2.1743,-2.1832,-2.1861,-2.2098,-2.2383,-2.2591,-2.2635,-2.2839,-2.295,-2.3013,-2.2944,-2.2952,-2.2995,-2.2969,-2.2959,-2.2974,-2.3033,-2.3131,-2.3327,-2.3498,-2.3695,-2.3921,-2.4142,-2.419,-2.4199,-2.4199,-2.4199,-2.4199,-2.4199,-2.4199,-2.4199,-2.4218,-2.4218,-2.4209,-2.4303,-2.4436,-2.4536,-2.4623,-2.4716,-2.4809,-2.4837,-2.4832,-2.4809,-2.4799,-2.4869,-2.4943,-2.5005,-2.5053,-2.5142,-2.5224,-2.5284,-2.5293,-2.5303,-2.5303,-2.5303,-2.5303,-2.5303,-2.5303,-2.5322,-2.538,-2.5426,-2.5488,-2.5523,-2.5497,-2.5498,-2.5459,-2.541,-2.538,-2.5322,-2.5322,-2.5322,-2.5322,-2.5322,-2.5313,-2.5303,-2.5303,-2.5303,-2.5254,-2.5143,-2.5025,-2.493,-2.4757,-2.4657,-2.457,-2.4468,-2.4367,-2.4301,-2.4319,-2.4255,-2.4199,-2.4199,-2.4199,-2.419,-2.4113,-2.4065,-2.4016,-2.3867,-2.3786,-2.3662,-2.3446,-2.3153,-2.2756,-2.258,-2.2499,-1.9286,-1.9862,-2.0662,-2.0967,-2.0967,-2.0967,-2.0789,-2.0524,-2.0829,-2.0632,-2.0345,-2.0837,-2.1314,-2.1628,-2.2098,-2.2287,-2.2198,-2.2294,-2.2373,-2.2468,-2.2594,-2.255,-2.2542,-2.2649,-2.2515,-2.2516,-2.2597,-2.2637,-2.2799,-2.2916,-2.3193,-2.3608,-2.3719,-2.3937,-2.417,-2.419,-2.4199,-2.4199,-2.4199,-2.4199,-2.4199,-2.4199,-2.4199,-2.4199,-2.4209,-2.433,-2.4444,-2.4495,-2.4623,-2.4685,-2.4664,-2.4664,-2.4664,-2.4632,-2.4632,-2.4691,-2.4766,-2.4854,-2.4933,-2.5022,-2.5111,-2.5253,-2.5273,-2.5303,-2.5303,-2.5303,-2.5303,-2.5303,-2.5303,-2.5303,-2.5341,-2.539,-2.5444,-2.5472,-2.5466,-2.5518,-2.5527,-2.5498,-2.5463,-2.5436,-2.5409,-2.5399,-2.539,-2.5361,-2.5322,-2.5322,-2.5303,-2.5303,-2.5303,-2.5253,-2.5213,-2.5107,-2.4986,-2.4894,-2.4773,-2.4691,-2.4598,-2.4515,-2.4393,-2.432,-2.4256,-2.4218,-2.4199,-2.4199,-2.4199,-2.417,-2.4122,-2.4094,-2.3967,-2.3816,-2.3705,-2.3446,-2.3014,-2.2764,-2.2747]}]]